[[{"header":{"parameterUnit":"m.s-1","parameterCategory":1,"la1":30.6,"la2":28.766,"lo1":-90.7593,"lo2":-88.6598,"dy":0.0162,"dx":0.0183,"nx":116,"ny":114,"refTime":"2024-05-03T12:00:00:Z","depth":0,"parameterNumber":2,"parameterNumberName":"U-component_of_WINDS"},"data":[0.0,0.0,0.0,0.0,0.0,0.0,0.0,0.0,0.0,0.0,0.0,0.0,0.0,0.0,0.0,0.0,0.0,0.0,0.0,0.0,0.0,0.0,0.0,0.0,0.0,0.0,0.0,0.0,0.0,0.0,0.0,0.0,0.0,0.0,0.0,0.0,0.0,0.0,0.0,0.0,0.0,0.0,0.0,0.0,0.0,0.0,0.0,0.0,0.0,0.0,0.0,0.0,0.0,0.0,0.0,0.0,0.0,0.0,0.0,0.0,0.0,0.0,0.0,0.0,0.0,0.0,0.0,0.0,0.0,0.0,0.0,0.0,0.0,0.0,0.0,0.0,0.0,0.0,0.0,0.0,0.0,0.0,0.0,0.0,0.0,0.0,0.0,0.0,0.0,0.0,0.0,0.0,0.0,0.0,0.0,0.0,0.0,0.0,0.0,0.0,0.0,0.0,0.0,0.0,0.0,0.0,0.0,0.0,0.0,0.0,0.0,0.0,0.0,0.0,0.0,0.0,0.0,0.0,0.0,0.0,0.0,0.0,0.0,0.0,0.0,0.0,0.0,0.0,0.0,0.0,0.0,0.0,0.0,0.0,0.0,0.0,0.0,0.0,0.0,0.0,0.0,0.0,0.0,0.0,0.0,0.0,0.0,0.0,0.0,0.0,0.0,0.0,0.0,0.0,0.0,0.0,0.0,0.0,0.0,0.0,0.0,0.0,0.0,0.0,0.0,0.0,0.0,0.0,0.0,0.0,0.0,0.0,0.0,0.0,0.0,0.0,0.0,0.0,0.0,0.0,0.0,0.0,0.0,0.0,0.0,0.0,0.0,0.0,0.0,0.0,0.0,0.0,0.0,0.0,0.0,0.0,0.0,0.0,0.0,0.0,0.0,0.0,0.0,0.0,0.0,0.0,0.0,0.0,0.0,0.0,0.0,0.0,0.0,0.0,0.0,0.0,0.0,0.0,0.0,0.0,0.0,0.0,0.0,0.0,0.0,0.0,0.0,0.0,0.0,0.0,0.0,0.0,0.0,0.0,0.0,0.0,0.0,0.0,0.0,0.0,0.0,0.0,0.0,0.0,0.0,0.0,0.0,0.0,0.0,0.0,0.0,0.0,0.0,0.0,0.0,0.0,0.0,0.0,0.0,0.0,0.0,0.0,0.0,0.0,0.0,0.0,0.0,0.0,0.0,0.0,0.0,0.0,0.0,0.0,0.0,0.0,0.0,0.0,0.0,0.0,0.0,0.0,0.0,0.0,0.0,0.0,0.0,0.0,0.0,0.0,0.0,0.0,0.0,0.0,0.0,0.0,0.0,0.0,0.0,0.0,0.0,0.0,0.0,0.0,0.0,0.0,0.0,0.0,0.0,0.0,0.0,0.0,0.0,0.0,0.0,0.0,0.0,0.0,0.0,0.0,0.0,0.0,0.0,0.0,0.0,0.0,0.0,0.0,0.0,0.0,0.0,0.0,0.0,0.0,0.0,0.0,0.0,0.0,0.0,0.0,0.0,0.0,0.0,0.0,0.0,0.0,0.0,0.0,0.0,0.0,0.0,0.0,0.0,0.0,0.0,0.0,0.0,0.0,0.0,0.0,0.0,0.0,0.0,0.0,0.0,0.0,0.0,0.0,0.0,0.0,0.0,0.0,0.0,0.0,0.0,0.0,0.0,0.0,0.0,0.0,0.0,0.0,0.0,0.0,0.0,0.0,0.0,0.0,0.0,0.0,0.0,0.0,0.0,0.0,0.0,0.0,0.0,0.0,0.0,0.0,0.0,0.0,0.0,0.0,0.0,0.0,0.0,0.0,0.0,0.0,0.0,0.0,0.0,0.0,0.0,0.0,0.0,0.0,0.0,0.0,0.0,0.0,0.0,0.0,0.0,0.0,0.0,0.0,0.0,0.0,0.0,0.0,0.0,0.0,0.0,0.0,0.0,0.0,0.0,0.0,0.0,0.0,0.0,0.0,0.0,0.0,0.0,0.0,0.0,0.0,0.0,0.0,0.0,0.0,0.0,0.0,0.0,0.0,0.0,0.0,0.0,0.0,0.0,0.0,0.0,0.0,0.0,0.0,0.0,0.0,0.0,0.0,0.0,0.0,0.0,0.0,0.0,0.0,0.0,0.0,0.0,0.0,0.0,0.0,0.0,0.0,0.0,0.0,0.0,0.0,0.0,0.0,0.0,0.0,0.0,0.0,0.0,0.0,0.0,0.0,0.0,0.0,0.0,0.0,0.0,0.0,0.0,0.0,0.0,0.0,0.0,0.0,0.0,0.0,0.0,0.0,0.0,0.0,0.0,0.0,0.0,0.0,0.0,0.0,0.0,0.0,0.0,0.0,0.0,0.0,0.0,0.0,0.0,0.0,0.0,0.0,0.0,0.0,0.0,0.0,0.0,0.0,0.0,0.0,0.0,0.0,0.0,0.0,0.0,0.0,0.0,0.0,0.0,0.0,0.0,0.0,0.0,0.0,0.0,0.0,0.0,0.0,0.0,0.0,0.0,0.0,0.0,0.0,0.0,0.0,0.0,0.0,0.0,0.0,0.0,0.0,0.0,0.0,0.0,0.0,0.0,0.0,0.0,0.0,0.0,0.0,0.0,0.0,0.0,0.0,0.0,0.0,0.0,0.0,0.0,0.0,0.0,0.0,0.0,0.0,0.0,0.0,0.0,0.0,0.0,0.0,0.0,0.0,0.0,0.0,0.0,0.0,0.0,0.0,0.0,0.0,0.0,0.0,0.0,0.0,0.0,0.0,0.0,0.0,0.0,0.0,0.0,0.0,0.0,0.0,0.0,0.0,0.0,0.0,0.0,0.0,0.0,0.0,0.0,0.0,0.0,0.0,0.0,0.0,0.0,0.0,0.0,0.0,0.0,0.0,0.0,0.0,0.0,0.0,0.0,0.0,0.0,0.0,0.0,0.0,0.0,0.0,0.0,0.0,0.0,0.0,0.0,0.0,0.0,0.0,0.0,0.0,0.0,0.0,0.0,0.0,0.0,0.0,0.0,0.0,0.0,0.0,0.0,0.0,0.0,0.0,0.0,0.0,0.0,0.0,0.0,0.0,0.0,0.0,0.0,0.0,0.0,0.0,0.0,0.0,0.0,0.0,0.0,0.0,0.0,0.0,0.0,0.0,0.0,0.0,0.0,0.0,0.0,0.0,0.0,0.0,0.0,0.0,0.0,0.0,0.0,0.0,0.0,0.0,0.0,0.0,0.0,0.0,0.0,0.0,0.0,0.0,0.0,0.0,0.0,0.0,0.0,0.0,0.0,0.0,0.0,0.0,0.0,0.0,0.0,0.0,0.0,0.0,0.0,0.0,0.0,0.0,0.0,0.0,0.0,0.0,0.0,0.0,0.0,0.0,0.0,0.0,0.0,0.0,0.0,0.0,0.0,0.0,0.0,0.0,0.0,0.0,0.0,0.0,0.0,0.0,0.0,0.0,0.0,0.0,0.0,0.0,0.0,0.0,0.0,0.0,0.0,0.0,0.0,0.0,0.0,0.0,0.0,0.0,0.0,0.0,0.0,0.0,0.0,0.0,0.0,0.0,0.0,0.0,0.0,0.0,0.0,0.0,0.0,0.0,0.0,0.0,0.0,0.0,0.0,0.0,0.0,0.0,0.0,0.0,0.0,0.0,0.0,0.0,0.0,0.0,0.0,0.0,0.0,0.0,0.0,0.0,0.0,0.0,0.0,0.0,0.0,0.0,0.0,0.0,0.0,0.0,0.0,0.0,0.0,0.0,0.0,0.0,0.0,0.0,0.0,0.0,0.0,0.0,0.0,0.0,0.0,0.0,0.0,0.0,0.0,0.0,0.0,0.0,0.0,0.0,0.0,0.0,0.0,0.0,0.0,0.0,0.0,0.0,0.0,0.0,0.0,0.0,0.0,0.0,0.0,0.0,0.0,0.0,0.0,0.0,0.0,0.0,0.0,0.0,0.0,0.0,0.0,0.0,0.0,0.0,0.0,0.0,0.0,0.0,0.0,0.0,0.0,0.0,0.0,0.0,0.0,0.0,0.0,0.0,0.0,0.0,0.0,0.0,0.0,0.0,0.0,0.0,0.0,0.0,0.0,0.0,0.0,0.0,0.0,0.0,0.0,0.0,0.0,0.0,0.0,0.0,0.0,0.0,0.0,0.0,0.0,0.0,0.0,0.0,0.0,0.0,0.0,0.0,0.0,0.0,0.0,0.0,0.0,0.0,0.0,0.0,0.0,0.0,0.0,0.0,0.0,0.0,0.0,0.0,0.0,0.0,0.0,0.0,0.0,0.0,0.0,0.0,0.0,0.0,0.0,0.0,0.0,0.0,0.0,0.0,0.0,0.0,0.0,0.0,0.0,0.0,0.0,0.0,0.0,0.0,0.0,0.0,0.0,0.0,0.0,0.0,0.0,0.0,0.0,0.0,0.0,0.0,0.0,0.0,0.0,0.0,0.0,0.0,0.0,0.0,0.0,0.0,0.0,0.0,0.0,0.0,0.0,0.0,0.0,0.0,0.0,0.0,0.0,0.0,0.0,0.0,0.0,0.0,0.0,0.0,0.0,0.0,0.0,0.0,0.0,0.0,0.0,0.0,0.0,0.0,0.0,0.0,0.0,0.0,0.0,0.0,0.0,0.0,0.0,0.0,0.0,0.0,0.0,0.0,0.0,0.0,0.0,0.0,0.0,0.0,0.0,0.0,0.0,0.0,0.0,0.0,0.0,0.0,0.0,0.0,0.0,0.0,0.0,0.0,0.0,0.0,0.0,0.0,0.0,0.0,0.0,0.0,0.0,0.0,0.0,0.0,0.0,0.0,0.0,0.0,0.0,0.0,0.0,0.0,0.0,0.0,0.0,0.0,0.0,0.0,0.0,0.0,0.0,0.0,0.0,0.0,0.0,0.0,0.0,0.0,0.0,0.0,0.0,0.0,0.0,0.0,0.0,0.0,0.0,0.0,0.0,0.0,0.0,0.0,0.0,0.0,0.0,0.0,0.0,0.0,0.0,0.0,0.0,0.0,0.0,0.0,0.0,0.0,0.0,0.0,0.0,0.0,0.0,0.0,0.0,0.0,0.0,0.0,0.0,0.0,0.0,0.0,0.0,0.0,0.0,0.0,0.0,0.0,0.0,0.0,0.0,0.0,0.0,0.0,0.0,0.0,0.0,0.0,0.0,0.0,0.0,0.0,0.0,0.0,0.0,0.0,0.0,0.0,0.0,0.0,0.0,0.0,0.0,0.0,0.0,0.0,0.0,0.0,0.0,0.0,0.0,0.0,0.0,0.0,0.0,0.0,0.0,0.0,0.0,0.0,0.0,0.0,0.0,0.0,0.0,0.0,0.0,0.0,0.0,0.0,0.0,0.0,0.0,0.0,0.0,0.0,0.0,0.0,0.0,0.0,0.0,0.0,0.0,0.0,0.0,0.0,0.0,0.0,0.0,0.0,0.0,0.0,0.0,0.0,0.0,0.0,0.0,0.0,0.0,0.0,0.0,0.0,0.0,0.0,0.0,0.0,0.0,0.0,0.0,0.0,0.0,0.0,0.0,0.0,0.0,0.0,0.0,0.0,0.0,0.0,0.0,0.0,0.0,0.0,0.0,0.0,0.0,0.0,0.0,0.0,0.0,0.0,0.0,0.0,0.0,0.0,0.0,0.0,0.0,0.0,0.0,0.0,0.0,0.0,0.0,0.0,0.0,0.0,0.0,0.0,0.0,0.0,0.0,0.0,0.0,0.0,0.0,0.0,0.0,0.0,0.0,0.0,0.0,0.0,0.0,0.0,0.0,0.0,0.0,0.0,0.0,0.0,0.0,0.0,0.0,0.0,0.0,0.0,0.0,0.0,0.0,0.0,0.0,0.0,0.0,0.0,0.0,0.0,0.0,0.0,0.0,0.0,0.0,0.0,0.0,0.0,0.0,0.0,0.0,0.0,0.0,0.0,0.0,0.0,0.0,0.0,0.0,0.0,0.0,0.0,0.0,0.0,0.0,0.0,0.0,0.0,0.0,0.0,0.0,0.0,0.0,0.0,0.0,0.0,0.0,0.0,0.0,0.0,0.0,0.0,0.0,0.0,0.0,0.0,0.0,0.0,0.0,0.0,0.0,0.0,0.0,0.0,0.0,0.0,-4.4858,0.0,0.0,0.0,0.0,0.0,0.0,0.0,0.0,0.0,0.0,0.0,0.0,0.0,0.0,0.0,0.0,0.0,0.0,0.0,0.0,0.0,0.0,0.0,0.0,-4.3444,-4.3444,-4.3211,-4.2908,-4.2786,-4.2909,-4.2561,0.0,0.0,0.0,0.0,-4.1735,-4.1735,-4.1901,-4.2249,-4.2636,-4.3644,-4.5168,-4.4415,-4.3644,-4.2837,0.0,0.0,0.0,0.0,0.0,0.0,0.0,0.0,0.0,0.0,0.0,0.0,0.0,0.0,0.0,0.0,0.0,0.0,0.0,0.0,0.0,0.0,0.0,0.0,0.0,0.0,0.0,0.0,0.0,0.0,0.0,0.0,0.0,0.0,0.0,0.0,0.0,0.0,0.0,0.0,0.0,0.0,0.0,0.0,0.0,0.0,0.0,0.0,0.0,0.0,0.0,0.0,0.0,0.0,0.0,0.0,0.0,0.0,0.0,0.0,0.0,0.0,0.0,0.0,0.0,0.0,0.0,0.0,0.0,0.0,0.0,-4.4748,0.0,0.0,0.0,0.0,0.0,0.0,0.0,0.0,0.0,0.0,0.0,0.0,0.0,0.0,0.0,0.0,0.0,0.0,0.0,0.0,0.0,-4.3529,-4.2875,-4.3062,-4.3089,-4.2767,-4.2267,-4.2072,-4.2284,-4.168,-4.1242,-4.1113,-4.1095,-4.1022,-4.0875,-4.0875,-4.168,-4.3277,-4.4672,-4.6361,-4.8269,-4.6562,-4.5424,-4.4762,-4.4064,0.0,0.0,0.0,0.0,0.0,0.0,0.0,0.0,0.0,0.0,0.0,0.0,0.0,0.0,0.0,0.0,0.0,0.0,0.0,0.0,0.0,0.0,0.0,0.0,0.0,0.0,0.0,0.0,0.0,0.0,0.0,0.0,0.0,0.0,0.0,0.0,0.0,0.0,0.0,0.0,0.0,0.0,0.0,0.0,0.0,0.0,0.0,0.0,0.0,0.0,0.0,0.0,0.0,0.0,0.0,0.0,0.0,0.0,0.0,0.0,0.0,0.0,0.0,-5.058,-5.0652,-4.9771,-5.0595,-5.0134,-4.8645,-4.8899,-4.8812,-4.836,0.0,0.0,0.0,0.0,0.0,0.0,0.0,0.0,0.0,0.0,0.0,0.0,0.0,0.0,0.0,0.0,0.0,0.0,0.0,0.0,-4.3732,-4.289,-4.3599,-4.3998,-4.367,-4.3562,-4.3164,-4.2358,-4.2194,-4.1827,-4.1132,-4.1095,-4.0781,-4.0065,-4.0065,-4.0855,-4.2451,-4.6067,-4.7994,-4.8324,-4.9462,-4.998,-4.9764,-4.6267,-4.4981,-4.5387,0.0,0.0,0.0,0.0,0.0,0.0,0.0,0.0,0.0,0.0,0.0,0.0,0.0,0.0,0.0,0.0,0.0,0.0,0.0,0.0,0.0,0.0,0.0,0.0,0.0,0.0,0.0,0.0,0.0,0.0,0.0,0.0,0.0,0.0,0.0,0.0,0.0,0.0,0.0,0.0,0.0,-4.3575,-4.5218,0.0,0.0,0.0,0.0,0.0,0.0,0.0,0.0,0.0,0.0,0.0,0.0,0.0,-5.1041,-5.1041,-5.4124,-5.4987,-5.3628,-5.6434,-5.695,-5.5523,-5.6231,-5.6038,-5.5053,-5.3061,0.0,-4.9365,-5.0543,0.0,0.0,0.0,0.0,0.0,0.0,0.0,0.0,0.0,0.0,0.0,0.0,0.0,0.0,0.0,0.0,0.0,0.0,0.0,0.0,0.0,-4.3834,-4.4786,-4.445,-4.5284,-4.5013,-4.3111,-4.2965,-4.2011,-3.9848,-3.9753,-3.9588,-3.9239,-4.012,-4.2488,-4.6397,-4.9058,-5.1118,-5.2502,-5.2336,-5.2526,-5.2941,-5.0804,-4.9196,-4.809,-4.7387,0.0,0.0,0.0,0.0,0.0,0.0,0.0,0.0,0.0,0.0,0.0,0.0,0.0,0.0,0.0,0.0,0.0,0.0,0.0,0.0,0.0,0.0,0.0,0.0,0.0,0.0,0.0,0.0,0.0,0.0,0.0,0.0,0.0,0.0,0.0,0.0,0.0,0.0,0.0,-4.4821,-4.6678,-4.6767,-4.8236,-4.8008,0.0,0.0,0.0,0.0,0.0,0.0,0.0,0.0,0.0,-5.0912,-5.2931,-5.4014,-5.4014,-5.6767,-5.8033,-5.7795,-5.9601,-5.9846,-5.8747,-5.9505,-5.9408,-5.8566,-5.7042,-5.5568,-5.4044,-5.1483,-5.0175,-4.9567,0.0,0.0,0.0,0.0,-4.3481,-4.3718,0.0,0.0,0.0,0.0,0.0,0.0,0.0,0.0,0.0,0.0,0.0,0.0,-4.2799,-4.4988,-4.6442,-4.6205,-4.726,-4.6948,-4.458,-4.3828,-4.2249,-3.9441,-3.8927,-3.8707,-3.8707,-4.1279,-4.5021,-4.9922,-5.2165,-5.4267,-5.6101,-5.5131,-5.5027,-5.5648,-5.4934,-5.3211,-5.0767,-4.9806,-4.829,-4.6463,0.0,0.0,0.0,0.0,0.0,0.0,0.0,0.0,0.0,0.0,0.0,0.0,0.0,0.0,0.0,0.0,0.0,0.0,0.0,0.0,0.0,0.0,0.0,0.0,0.0,0.0,0.0,0.0,0.0,0.0,0.0,0.0,0.0,0.0,0.0,0.0,0.0,-4.7541,-4.9193,-4.8356,-5.0846,-5.1095,0.0,0.0,0.0,0.0,0.0,0.0,-5.1566,-5.2134,-5.2798,-5.3577,-5.5825,-5.7024,-5.7024,-5.9087,-6.0327,-6.0713,-6.1276,-6.1233,-6.0659,-6.1196,-6.1141,-6.0579,-5.9944,-5.9212,-5.8142,-5.3193,-5.0879,-5.0365,-4.9263,-4.793,-4.665,-4.6745,-4.6269,-4.5718,0.0,0.0,0.0,0.0,0.0,0.0,0.0,0.0,0.0,0.0,0.0,-4.5193,-4.5224,-4.7841,-4.9584,-4.964,-4.9543,-4.8766,-4.7021,-4.4764,-4.2745,-4.104,-3.9517,-3.8707,-3.8707,-4.4012,-4.8085,-5.0747,-5.4764,-5.6816,-5.6963,-5.7755,-5.8218,-5.8267,-5.7473,-5.571,-5.3225,-5.1844,-5.1084,-5.0471,-4.6624,0.0,0.0,0.0,0.0,0.0,0.0,0.0,0.0,0.0,0.0,0.0,0.0,0.0,0.0,0.0,0.0,0.0,0.0,0.0,0.0,0.0,0.0,0.0,0.0,0.0,0.0,0.0,0.0,0.0,0.0,0.0,0.0,0.0,0.0,0.0,0.0,0.0,0.0,-4.9767,-5.3776,0.0,0.0,0.0,0.0,-4.9915,-4.9892,-5.1284,-5.4327,-5.4587,-5.5679,-5.7913,-5.99,-6.0927,-6.0927,-6.2057,-6.2273,-6.1539,-6.1434,-6.1402,-6.1359,-6.1124,-6.1072,-6.1138,-6.0999,-6.0526,-5.973,-5.7386,-5.5448,-5.3709,-5.1391,-4.9964,-4.8936,-4.6687,-4.6818,-4.8122,0.0,0.0,0.0,0.0,0.0,-4.252,-4.2001,-4.1282,-4.0849,-4.098,-4.3164,-4.4927,-4.5485,-4.9111,-5.175,-5.2231,-5.2989,-5.2325,-4.9664,-4.6709,-4.4323,-4.2708,-4.012,-4.0398,-4.403,-4.7626,-5.0971,-5.4031,-5.6452,-5.7986,-5.8677,-5.9534,-5.9993,-6.0104,-5.9891,-5.8985,-5.748,-5.5446,-5.3292,-5.1158,-4.9675,-4.7158,0.0,0.0,0.0,0.0,0.0,0.0,0.0,0.0,0.0,0.0,0.0,0.0,0.0,0.0,0.0,0.0,0.0,0.0,0.0,0.0,0.0,0.0,0.0,0.0,0.0,0.0,0.0,0.0,0.0,0.0,0.0,0.0,0.0,0.0,0.0,0.0,0.0,-5.2024,-5.5258,0.0,-5.2546,-5.3646,-5.4109,-5.2985,-5.4662,-5.6767,-5.9096,-5.9637,-6.0359,-6.1353,-6.1579,-6.1651,-6.1651,-6.1557,-6.174,-6.224,-6.2189,-6.2265,-6.2432,-6.234,-6.2265,-6.2196,-6.1615,-6.1256,-6.0939,-5.9637,-5.8045,-5.6213,-5.4403,-5.32,-5.234,-5.1051,-5.0597,-5.0674,0.0,0.0,0.0,-4.2976,-4.259,-4.2125,-4.1341,-4.0551,-4.0463,-4.1661,-4.3971,-4.618,-4.7965,-5.1691,-5.4291,-5.4888,-5.5613,-5.466,-5.1491,-4.8418,-4.5662,-4.3269,-4.1071,-4.2578,-4.8252,-5.049,-5.3272,-5.666,-5.8148,-5.9283,-6.0085,-6.0576,-6.0903,-6.1078,-6.11,-6.0846,-6.024,-5.8642,-5.6209,-5.333,-5.19,-4.9174,-4.5805,0.0,0.0,0.0,0.0,0.0,0.0,0.0,0.0,0.0,0.0,0.0,0.0,0.0,0.0,0.0,0.0,0.0,0.0,0.0,0.0,0.0,0.0,0.0,0.0,0.0,0.0,0.0,0.0,0.0,0.0,0.0,0.0,0.0,0.0,0.0,-5.3846,-5.3584,-5.6761,-5.7998,-5.5518,-5.6678,-5.7343,-5.676,-5.8524,-6.0279,-6.1807,-6.2072,-6.2256,-6.2411,-6.2001,-6.1768,-6.1768,-6.139,-6.1676,-6.2603,-6.2603,-6.2762,-6.3075,-6.3026,-6.2659,-6.2028,-6.1728,-6.1282,-6.0768,-6.0511,-5.9516,-5.8019,-5.6754,-5.5628,-5.462,-5.4154,-5.3665,-5.317,0.0,-4.4147,-4.376,-4.2999,-4.2155,-4.1341,-4.0593,-3.9682,-4.0295,-4.3655,-4.6203,-4.9098,-5.2719,-5.5507,-5.7249,-5.7612,-5.7097,-5.5456,-5.2443,-4.9688,-4.647,-4.2659,-4.2533,-4.5221,-5.0888,-5.255,-5.5021,-5.8467,-5.9918,-6.0762,-6.103,-6.0932,-6.1018,-6.1258,-6.113,-6.1133,-6.1243,-6.1243,-5.985,-5.7268,-5.3255,-5.099,-4.9619,0.0,0.0,0.0,0.0,0.0,0.0,0.0,0.0,0.0,0.0,0.0,0.0,0.0,0.0,0.0,0.0,0.0,0.0,0.0,0.0,0.0,0.0,0.0,0.0,0.0,0.0,0.0,0.0,0.0,0.0,0.0,0.0,0.0,-4.8486,-5.2491,-5.5194,-5.4496,-5.8412,-6.0599,-5.9141,-6.0306,-6.1147,-6.1147,-6.1165,-6.1521,-6.2324,-6.1623,-6.1194,-6.1194,-6.1433,-6.1541,-6.1541,-6.1876,-6.2258,-6.2651,-6.2651,-6.2835,-6.3226,-6.3088,-6.2174,-6.0724,-6.1373,-6.0731,-5.9355,-6.0126,-5.996,-5.9134,-5.8327,-5.7024,-5.5633,-5.5614,-5.5614,-5.5464,-4.4237,-4.4147,-4.3574,-4.2255,-4.1783,-4.1136,-3.9774,-3.9291,-3.9695,-4.1367,-4.5282,-4.8765,-5.1007,-5.4876,-5.7555,-5.8206,-5.6826,-5.5129,-5.3217,-4.8438,-4.469,-4.2445,-4.6358,-5.0115,-5.3359,-5.5578,-5.7771,-6.0011,-6.0977,-6.1563,-6.1745,-6.2271,-6.2618,-6.2779,-6.2757,-6.2487,-6.2079,-6.2079,-6.1354,-5.9958,-5.7518,-5.4328,-5.0953,0.0,0.0,0.0,0.0,0.0,0.0,0.0,0.0,0.0,0.0,0.0,0.0,0.0,0.0,0.0,0.0,0.0,0.0,0.0,0.0,0.0,0.0,0.0,0.0,0.0,0.0,0.0,0.0,0.0,0.0,0.0,0.0,-5.1961,-5.2509,-5.4711,-5.6984,-5.8956,-6.1319,-6.2408,-6.1456,-6.173,-6.195,-6.195,-6.2467,-6.3109,-6.393,-6.3484,-6.3213,-6.3213,-6.276,-6.2483,-6.2429,-6.2837,-6.3242,-6.3689,-6.3689,-6.3711,-6.378,-6.3736,-6.3284,-6.2501,-6.2675,-6.2172,-6.125,-6.1358,-6.0599,-5.9274,-5.8355,-5.7373,-5.64,-5.5812,-5.5614,-5.539,-4.3605,-4.3565,-4.3059,-4.154,-4.1203,-4.0714,-3.9461,-3.9188,-3.9826,-4.1852,-4.5851,-4.9396,-5.175,-5.5324,-5.768,-5.7976,-5.6614,-5.452,-5.1654,-4.735,-4.5328,-4.6324,-4.9929,-5.3205,-5.5937,-5.7964,-5.9724,-6.1195,-6.1868,-6.2321,-6.2506,-6.2872,-6.3147,-6.34,-6.3354,-6.3141,-6.2829,-6.2892,-6.2428,-6.1526,-6.0459,-5.7796,-5.4388,-5.3638,-5.1565,-4.9076,-4.9152,-4.8967,-4.8556,-4.7627,0.0,0.0,0.0,0.0,0.0,0.0,0.0,0.0,0.0,0.0,0.0,0.0,0.0,0.0,0.0,0.0,0.0,0.0,0.0,0.0,0.0,0.0,0.0,0.0,-5.1936,-5.4928,-5.6375,-5.769,-5.9377,-6.1771,-6.3145,-6.3859,-6.377,-6.4055,-6.4126,-6.3787,-6.4465,-6.4822,-6.4626,-6.4391,-6.3866,-6.3062,-6.3069,-6.2871,-6.2341,-6.3036,-6.346,-6.3596,-6.4104,-6.4239,-6.3991,-6.4217,-6.3553,0.0,-6.2613,-6.1726,-6.0032,-6.0628,-6.0126,0.0,0.0,0.0,0.0,0.0,-5.6646,-5.6418,-4.2699,-4.2779,-4.2439,-4.0953,-4.0578,-4.0249,-3.9504,-3.9322,-4.0407,-4.3636,-4.7068,-5.0351,-5.3344,-5.6033,-5.7522,-5.7161,-5.6242,-5.3726,-4.9211,-4.6962,-4.7678,-5.1942,-5.3099,-5.5144,-5.8377,-5.9806,-6.1048,-6.2071,-6.2598,-6.2929,-6.3165,-6.2947,-6.3045,-6.3377,-6.3284,-6.3284,-6.34,-6.3534,-6.3126,-6.2326,-6.2303,-6.0907,-5.8563,-5.6282,-5.4489,-5.3162,-5.2325,-5.1603,-5.1008,-5.073,0.0,0.0,0.0,0.0,0.0,0.0,0.0,0.0,0.0,0.0,0.0,0.0,0.0,0.0,0.0,0.0,0.0,0.0,0.0,0.0,0.0,0.0,0.0,0.0,-5.416,-5.7346,-5.9719,-6.0736,-6.1771,-6.3216,-6.4109,-6.4929,-6.5732,-6.6268,-6.6357,-6.5839,-6.6375,-6.6107,-6.4697,0.0,0.0,0.0,0.0,-6.2988,-6.1963,-6.3089,-6.3483,-6.3106,-6.4172,-6.4402,-6.3921,-6.4413,-6.3317,-6.1089,-6.1873,-6.0467,-5.7731,-5.9062,-5.9135,-5.8467,-5.9057,-5.8823,-5.8179,-5.7994,-5.7964,-5.7914,-4.2464,-4.2806,-4.2496,-4.0967,-4.0578,-4.0249,-3.9504,-3.9879,-4.0924,-4.2895,-4.6725,-4.9711,-5.0833,-5.4428,-5.6589,-5.6201,-5.4971,-5.2899,-4.9806,-4.9465,-5.0471,-5.286,-5.5138,-5.7479,-5.9911,-6.0902,-6.1783,-6.2634,-6.2855,-6.3002,-6.3051,-6.3117,-6.3165,-6.3237,-6.3331,-6.3331,-6.326,-6.3488,-6.3441,-6.316,-6.3043,-6.1674,-5.9658,-5.9627,-5.8684,-5.7346,-5.714,-5.6992,-5.6589,-5.4684,-5.4054,-5.3924,-5.3125,-5.1436,0.0,0.0,0.0,0.0,0.0,0.0,0.0,0.0,0.0,0.0,0.0,0.0,0.0,0.0,0.0,0.0,0.0,0.0,0.0,-5.3146,-5.5696,-5.8185,-6.054,-6.1557,-6.2396,-6.3288,-6.4109,-6.4929,-6.5732,-6.4769,-6.4555,-6.5714,-6.534,-6.4947,-6.4626,-6.4303,-6.3948,-6.3585,-6.3768,-6.3786,-6.3567,-6.4736,-6.4961,-6.4268,0.0,0.0,-6.3266,-6.3492,-6.3229,-6.2553,-6.2309,-6.1474,-6.0248,-5.9915,-5.9245,-5.8465,-5.8452,-5.8344,-5.8031,-5.6746,-5.714,-5.8083,-4.1255,-4.1636,-4.1496,-4.0358,-4.0074,-4.0002,-4.0042,-3.9944,-4.0454,-4.2136,-4.495,-4.7513,-4.9352,-5.1235,-5.2656,-5.343,-5.1398,-5.0194,-5.0377,-5.0972,-5.2579,-5.5486,-5.761,-5.9472,-6.097,-6.1796,-6.2401,-6.278,-6.2855,-6.2904,-6.2904,-6.2953,-6.3069,-6.3213,-6.3194,-6.3194,-6.3213,-6.3331,-6.3354,-6.3307,-6.3307,-6.2637,-6.1634,-6.1385,-6.0863,-6.0141,-5.9349,-5.9079,-5.8807,-5.6831,-5.6186,-5.6116,-5.5299,-5.3867,-5.2029,0.0,0.0,0.0,0.0,0.0,0.0,0.0,0.0,0.0,0.0,0.0,0.0,0.0,0.0,-4.922,-4.9634,0.0,-5.2452,-5.4374,-5.6642,-5.8845,-6.0826,-6.2092,-6.2985,-6.3341,-6.4109,-6.4769,-6.5161,-6.5197,-6.5358,-6.5768,-6.5804,-6.5625,-6.5233,-6.5023,-6.4627,-6.4007,-6.4573,-6.4609,-6.4018,-6.5202,-6.5197,-6.4002,-6.4642,-6.4297,-6.3052,-6.3402,-6.3335,-6.2984,-6.2788,-6.1841,-6.0395,-5.9579,-5.8943,-5.8489,-5.84,-5.8356,-5.8245,-5.7451,-5.7673,-5.826,-3.9852,-4.0207,-4.0302,-3.9708,-3.9546,-3.972,-4.0356,-3.9882,-4.002,-4.1558,-4.3239,-4.5229,-4.772,-4.7959,-4.8512,-4.9932,-4.8245,-4.8231,-5.0895,-5.2075,-5.4352,-5.807,-5.963,-6.0786,-6.1575,-6.2548,-6.3062,-6.3062,-6.3227,-6.3227,-6.3062,-6.3087,-6.3094,-6.3117,-6.3051,-6.3075,-6.3141,-6.3189,-6.3189,-6.3165,-6.3265,-6.3354,-6.3238,-6.2214,-6.1853,-6.1763,-6.0351,-5.9638,-5.9186,-5.7786,-5.7369,-5.734,-5.6562,-5.593,-5.4703,-5.0731,-5.0286,0.0,0.0,0.0,0.0,0.0,0.0,0.0,0.0,0.0,-4.9423,-4.9352,-5.0413,-5.147,-5.1793,-5.2784,-5.4135,-5.5847,-5.7693,-5.9423,-6.0897,-6.2164,-6.2949,-6.2949,-6.3787,-6.4448,-6.459,-6.5768,-6.6392,-6.6053,-6.6482,-6.6482,-6.5822,-6.5804,-6.5354,-6.4375,-6.5296,-6.5319,-6.4357,-6.5171,-6.484,-6.3426,-6.4333,-6.4036,-6.2741,-6.3265,-6.3309,-6.2929,-6.2809,-6.167,-5.9828,-5.9032,-5.8635,-5.8532,-5.8532,-5.8532,-5.8532,-5.8489,-5.8443,-5.8396,-3.8768,-3.93,-3.969,-3.9608,-3.9546,-3.952,-3.9543,-4.0064,-4.0737,-4.1522,-4.3181,-4.4416,-4.4687,-4.6105,-4.6847,-4.6356,-4.8394,-5.0137,-5.1213,-5.3245,-5.581,-5.8933,-5.9924,-6.0786,-6.1575,-6.3135,-6.3943,-6.3943,-6.4677,-6.4659,-6.3943,-6.4007,-6.3603,-6.2855,-6.3093,-6.3051,-6.2855,-6.3093,-6.3123,-6.3026,-6.3051,-6.3123,-6.3121,-6.2166,-6.1805,-6.1719,-6.0955,-5.9696,-5.8246,-5.7537,-5.7328,-5.7182,-5.6523,-5.6729,-5.6521,-5.297,-5.2022,-5.1335,-4.7774,-4.5241,-4.4105,-4.6172,-4.6509,-4.687,0.0,0.0,-5.2527,-5.1705,-5.2749,-5.4245,-5.5678,-5.5982,-5.674,-5.9023,-5.9612,-6.0094,-6.0968,-6.1254,-6.1361,-6.1361,-6.2646,-6.3805,-6.4537,-6.4769,-6.5429,-6.6767,-6.6285,-6.5893,-6.5804,-6.5804,-6.5746,-6.56,-6.5746,-6.5746,-6.5582,-6.5001,-6.4287,-6.3377,-6.3018,-6.2431,-6.1759,-6.2312,-6.2599,-6.2588,-6.1634,-6.0722,-5.9828,-5.9032,-5.8677,-5.8696,-5.8696,-5.8696,-5.8675,-5.8462,-5.844,-5.8486,-3.888,-3.9264,-3.9589,-3.9589,-3.9583,-3.9708,-4.0139,-4.0063,-4.0235,-4.0984,-4.1278,-4.1955,-4.329,-4.4114,-4.3932,-4.2299,-4.5323,-4.8036,-4.973,-5.3337,-5.6749,-5.9777,-6.0676,-6.1465,-6.2291,-6.2989,-6.3337,-6.3337,-6.3686,-6.3686,-6.3337,-6.3369,-6.321,-6.2929,-6.2953,-6.2953,-6.2929,-6.2953,-6.2978,-6.3002,-6.3002,-6.2798,-6.2474,-6.2147,-6.108,-5.9541,-5.8319,-5.6826,0.0,-5.5163,-5.4822,-5.4718,-5.5929,-5.5205,-5.3606,-5.2196,-5.0582,-4.8954,-4.7404,-4.7059,0.0,0.0,-4.9375,-5.0558,-5.1925,-5.335,-5.4335,-5.4003,-5.5124,-5.6375,-5.7054,-5.7152,-5.7703,0.0,-5.9494,-5.9666,-6.0915,-6.1093,-6.1123,-6.1211,-6.1313,-6.1682,-6.2485,-6.4234,-6.5197,-6.4912,-6.5465,-6.5804,-6.5804,-6.5804,-6.5804,-6.5804,-6.5804,-6.5804,-6.5804,-6.5019,-6.4247,-6.3566,-6.2857,-6.2216,-6.1718,-6.195,-6.2291,-6.2663,-6.1583,-6.0939,-6.0555,-5.9255,-5.8716,-5.8716,-5.8716,-5.8716,-5.8696,-5.8508,-5.8486,-5.8489,-3.8942,-3.9224,-3.9483,-3.9577,-3.9589,-3.9783,-4.0359,-3.9882,-3.9675,-4.0269,-3.9741,-3.9978,-4.1692,-4.1878,-4.1255,-3.9708,-4.2889,-4.5969,-4.8321,-5.2708,-5.647,-5.9281,-6.0603,-6.1539,-6.2144,-6.2823,-6.3172,-6.3172,-6.3613,-6.3723,-6.3477,-6.3723,-6.3645,-6.3303,-6.3204,-6.3075,-6.2953,-6.283,-6.2855,-6.2953,-6.3002,-6.2596,-6.1957,-6.1606,-5.9601,-5.683,-5.5852,-5.4299,-5.26,-5.2,-5.1932,-5.2325,-5.3513,-5.2845,-5.151,-5.0805,-4.8809,-4.6838,-4.6851,0.0,0.0,-4.9983,-5.1311,-5.2752,-5.4192,-5.4874,-5.5357,-5.5911,-5.6858,-5.7749,-5.8149,-5.8221,-5.8667,-6.0023,-5.9755,-5.9791,-6.0933,-6.0915,-6.0742,-6.0655,-6.0049,-5.9599,-5.9527,-6.2747,-6.4608,-6.4091,-6.5143,-6.5804,-6.5804,-6.5804,-6.5804,-6.5804,-6.5804,-6.5697,-6.5482,-6.468,-6.3987,-6.337,-6.2594,-6.2087,-6.1802,-6.1895,-6.231,-6.2855,-6.1823,-6.1304,-6.1094,-5.9584,-5.886,-5.8716,-5.8716,-5.8716,-5.8677,-5.8553,-5.8511,-5.8489,-3.8548,-3.8898,-3.9229,-3.954,-3.9589,-3.9583,-3.9545,-3.9462,-3.9405,-3.9442,-3.9253,-3.9166,-3.9309,-3.9309,-3.9357,-3.9482,-4.2337,-4.513,-4.7486,-5.1302,-5.4517,-5.6804,-5.9171,-6.0456,-6.0474,-6.2823,-6.4053,-6.4053,-6.5613,-6.5999,-6.5246,-6.6017,-6.5558,-6.4079,-6.4053,-6.3594,-6.2823,-6.2805,-6.2805,-6.2823,-6.2953,-6.2596,-6.1823,-6.0258,-5.7257,-5.3915,-5.4521,-5.3064,-5.0528,-4.8255,-4.9122,-5.0749,-4.8475,-4.9935,0.0,-4.9343,-4.7426,-4.6229,-4.6687,0.0,-4.6506,-5.0158,-5.0814,-5.1437,-5.4639,-5.5294,-5.5651,-5.7213,-5.757,-5.8042,-5.9559,-5.9844,-6.0112,-6.0933,-6.104,-6.104,-6.1093,-6.0433,-5.9695,-5.9051,-5.8954,-5.8059,0.0,-5.9717,-6.3324,-6.5554,-6.5768,-6.5804,-6.5804,-6.5804,-6.5804,-6.5804,-6.5804,-6.5429,-6.4662,-6.3841,-6.313,-6.2546,-6.1933,-6.1698,-6.183,-6.2203,-6.2698,-6.3152,-6.2185,-6.1556,-6.111,-6.0092,-5.9298,-5.8716,-5.8716,-5.8716,-5.8677,-5.8553,-5.8511,-5.8511,-3.8281,-3.8551,-3.8865,-3.921,-3.9269,-3.9354,-3.9546,-3.9508,-3.9469,-3.9469,-3.9301,0.0,0.0,0.0,0.0,0.0,-4.1366,-4.3819,-4.6759,-5.062,-5.3817,-5.6101,-5.8911,-6.0162,-5.9606,-6.0951,-6.1649,-6.1649,-6.2199,-6.2585,-6.2842,-6.3117,-6.3246,-6.3246,-6.3246,-6.308,-6.278,-6.278,-6.278,-6.2768,-6.2267,-6.1666,-6.0895,-5.9296,-5.6516,-5.3182,0.0,-4.7813,-4.5184,-4.4978,-4.5122,-4.5542,-4.637,-4.6295,-4.5449,-4.3398,-4.5212,-4.7661,-4.6671,0.0,-5.0696,-5.2499,-5.329,-5.4045,-5.5687,-5.6428,-5.6775,-5.6793,-5.7221,-5.7578,-5.7578,-5.7578,-5.8006,-5.9309,-5.8649,-5.8702,-6.0808,-5.9077,-5.8341,-6.0421,-5.8733,0.0,0.0,0.0,0.0,-6.1878,-6.3898,-6.5341,-6.5768,-6.5804,-6.5804,-6.5804,-6.5286,-6.4876,-6.4608,-6.3805,-6.3124,-6.264,-6.2107,-6.1886,-6.1941,-6.2275,-6.2493,-6.2643,-6.2059,-6.1481,-6.087,-6.0045,-5.9298,-5.8716,-5.8716,-5.8635,-5.8553,-5.8511,-5.8511,-5.8511,0.0,-3.8265,-3.8535,-3.8851,-3.8927,0.0,0.0,0.0,0.0,0.0,0.0,0.0,0.0,0.0,0.0,0.0,0.0,-4.2478,-4.5109,-4.8217,-5.1084,-5.3625,-5.5579,-5.661,-5.6638,-5.7428,-5.7978,-5.8253,-5.9116,-6.0107,-6.1172,-6.1465,-6.1869,-6.2383,-6.2383,-6.2218,-6.1942,-6.1942,-6.1796,-6.1429,-6.0375,-5.9343,-5.8252,-5.6301,-5.3617,0.0,-4.7114,-4.404,-4.1574,-4.1864,-4.2193,-4.2615,-4.3328,-4.2666,-4.1733,-4.2449,-4.4927,-4.7601,-4.8162,-5.0567,-5.3189,-5.4483,-5.5327,-5.5999,-5.6501,-5.6885,-5.7124,-5.6947,-5.7304,-5.7467,-5.677,-5.6546,-5.6831,-5.7943,-5.7208,-5.7465,-6.036,-5.9002,-5.854,-6.0809,-5.9163,0.0,0.0,0.0,0.0,-6.0431,-6.257,-6.4107,-6.4519,-6.4555,-6.4804,-6.5358,-6.4876,-6.4341,-6.3787,-6.3313,-6.2851,-6.2371,-6.2121,-6.1996,-6.2023,-6.2195,-6.2026,-6.1635,-6.1842,-6.1147,-5.9876,-5.9963,-5.9445,-5.8553,-5.8656,-5.8471,-5.8164,-5.8357,-5.8261,-5.8039,0.0,0.0,-3.8167,0.0,0.0,0.0,0.0,0.0,0.0,0.0,0.0,0.0,0.0,0.0,0.0,0.0,0.0,0.0,-4.2739,-4.4419,-4.6601,-4.9455,-4.9675,-5.0391,-5.1795,-5.2619,-5.3408,-5.4216,-5.651,-5.8437,-5.9997,-6.075,-6.1117,-6.1172,-6.1172,-6.075,-6.0034,-6.0089,-5.963,-5.8767,-5.7361,-5.588,-5.4202,-5.1755,-4.8919,-4.6004,-4.4154,-4.2005,-3.9936,-3.9138,0.0,0.0,0.0,0.0,-4.1248,0.0,0.0,-4.6436,-5.0854,-5.2764,-5.402,-5.6095,-5.6903,-5.7137,-5.7075,-5.6805,-5.6768,-5.7477,-5.7594,-5.7415,0.0,0.0,-5.641,-5.6884,-5.6686,-5.7316,-5.9688,-6.001,-6.001,0.0,0.0,0.0,0.0,0.0,0.0,-6.1275,0.0,-6.2408,-6.2467,-6.2431,-6.3092,-6.4573,-6.4537,-6.3787,-6.2307,-6.2415,-6.2245,-6.1856,-6.1959,-6.1996,-6.1996,-6.1996,-6.1386,-6.0358,-6.1636,-6.0704,-5.8414,-5.996,-5.9679,-5.8341,-5.8574,-5.8213,-5.7617,-5.8092,-5.7802,-5.7285,0.0,0.0,0.0,0.0,0.0,0.0,0.0,0.0,0.0,0.0,0.0,0.0,0.0,0.0,0.0,0.0,0.0,0.0,-4.2117,-4.3669,-4.5097,-4.645,-4.8067,-4.9085,-4.9453,-5.0165,-5.0912,-5.172,-5.2325,-5.3151,-5.4142,-5.4344,-5.4766,-5.5354,-5.5354,-5.5244,-5.5097,-5.5684,-5.5482,-5.4711,-5.4311,-5.3561,-5.2461,-5.0623,-4.8657,-4.6562,-4.4304,-4.239,-4.078,0.0,0.0,0.0,0.0,-4.4418,-4.4569,0.0,0.0,-5.075,-5.1342,-5.4585,-5.8082,-5.9246,-5.9377,-5.8987,-5.8099,-5.8364,-5.8131,-5.5762,-5.4903,-5.4043,0.0,0.0,0.0,-5.4619,-5.4826,0.0,-5.8624,-5.8581,0.0,-5.9967,0.0,-6.1429,-6.2532,-6.3263,0.0,0.0,-6.2588,-6.3786,-6.484,-6.4341,-6.4198,-6.4608,-6.3484,-6.2699,-6.2289,-6.1996,-6.2137,-6.2687,-6.223,-6.1996,-6.1996,-6.1996,-6.1842,-6.1587,-6.1995,-6.1189,-5.9591,-6.0091,-5.9522,-5.8319,-5.8385,-5.8338,-5.818,-5.773,-5.7713,-5.7855,0.0,0.0,0.0,0.0,0.0,0.0,0.0,0.0,0.0,0.0,0.0,0.0,0.0,0.0,0.0,0.0,0.0,0.0,0.0,-4.2047,-4.315,-4.4172,-4.5057,-4.5797,-4.634,-4.6728,-4.7315,-4.8122,-4.8489,-4.9242,-5.0362,-5.0013,-5.0472,-5.1591,-5.161,-5.183,-5.2179,-5.2637,-5.2362,0.0,0.0,-5.005,-4.915,-4.7554,-4.6342,-4.5296,-4.3589,-4.27,0.0,0.0,0.0,-4.4714,-4.755,-4.7884,-4.759,-4.9306,0.0,-5.3327,-5.4701,-5.7307,-5.9827,-6.0659,-6.0549,-5.9792,-5.8014,-5.7885,-5.7173,-5.3851,-5.2883,0.0,-4.9716,0.0,0.0,0.0,0.0,0.0,-5.7912,-5.8519,-5.9155,0.0,-6.1515,0.0,-6.457,-6.4724,-6.4304,0.0,-6.3142,-6.3273,-6.3698,-6.3306,-6.3234,-6.3573,-6.2735,-6.22,-6.1979,-6.1792,-6.1981,-6.2554,-6.2186,-6.1996,-6.1996,-6.1996,-6.1652,-6.1071,0.0,-6.0542,-5.8906,-5.9383,-5.8974,-5.7987,-5.8119,-5.8006,-5.7737,-5.7644,-5.7309,-5.6923,0.0,0.0,0.0,0.0,0.0,0.0,0.0,0.0,0.0,0.0,-3.9675,-3.9863,0.0,0.0,0.0,0.0,0.0,0.0,0.0,0.0,-4.1322,-4.2534,-4.1943,-4.2143,-4.3347,-4.3349,-4.3736,-4.4544,-4.5241,-4.6305,-4.7664,-4.6837,-4.7278,-4.8691,-4.8656,-4.9077,-4.9848,-4.9958,-4.9517,-4.8674,-4.7333,-4.6305,-4.5424,0.0,-4.3515,-4.3386,-4.2486,-4.277,0.0,0.0,-4.6756,-4.657,-5.0787,-5.1065,-5.0824,-5.5742,-5.5853,-5.5108,-5.851,-5.9757,-6.0295,-6.115,-6.1096,-6.0236,-5.7898,-5.674,-5.5299,-5.2251,0.0,-5.041,-4.8712,-4.9234,-5.0536,-5.2481,0.0,-5.5113,-5.702,-5.9008,-6.0382,-6.0736,-6.2324,-6.4019,-6.5643,-6.4983,-6.4822,-6.5732,-6.3912,-6.2396,-6.1611,-6.145,-6.1658,-6.214,-6.2158,-6.1997,-6.1651,-6.1746,-6.1858,-6.1996,-6.1996,-6.1996,-6.1996,-6.1996,-6.1299,-6.0116,0.0,0.0,-5.7738,-5.8444,-5.8306,-5.7625,-5.7857,-5.7551,-5.7024,-5.7501,-5.6699,-5.5541,0.0,0.0,0.0,0.0,0.0,0.0,0.0,0.0,0.0,0.0,-3.9526,-3.9369,0.0,0.0,0.0,0.0,0.0,0.0,0.0,0.0,0.0,-4.1927,-4.1738,-4.1946,-4.2666,-4.2555,-4.2892,-4.3699,-4.3863,-4.4048,-4.4305,-4.3516,-4.3644,-4.4524,-4.3864,-4.4011,-4.48,-4.548,-4.5296,-4.4598,-4.4966,-4.4635,-4.39,-4.3625,0.0,0.0,-4.1891,-4.1891,-4.3068,-4.644,-4.8731,-5.0861,-5.5091,-5.6147,-5.5753,-5.5501,-5.656,-5.7693,-5.71,-5.8921,-6.1168,-6.2004,-6.2146,-6.1674,-6.0139,-5.7798,0.0,0.0,-4.9735,-4.8089,-4.8288,-4.8917,-5.0274,-5.2851,0.0,0.0,0.0,0.0,-6.048,0.0,0.0,0.0,0.0,0.0,0.0,0.0,0.0,-6.484,-6.4055,-6.3359,-6.2528,-6.1503,-6.1467,-6.1588,-6.1774,-6.1802,-6.1858,-6.1996,-6.1996,-6.1996,-6.1996,-6.1996,-6.186,-6.1598,-6.1045,0.0,-5.917,-5.867,-5.8133,-5.7601,-5.7649,-5.7719,-5.7648,-5.6455,-5.6099,-5.6148,0.0,0.0,0.0,0.0,0.0,0.0,0.0,-3.8939,-3.9318,-4.0311,-4.0818,-4.0599,-3.9266,-3.8888,-3.8796,0.0,0.0,0.0,0.0,0.0,0.0,-4.1295,-4.1902,0.0,-4.27,-4.2859,0.0,0.0,0.0,-4.2873,-4.2855,0.0,0.0,0.0,-4.247,-4.2745,-4.3533,-4.3901,-4.3846,-4.3533,-4.392,-4.3828,-4.3515,0.0,0.0,0.0,0.0,0.0,-4.3986,-4.6095,-4.8215,-5.0843,-5.589,-5.7728,-5.7726,-5.6133,-5.7416,-5.8977,-5.736,-5.9032,-6.1391,-6.2209,-6.2097,-6.1159,-5.8707,0.0,0.0,0.0,-4.7389,-4.6079,-4.599,-4.7131,0.0,0.0,0.0,0.0,0.0,0.0,0.0,0.0,0.0,0.0,0.0,0.0,0.0,0.0,0.0,-6.3966,-6.3984,-6.2842,-6.192,-6.1317,-6.1386,-6.1577,-6.1802,-6.1858,-6.1941,-6.1996,-6.1996,-6.1996,-6.1996,-6.1996,-6.1996,-6.1924,-6.072,0.0,-5.8464,-5.7982,-5.7211,-5.6429,-5.7128,-5.7461,-5.7455,-5.6392,-5.5837,-5.5583,0.0,0.0,0.0,0.0,0.0,0.0,-3.9639,-3.989,-4.025,-4.1239,-4.1981,-4.1738,-4.0028,-3.9309,-3.8905,0.0,0.0,0.0,0.0,0.0,0.0,0.0,0.0,0.0,0.0,0.0,0.0,0.0,0.0,0.0,0.0,0.0,0.0,0.0,0.0,0.0,0.0,-4.3515,-4.3515,0.0,0.0,0.0,0.0,0.0,0.0,0.0,0.0,0.0,0.0,0.0,-4.7054,-4.9139,-5.4275,-5.6709,-5.7509,-5.6766,-5.7899,-5.9237,-5.8494,-5.972,-6.1391,-6.2209,-6.18,-6.0345,-5.7087,-5.4637,0.0,0.0,-4.5606,-4.4742,-4.4581,-4.5918,-4.8003,0.0,-5.21,0.0,0.0,0.0,0.0,0.0,0.0,0.0,0.0,0.0,0.0,0.0,0.0,0.0,-6.3127,-6.1873,-6.1211,-6.1357,-6.1548,-6.1718,-6.183,-6.1941,-6.1996,-6.1996,-6.185,-6.1794,-6.1794,-6.1794,-6.1794,-6.1704,-6.0097,0.0,0.0,-5.7145,-5.6197,-5.5123,-5.6497,-5.6915,-5.6737,-5.5948,-5.5176,-5.4518,0.0,0.0,0.0,0.0,0.0,0.0,-3.9031,-3.9193,-3.9788,-4.145,-4.1684,-4.1321,-4.0365,-4.0328,-3.9797,0.0,0.0,0.0,0.0,0.0,0.0,0.0,0.0,0.0,0.0,0.0,0.0,0.0,0.0,0.0,0.0,0.0,0.0,0.0,0.0,0.0,0.0,0.0,0.0,0.0,0.0,0.0,0.0,0.0,0.0,0.0,0.0,0.0,0.0,0.0,0.0,-4.6942,-4.9787,-5.2326,-5.4667,-5.6766,0.0,0.0,-6.0295,-6.1038,-6.1391,-6.2209,-6.18,-6.0494,-5.7722,0.0,0.0,-4.7903,-4.5584,-4.4686,-4.663,-4.7149,-4.8361,-5.1647,0.0,-5.1254,0.0,0.0,0.0,0.0,0.0,0.0,0.0,0.0,0.0,0.0,0.0,0.0,-6.2414,-6.1676,-6.1386,-6.1577,-6.1718,-6.1858,-6.1996,-6.1996,-6.1996,-6.1978,-6.1401,-6.1093,-6.1081,-6.1075,-6.1104,-6.1015,-5.9441,0.0,0.0,-5.6688,-5.5552,-5.4424,-5.5848,-5.6045,-5.5366,-5.388,-5.3253,-5.3067,0.0,0.0,0.0,0.0,0.0,0.0,-3.8941,-3.9031,-3.9606,-4.1413,-4.2461,-4.271,-4.1785,-4.1772,-4.0799,-3.832,-3.815,0.0,0.0,0.0,0.0,0.0,0.0,0.0,0.0,0.0,0.0,-4.3124,0.0,0.0,0.0,0.0,0.0,0.0,0.0,0.0,0.0,0.0,0.0,0.0,0.0,0.0,0.0,0.0,0.0,0.0,0.0,0.0,0.0,0.0,0.0,0.0,-4.4528,-4.581,0.0,0.0,-5.4054,-5.6673,-5.6172,-5.8568,-6.128,-6.1596,-6.0992,-5.9684,-5.7075,0.0,-5.0249,-4.7295,-4.5115,-4.4044,-4.5024,-4.5579,-4.6746,-4.9252,0.0,0.0,0.0,0.0,0.0,0.0,0.0,0.0,0.0,0.0,0.0,0.0,0.0,0.0,-6.2271,-6.2045,-6.18,-6.1595,-6.1997,-6.2158,-6.1996,-6.1913,-6.171,-6.1401,-6.1122,-6.0777,-6.0393,-6.0393,-6.0406,-6.0318,-5.8779,0.0,0.0,-5.5553,-5.438,-5.2491,-5.4839,-5.5618,-5.5262,-5.4156,-5.3408,-5.2965,0.0,0.0,0.0,0.0,0.0,-3.7935,-3.8887,-3.9192,-3.9786,-4.1087,-4.2639,-4.3287,-4.24,-4.2035,-4.0992,-3.8886,-3.8115,0.0,0.0,0.0,0.0,0.0,0.0,0.0,0.0,0.0,-4.2498,-4.2692,-4.2293,0.0,0.0,0.0,0.0,0.0,0.0,0.0,0.0,0.0,0.0,0.0,0.0,0.0,0.0,0.0,0.0,0.0,0.0,0.0,0.0,0.0,0.0,0.0,0.0,-4.1551,-4.2706,0.0,-5.1082,-5.4686,-5.3905,-5.7379,-6.1206,-6.1206,-6.0321,-5.8733,0.0,-5.2687,-4.9362,-4.6098,-4.4494,-4.3718,-4.3788,-4.4266,-4.5291,-4.7284,0.0,-4.951,0.0,0.0,0.0,0.0,0.0,0.0,0.0,0.0,0.0,0.0,0.0,0.0,0.0,-6.2164,-6.2189,-6.1897,-6.2137,-6.2191,-6.1941,-6.1858,-6.1523,-6.1016,-6.0807,-6.0114,-5.9062,-5.9467,-5.9432,-5.8943,0.0,0.0,0.0,-5.4805,-5.3626,-5.163,-5.4139,-5.4996,-5.4743,-5.3944,-5.3271,-5.2778,0.0,0.0,0.0,0.0,0.0,-3.7899,-3.8778,-3.9696,-4.0328,-4.0402,-4.181,-4.2514,-4.1702,-4.0721,-4.0122,-4.0087,-3.8868,0.0,0.0,0.0,0.0,0.0,0.0,0.0,-4.1481,-4.2418,-4.2673,-4.2198,-4.2926,-4.3153,-4.2882,-4.3151,0.0,0.0,0.0,0.0,0.0,0.0,0.0,0.0,0.0,0.0,-4.3463,0.0,0.0,0.0,0.0,0.0,0.0,0.0,0.0,0.0,0.0,-4.076,-4.1211,-4.6153,-4.9432,-5.2159,-5.5391,-5.8679,-6.1206,-6.1206,-5.9897,-5.7733,0.0,-5.112,-4.7826,-4.4349,-4.3767,-4.3883,-4.382,-4.3822,-4.4498,-4.6558,-4.7463,0.0,0.0,0.0,0.0,0.0,0.0,0.0,0.0,0.0,0.0,0.0,0.0,0.0,0.0,-6.186,-6.2361,-6.2492,-6.2047,-6.182,-6.1802,-6.1802,-6.1523,-6.0968,-6.0313,-5.8858,-5.6786,-5.827,-5.8132,0.0,0.0,0.0,0.0,-5.4713,-5.3566,-5.2419,-5.3846,-5.4059,-5.3433,-5.2637,-5.2333,-5.2181,0.0,0.0,0.0,0.0,0.0,0.0,-3.7842,-3.824,-3.878,-3.9499,-4.0455,-4.1249,-4.1631,-4.0722,-4.0161,-4.0292,-3.8744,0.0,0.0,0.0,0.0,0.0,0.0,0.0,-4.1494,-4.2021,-4.2369,-4.2542,-4.222,-4.2286,-4.2703,-4.2551,-4.243,-4.2358,0.0,0.0,0.0,0.0,0.0,0.0,0.0,-4.2692,-4.3087,0.0,0.0,0.0,0.0,0.0,0.0,0.0,0.0,0.0,0.0,0.0,0.0,-4.1129,-4.4267,-4.7441,-4.8393,-5.151,-5.4611,-5.5127,-5.5175,-5.4539,-5.2375,-5.0118,-4.7703,-4.5102,-4.4054,-4.3634,-4.3667,-4.3667,-4.4558,-4.7272,-4.7829,0.0,0.0,0.0,0.0,0.0,0.0,0.0,0.0,0.0,0.0,0.0,0.0,0.0,0.0,-6.0513,-6.0589,-6.1657,-6.1991,-6.1971,-6.168,-6.1034,-6.0437,-5.9899,-5.9195,-5.7724,-5.5683,-5.7262,0.0,0.0,0.0,0.0,0.0,-5.3611,-5.2897,-5.1717,-5.3203,-5.3668,-5.3467,-5.3213,-5.2724,-5.2185,0.0,0.0,0.0,0.0,0.0,0.0,-3.7354,-3.7753,-3.8168,-3.8474,-3.9191,-4.0018,-4.0977,-3.9853,-3.9365,-4.0108,-3.8524,0.0,0.0,0.0,0.0,0.0,0.0,0.0,-4.1661,-4.2328,-4.2745,-4.2881,-4.2736,-4.2789,-4.3045,-4.273,-4.2498,-4.2306,-4.1898,-4.1966,0.0,0.0,0.0,0.0,-4.2115,-4.2318,-4.2882,0.0,0.0,0.0,0.0,0.0,0.0,0.0,0.0,0.0,0.0,0.0,0.0,0.0,-4.0258,-4.2758,-4.4244,-4.7689,-5.1046,-5.1825,-5.186,-5.1394,-5.0359,-4.8532,-4.6562,-4.481,-4.4703,-4.4633,-4.3731,-4.4301,-4.524,-4.6213,-4.7718,0.0,0.0,0.0,0.0,0.0,0.0,0.0,0.0,0.0,0.0,0.0,0.0,0.0,0.0,-5.9495,-5.9576,-6.0752,-6.0999,-6.1078,-6.1069,-6.0233,-5.9526,-5.8993,-5.8495,-5.7181,-5.5163,-5.6768,0.0,0.0,0.0,0.0,0.0,-5.3179,-5.2758,-5.2049,-5.2944,-5.328,-5.328,-5.328,-5.2909,-5.2471,0.0,0.0,0.0,0.0,0.0,0.0,0.0,-3.7957,-3.8248,-3.7499,-3.8033,-3.8857,-3.9719,-3.8352,-3.7992,-3.9494,-3.8241,0.0,0.0,0.0,0.0,0.0,0.0,-4.0916,-4.1981,-4.3206,-4.3648,-4.3276,-4.404,-4.4247,-4.3891,-4.3499,-4.3106,-4.2689,-4.1446,-4.1117,-4.1516,-4.1969,-4.2136,-4.2115,-4.1648,-4.199,0.0,0.0,0.0,0.0,0.0,0.0,0.0,0.0,0.0,0.0,0.0,0.0,0.0,0.0,0.0,0.0,0.0,-4.6266,-4.949,-5.0287,-4.9399,-4.831,-4.8182,-4.6521,0.0,-4.3935,-4.5643,-4.6581,-4.4267,-4.5755,-4.6562,-4.4178,0.0,0.0,0.0,0.0,0.0,0.0,0.0,0.0,0.0,0.0,0.0,0.0,0.0,0.0,0.0,-5.8789,-5.9079,-5.9809,-5.9246,-5.9311,-6.017,-5.9377,-5.8686,-5.8096,-5.818,-5.7023,-5.4957,-5.6549,0.0,0.0,0.0,0.0,0.0,-5.3257,-5.3007,-5.3144,-5.2972,-5.2903,-5.2903,-5.2903,-5.2868,-5.2834,0.0,0.0,0.0,0.0,0.0,0.0,0.0,0.0,0.0,0.0,-3.7553,-3.7804,-3.813,-3.8155,-3.8133,0.0,0.0,0.0,0.0,0.0,0.0,0.0,-4.0071,-4.1144,-4.1981,-4.3427,-4.4136,-4.4035,-4.3663,-4.4025,-4.4992,-4.3178,-4.2614,-4.3034,-4.1546,-4.1117,-4.1494,-4.1604,-4.167,-4.1626,-4.1209,-4.1351,0.0,0.0,0.0,0.0,-4.1198,-4.1415,0.0,0.0,0.0,0.0,0.0,0.0,0.0,0.0,-3.6121,-3.6924,-3.7893,0.0,-4.2617,-4.3349,-4.4182,-4.4793,0.0,-4.476,-4.5092,-4.6176,-4.6801,-4.715,-4.7168,-4.8517,-4.8953,0.0,0.0,0.0,0.0,0.0,0.0,0.0,0.0,0.0,0.0,0.0,0.0,0.0,0.0,0.0,0.0,-5.752,-5.7557,-5.8283,-5.7614,-5.8159,-6.0033,-5.8755,-5.7491,-5.6247,-5.6835,-5.5658,-5.3114,-5.5821,0.0,0.0,0.0,0.0,-5.2979,-5.2952,-5.2938,-5.2972,-5.2903,-5.2903,-5.2903,-5.2903,-5.2799,-5.2659,0.0,0.0,0.0,0.0,0.0,0.0,0.0,0.0,0.0,0.0,-3.7222,-3.7241,-3.7317,-3.7574,-3.7764,0.0,0.0,0.0,0.0,0.0,0.0,-3.919,-4.0296,-4.1429,-4.2534,-4.3362,-4.3793,-4.3793,-4.3471,-4.3844,-4.4872,-4.3343,-4.2825,-4.312,-4.1585,-4.1209,-4.1719,-4.1371,-4.1423,-4.1679,-4.111,0.0,0.0,0.0,0.0,0.0,-4.0311,-4.0311,0.0,-4.1142,-4.1225,-4.0714,0.0,0.0,0.0,0.0,-3.5827,-3.6292,-3.7213,-3.8994,-4.0972,-4.2474,-4.3231,-4.3876,-4.4963,-4.4688,-4.4762,-4.6783,-4.715,-4.7166,-4.7432,-4.8254,0.0,0.0,0.0,0.0,0.0,0.0,0.0,0.0,0.0,0.0,0.0,0.0,0.0,0.0,0.0,0.0,0.0,-5.6912,-5.7046,-5.7777,-5.7067,-5.7463,-5.8994,-5.787,-5.654,-5.5118,-5.6195,-5.5521,-5.3434,-5.5435,-5.5269,0.0,0.0,0.0,-5.2539,-5.1924,-5.211,-5.2764,-5.2711,-5.2676,-5.2676,-5.2676,-5.2605,-5.2499,0.0,0.0,0.0,0.0,0.0,0.0,0.0,0.0,0.0,0.0,0.0,0.0,0.0,0.0,0.0,0.0,0.0,0.0,0.0,0.0,-4.0055,-4.0043,-4.0705,-4.174,-4.3172,-4.3189,-4.3258,-4.3362,-4.3366,-4.3694,-4.4294,-4.366,-4.3244,-4.2965,-4.1654,-4.136,-4.1809,-4.117,-4.1274,-4.1792,-4.1153,0.0,0.0,0.0,0.0,0.0,0.0,0.0,0.0,-3.9733,-3.9697,-3.8901,-3.8088,0.0,0.0,0.0,0.0,0.0,-3.8172,-4.0003,-4.1924,-4.4207,-4.417,-4.4172,-4.6397,-4.5185,-4.4356,-4.7095,-4.7587,-4.7507,0.0,-4.8002,0.0,0.0,0.0,0.0,0.0,0.0,0.0,0.0,0.0,0.0,0.0,0.0,0.0,0.0,0.0,0.0,0.0,-5.668,-5.7008,-5.7594,-5.7046,-5.7008,-5.7648,-5.7008,-5.5951,-5.4506,-5.6001,-5.5918,-5.4506,-5.5251,-5.5185,0.0,0.0,0.0,-5.247,-5.1118,-5.1333,-5.257,-5.2445,-5.2409,-5.2409,-5.2409,-5.2409,-5.2409,0.0,0.0,0.0,0.0,0.0,0.0,0.0,0.0,0.0,0.0,0.0,0.0,0.0,0.0,0.0,0.0,0.0,0.0,0.0,-4.0377,-4.1015,-4.1636,-4.1774,-4.2275,-4.3172,-4.3189,-4.35,-4.4138,-4.3525,-4.3611,-4.4276,-4.3577,-4.2869,-4.2189,-4.1947,-4.155,-4.1067,-4.0963,-4.0981,-4.1067,-4.0946,0.0,0.0,0.0,0.0,0.0,0.0,0.0,0.0,-3.8771,-3.8473,-3.7721,-3.6898,0.0,0.0,0.0,0.0,0.0,-3.8251,-4.0377,-4.2542,-4.4286,-4.4102,-4.3955,-4.5681,-4.4763,-4.4782,0.0,0.0,0.0,0.0,-5.3344,-5.304,0.0,0.0,0.0,0.0,0.0,0.0,0.0,0.0,0.0,0.0,0.0,0.0,0.0,0.0,0.0,0.0,-5.668,-5.6757,-5.6872,-5.6757,-5.6757,-5.6872,-5.6757,-5.5951,-5.4506,-5.6001,-5.5918,-5.4506,-5.5251,-5.5185,0.0,0.0,-5.2821,-5.2428,-5.2177,-5.221,-5.2445,-5.2409,-5.2409,-5.2409,-5.2409,-5.2409,-5.2409,0.0,0.0,0.0,0.0,0.0,0.0,0.0,0.0,0.0,0.0,0.0,0.0,0.0,0.0,0.0,0.0,0.0,0.0,-4.1221,-4.2254,-4.2614,-4.2123,-4.2455,-4.2827,-4.3189,-4.3189,-4.318,-4.316,-4.3254,-4.3304,-4.3266,-4.2846,-4.2652,-4.262,-4.1792,-4.1447,-4.1481,-4.1067,-4.1136,-4.1464,0.0,0.0,0.0,0.0,0.0,0.0,0.0,0.0,0.0,0.0,-3.6908,-3.6413,-3.5172,0.0,0.0,0.0,0.0,0.0,-3.7067,-3.912,-4.1483,-4.4628,-4.4765,-4.5039,-4.8416,-4.6232,-4.493,-4.9982,0.0,0.0,0.0,0.0,0.0,0.0,0.0,0.0,0.0,0.0,0.0,0.0,0.0,0.0,0.0,0.0,0.0,0.0,0.0,0.0,0.0,0.0,-5.668,-5.668,-5.668,-5.668,-5.668,-5.668,-5.5951,-5.4506,-5.6001,-5.5918,-5.449,-5.4837,-5.4804,-5.4374,0.0,-5.1943,-5.2359,-5.1529,-5.1678,-5.2409,-5.2409,-5.2409,-5.2409,-5.2409,-5.2409,-5.2409,0.0,0.0,0.0,0.0,0.0,0.0,0.0,0.0,0.0,0.0,0.0,0.0,0.0,0.0,0.0,0.0,0.0,-4.1626,-4.2293,-4.3523,-4.3605,-4.2206,-4.3145,-4.3638,-4.3465,-4.293,-4.2686,-4.2739,-4.318,-4.3315,-4.3145,-4.2874,-4.2891,-4.3138,-4.1774,-4.1395,-4.1723,-4.1153,-4.124,-4.1688,0.0,0.0,0.0,0.0,0.0,0.0,0.0,0.0,0.0,0.0,0.0,0.0,0.0,0.0,0.0,-3.354,-3.3613,-3.404,-3.6004,-3.7735,-3.9968,-4.4114,-4.4732,-4.5627,-5.0659,-4.7381,-4.4837,-5.0333,0.0,0.0,0.0,0.0,0.0,0.0,0.0,0.0,0.0,0.0,0.0,0.0,0.0,0.0,0.0,0.0,0.0,0.0,0.0,0.0,0.0,0.0,-5.668,-5.668,-5.668,-5.668,-5.668,-5.668,-5.6117,-5.504,-5.615,-5.6017,-5.4738,-5.4556,-5.4427,-5.4129,-5.1744,-5.1347,-5.2291,-5.1181,-5.138,-5.2409,-5.2409,-5.2409,-5.2409,-5.2409,-5.2409,-5.2409,0.0,0.0,0.0,0.0,0.0,0.0,0.0,0.0,0.0,0.0,0.0,0.0,0.0,0.0,0.0,0.0,-4.1295,-4.1493,-4.2168,-4.294,-4.2978,-4.205,-4.4096,-4.4923,-4.4242,-4.2154,-4.2141,-4.4324,-4.37,-4.4081,-4.5355,-4.4645,-4.3919,-4.3155,-4.2309,-4.1585,-4.0981,-4.0929,-4.0929,-4.0912,-4.0095,0.0,0.0,0.0,0.0,0.0,0.0,0.0,0.0,0.0,0.0,0.0,0.0,0.0,-3.2388,-3.2423,-3.3155,-3.4311,-3.5968,-3.7059,-3.8527,-4.1827,-4.2894,-4.4539,-5.001,-4.6798,-4.4473,-5.0887,0.0,0.0,0.0,0.0,0.0,0.0,0.0,0.0,0.0,0.0,0.0,0.0,0.0,0.0,0.0,0.0,0.0,0.0,0.0,0.0,0.0,0.0,0.0,-5.668,-5.668,-5.668,-5.668,-5.668,-5.663,-5.6531,-5.663,-5.6282,-5.5483,-5.4787,-5.4146,-5.345,-5.2589,-5.231,-5.2373,-5.231,-5.231,-5.2409,-5.2409,-5.2409,-5.2409,-5.2409,-5.2409,-5.2409,0.0,0.0,0.0,0.0,0.0,0.0,0.0,0.0,0.0,0.0,0.0,0.0,0.0,0.0,0.0,0.0,-4.2096,-4.2149,-4.2304,-4.2978,-4.2975,-4.2165,-4.2869,-4.3388,-4.3603,-4.374,-4.4108,-4.4615,-4.3931,-4.4105,-4.5014,-4.369,-4.2604,-4.1757,-4.1447,-4.0894,-4.0204,-4.0687,-4.0912,-4.0825,-4.0008,-3.925,0.0,0.0,0.0,0.0,0.0,0.0,0.0,0.0,-3.4014,-3.3524,-3.2869,-3.267,-3.2573,-3.2123,-3.2282,-3.2879,-3.4038,-3.5453,-3.751,-4.1315,-4.192,-4.3054,-4.8721,-4.6789,-4.5463,-5.1497,-4.9676,0.0,0.0,0.0,0.0,0.0,0.0,0.0,0.0,0.0,0.0,0.0,0.0,0.0,0.0,0.0,0.0,0.0,0.0,0.0,0.0,0.0,0.0,-5.668,-5.668,-5.668,-5.668,-5.6249,-5.6034,-5.6034,-5.6034,-5.5885,-5.5549,-5.4341,-5.3682,-5.3367,-5.2672,-5.2409,-5.2409,-5.2409,-5.2409,-5.2409,-5.2409,-5.2409,-5.2409,-5.2409,-5.2409,-5.2409,0.0,0.0,0.0,0.0,0.0,0.0,0.0,0.0,0.0,0.0,0.0,0.0,0.0,0.0,0.0,0.0,-4.2258,-4.2212,-4.2027,-4.2686,-4.2701,-4.1843,-4.2161,-4.2516,-4.281,-4.4413,-4.4956,-4.4292,-4.4101,-4.4223,-4.463,-4.3464,-4.2466,-4.1619,-4.136,-4.0922,-4.0422,-4.0498,-4.0532,-4.0446,-3.9405,-3.8698,0.0,0.0,0.0,0.0,0.0,0.0,0.0,0.0,-3.3412,-3.3214,-3.2403,-3.2334,-3.2455,-3.1955,-3.1992,-3.234,-3.2951,-3.443,-3.6681,-4.0238,-4.0603,-4.1697,-4.7742,-4.6772,-4.6047,-5.1279,-5.0583,-4.8652,-4.7352,0.0,0.0,0.0,0.0,0.0,0.0,0.0,0.0,0.0,0.0,0.0,0.0,0.0,0.0,0.0,0.0,0.0,0.0,0.0,0.0,0.0,-5.6001,-5.6001,-5.6001,-5.5521,-5.5234,-5.5234,-5.5003,-5.4887,-5.4854,-5.3881,-5.3284,-5.3069,-5.2589,-5.2409,-5.2409,-5.2409,-5.2409,-5.2409,-5.2409,-5.2409,-5.2409,-5.2409,-5.2409,-5.2409,0.0,0.0,0.0,0.0,0.0,0.0,0.0,0.0,-4.1604,-4.1604,-4.1604,0.0,0.0,0.0,0.0,0.0,-4.1515,-4.1475,-4.1232,-4.1957,-4.1927,-4.0946,-4.2361,-4.2792,-4.2016,-4.3608,-4.4116,-4.3412,-4.4265,-4.4588,-4.4462,-4.4462,-4.3988,-4.312,-4.2361,-4.2016,-4.1854,-4.0353,-3.9715,-3.956,-3.8099,-3.7512,-3.7426,0.0,0.0,0.0,0.0,0.0,0.0,0.0,-3.3095,-3.1955,-3.2679,-3.2421,-3.1834,-3.1852,-3.2444,-3.3126,-3.3124,-3.427,-3.5969,-3.8252,-3.8829,-4.0591,-4.7262,-4.6663,-4.5922,-5.0154,-5.3328,-5.4657,-5.232,0.0,0.0,0.0,0.0,0.0,0.0,0.0,0.0,0.0,0.0,0.0,0.0,0.0,0.0,0.0,0.0,0.0,0.0,0.0,0.0,0.0,-5.449,-5.449,-5.449,-5.4473,-5.451,-5.4456,-5.3765,-5.34,-5.3417,-5.34,-5.3036,-5.2409,-5.2409,-5.2409,-5.2409,-5.2409,-5.2409,-5.2409,-5.2409,-5.2409,-5.2409,-5.2409,-5.2409,-5.2409,0.0,0.0,0.0,0.0,0.0,0.0,0.0,0.0,-4.1604,-4.1604,-4.1604,0.0,0.0,0.0,0.0,0.0,0.0,0.0,-4.1209,-4.1377,-4.1342,-4.1047,-4.1391,-4.1481,-4.124,-4.1719,-4.2473,-4.3534,-4.3138,-4.2378,-4.129,-4.2286,-4.1747,-4.0083,-4.2534,-4.2056,-3.9483,-4.0765,-4.0294,-3.8643,-3.7843,-3.7823,-3.8112,0.0,0.0,0.0,0.0,0.0,0.0,0.0,0.0,0.0,-3.3835,-3.4014,-3.454,-3.5531,-3.4881,-3.4317,-3.6419,-3.6662,-3.6974,-3.973,0.0,0.0,0.0,-4.6526,0.0,0.0,-5.2356,-5.2096,-4.98,0.0,0.0,0.0,0.0,0.0,0.0,0.0,0.0,0.0,0.0,0.0,0.0,0.0,0.0,0.0,0.0,0.0,0.0,0.0,0.0,0.0,-5.449,-5.449,-5.449,-5.3997,-5.3748,-5.3732,-5.3019,-5.2937,-5.34,-5.2904,-5.2572,-5.2409,-5.2409,-5.2409,-5.2409,-5.2409,-5.2409,-5.2409,-5.2409,-5.2409,-5.2409,-5.2409,-5.2409,-5.2409,0.0,0.0,0.0,0.0,0.0,0.0,0.0,0.0,-4.1604,-4.1604,-4.1604,-4.1582,0.0,0.0,0.0,0.0,0.0,0.0,-4.1175,-4.1123,-4.1087,-4.1023,-4.0935,-4.105,-4.1343,-4.0756,-4.0948,-4.2048,-4.1804,-4.1047,-3.9853,-4.1219,-4.1106,-3.9896,-4.2397,-4.2014,-3.9545,-4.0715,-4.0178,-3.8482,-3.7855,-3.806,-3.8608,0.0,0.0,0.0,0.0,0.0,0.0,0.0,0.0,0.0,-3.4251,-3.5085,-3.6284,-3.6533,-3.6316,-3.6482,-3.8545,-3.8547,0.0,-4.2809,-4.3888,-4.4515,-4.6611,0.0,0.0,0.0,0.0,-5.1947,0.0,0.0,0.0,0.0,0.0,0.0,0.0,0.0,0.0,0.0,0.0,0.0,0.0,0.0,0.0,0.0,0.0,0.0,0.0,0.0,0.0,0.0,-5.3775,-5.3738,-5.3665,-5.3218,-5.3003,-5.3003,-5.2572,-5.2605,-5.2986,-5.2572,-5.2409,-5.2409,-5.2409,-5.2409,-5.2409,-5.2409,-5.2409,-5.2409,-5.2409,-5.2409,-5.2409,-5.2409,-5.2409,-5.2409,0.0,0.0,-4.1604,-4.1604,0.0,0.0,0.0,0.0,-4.1604,-4.1604,-4.1582,-4.1538,0.0,0.0,0.0,0.0,0.0,0.0,-4.114,-4.1117,-4.1053,-4.0918,-4.0963,-4.136,-4.2102,-4.0595,-3.9767,-3.9698,-4.0308,-4.0164,-3.9399,-4.0744,-4.1391,-4.1366,-4.207,-4.1897,-4.1018,-4.0383,-3.9606,-3.8744,-3.8067,-3.827,-3.887,-3.8319,0.0,0.0,0.0,0.0,0.0,0.0,0.0,0.0,-3.4303,-3.5683,-3.7081,-3.5942,-3.7128,-3.9015,-3.9945,-4.01,-4.1215,-4.6256,-4.6213,0.0,-4.9861,-4.9832,-5.0044,-5.3739,0.0,0.0,0.0,0.0,0.0,0.0,0.0,0.0,0.0,0.0,0.0,0.0,0.0,0.0,0.0,0.0,0.0,0.0,0.0,0.0,0.0,0.0,0.0,-5.2605,-5.2589,-5.2535,-5.2409,-5.2409,-5.2409,0.0,-5.2409,-5.2409,-5.2409,-5.2409,-5.2409,-5.2409,-5.2409,-5.2409,-5.2409,-5.2409,-5.2409,-5.2409,-5.2409,-5.2409,-5.2409,-5.2409,-5.2409,-5.2409,0.0,0.0,-4.1604,-4.1604,0.0,0.0,0.0,0.0,0.0,-4.1604,-4.1515,0.0,0.0,0.0,0.0,0.0,0.0,0.0,-4.1335,-4.1226,-4.118,-4.114,-4.1542,-4.2137,-4.2913,-4.1429,-4.0319,-3.9698,-3.872,-3.7752,-3.6833,-3.8835,-3.9664,-3.9587,-4.2129,-4.2047,-4.0059,-4.079,-3.9884,-3.7947,-3.797,-3.8414,-3.8924,-3.7786,-3.749,0.0,0.0,0.0,0.0,0.0,0.0,0.0,-3.5818,-3.5828,-3.6236,-3.8168,-3.877,-3.9339,-4.1805,-4.1711,0.0,0.0,-4.5515,-4.7814,-5.2542,-5.2368,-5.1833,0.0,0.0,0.0,0.0,0.0,0.0,0.0,0.0,0.0,0.0,0.0,0.0,0.0,0.0,0.0,0.0,0.0,0.0,0.0,0.0,0.0,0.0,0.0,0.0,-5.2589,-5.2589,-5.2535,-5.2409,-5.2409,-5.2409,0.0,-5.2409,-5.2409,-5.2409,-5.2409,-5.2409,-5.2409,-5.2409,-5.2409,-5.2409,-5.2409,-5.2409,-5.2409,-5.2409,-5.2409,-5.2409,-5.2409,-5.2409,-5.2409,0.0,0.0,0.0,0.0,0.0,0.0,0.0,0.0,0.0,0.0,0.0,0.0,0.0,0.0,0.0,0.0,-4.1318,-4.1272,-4.1261,-4.1129,-4.0891,-4.0487,-4.0752,-4.0946,-4.0998,-3.9859,-3.9187,-3.898,-3.7847,-3.7048,-3.6556,-3.8177,-3.9235,-3.9833,-4.1695,-4.1575,-4.0087,-4.0738,-4.0085,-3.8581,-3.8764,-3.9008,-3.9202,-3.8268,-3.7672,-3.7276,-3.6728,0.0,0.0,0.0,0.0,0.0,0.0,0.0,-3.7076,-3.7858,-3.8363,-3.9116,-4.1086,0.0,0.0,-4.5953,0.0,-5.0902,-5.2802,-5.2914,0.0,0.0,0.0,0.0,0.0,0.0,0.0,0.0,0.0,0.0,0.0,0.0,0.0,0.0,0.0,0.0,0.0,0.0,0.0,0.0,0.0,0.0,0.0,-5.3348,-5.3195,-5.2903,-5.2799,-5.2659,-5.2516,-5.2445,-5.2409,-5.2409,-5.2409,-5.2409,-5.2409,-5.2409,-5.2409,-5.2409,-5.2409,-5.221,-5.1912,-5.2224,-5.221,-5.1879,-5.1879,-5.1879,-5.1879,-5.1879,-5.1879,-5.1928,0.0,0.0,0.0,0.0,0.0,0.0,0.0,0.0,0.0,0.0,0.0,0.0,0.0,0.0,-4.1312,0.0,0.0,0.0,-4.1093,-4.1,-4.0694,-4.0152,-4.0118,-3.9894,-3.9433,-3.8486,-3.8213,-3.8606,-3.7643,-3.7404,-3.7925,-3.8706,-3.975,-4.1032,-4.1427,-4.116,-4.0393,-4.044,-4.0011,-3.9328,-3.9441,-3.9349,-3.9061,-3.8564,-3.7549,-3.642,-3.6544,-3.6299,-3.5949,-3.6129,0.0,0.0,0.0,0.0,-3.7922,-3.6525,-3.7284,-3.8755,-3.9467,0.0,-4.4673,-4.9048,-5.1679,0.0,-5.2364,-5.2675,0.0,0.0,0.0,0.0,0.0,0.0,0.0,0.0,0.0,0.0,0.0,0.0,0.0,0.0,0.0,0.0,0.0,0.0,0.0,0.0,0.0,0.0,-5.3501,-5.3501,-5.3416,-5.3213,-5.3041,-5.2868,-5.2659,-5.2535,-5.248,-5.248,-5.2445,-5.2409,-5.2409,-5.2409,-5.2307,-5.2227,-5.2227,-5.1812,-5.1148,-5.1761,-5.1645,-5.1098,-5.1098,-5.1098,-5.1149,-5.1265,-5.1232,-5.1249,0.0,0.0,0.0,0.0,0.0,0.0,0.0,0.0,0.0,0.0,-4.1232,-4.1232,0.0,-4.1152,-4.114,-4.1117,-4.1117,-4.1117,-4.1093,0.0,0.0,-4.1825,-4.1754,-4.1988,-4.2656,-4.0985,-4.0124,-4.0202,-3.8306,-3.8673,-4.1178,-4.1281,-4.1677,-4.2265,-4.2336,-4.164,-4.0359,-3.9981,-3.9332,-3.8561,-3.8689,-3.8279,-3.7528,-3.6941,-3.658,-3.6336,-3.5897,-3.5707,-3.5791,-3.6666,-3.696,0.0,0.0,0.0,0.0,-3.5576,-3.6887,-3.8634,-3.8738,0.0,-4.6039,0.0,-4.9884,-5.0489,0.0,0.0,0.0,0.0,0.0,0.0,0.0,0.0,0.0,0.0,0.0,0.0,0.0,0.0,0.0,0.0,0.0,0.0,0.0,0.0,0.0,0.0,0.0,0.0,-5.3501,-5.3501,-5.3416,-5.3213,-5.3179,-5.3041,-5.2868,-5.2834,-5.2834,-5.2834,-5.2676,-5.2499,-5.2409,-5.2409,-5.2061,-5.1464,-5.1464,-5.1015,-5.0353,-5.0469,-5.0452,-5.0353,-5.0353,-5.0353,-5.0419,-5.1048,-5.0883,-5.0551,0.0,0.0,0.0,0.0,0.0,0.0,0.0,0.0,0.0,0.0,0.0,-4.1277,-4.1209,-4.158,-4.1835,-4.1835,-4.1764,-4.152,-4.1017,-4.1,-4.0931,-4.0786,-4.0722,-4.0617,-4.0459,-3.9641,-3.9265,-3.9378,-3.8447,-4.0081,-4.4055,-4.4055,-4.3975,-4.3866,-4.4636,-4.3555,-4.1161,-4.1437,-4.0334,-3.847,-3.9152,-3.8866,-3.8003,-3.7809,-3.7692,-3.7475,-3.6326,-3.6041,-3.6156,-3.6101,-3.6181,-3.6298,-3.6559,0.0,0.0,0.0,-3.6197,-3.7762,-3.9735,-4.2016,-4.4819,0.0,-4.9049,-4.9033,0.0,0.0,0.0,0.0,0.0,0.0,0.0,0.0,0.0,0.0,0.0,0.0,0.0,0.0,0.0,0.0,0.0,0.0,0.0,0.0,0.0,0.0,0.0,-5.3501,-5.3501,-5.3501,-5.3467,-5.3382,-5.3264,-5.3144,-5.3076,-5.2938,-5.2834,-5.2729,-5.2624,-5.2319,-5.1796,-5.1796,-5.163,-5.1315,-5.1315,-5.0634,-4.9624,-5.0038,-4.9972,-4.9591,-4.9591,-4.9591,-4.9674,-5.0402,-5.022,-4.9856,0.0,0.0,0.0,0.0,0.0,0.0,0.0,0.0,0.0,0.0,0.0,-4.1453,-4.1319,0.0,0.0,0.0,-4.2058,-4.165,-4.0803,-4.0776,-4.0517,-3.9886,-3.9828,-3.9476,-3.8764,-3.8635,-3.8667,-3.8849,-3.8773,-4.1138,-4.5657,-4.5777,-4.5922,-4.6127,-4.6686,-4.5391,-4.277,-4.3141,-4.1721,-3.9311,-4.0195,-3.964,-3.8305,-3.8631,-3.8531,-3.8095,-3.7152,-3.6815,-3.6733,0.0,-3.6276,-3.6445,0.0,0.0,0.0,0.0,0.0,0.0,0.0,0.0,-4.2916,-4.768,-4.7603,-4.7272,0.0,0.0,0.0,0.0,0.0,0.0,0.0,0.0,0.0,0.0,0.0,0.0,0.0,0.0,0.0,0.0,0.0,0.0,0.0,0.0,0.0,0.0,0.0,-5.3501,-5.3501,-5.3501,-5.3501,-5.3501,-5.3332,-5.3264,-5.3264,-5.2925,-5.2653,-5.2462,-5.2227,-5.1756,-5.1052,-5.1052,-5.0952,-5.0804,-5.0804,-5.0056,-4.8929,-4.9442,-4.9393,-4.8945,-4.8862,-4.8862,-4.8945,-4.9657,-4.9458,-4.911,0.0,0.0,0.0,0.0,0.0,0.0,0.0,0.0,0.0,0.0,0.0,-4.1719,-4.1594,-4.2245,-4.2347,-4.152,-4.1452,-4.1146,-4.0381,-4.0461,-4.0444,-4.0286,-4.0145,0.0,-4.0186,-3.9817,-3.968,-3.9833,-3.9566,-4.1432,-4.5226,-4.576,-4.7193,-4.9289,-4.776,-4.6535,-4.5514,-4.4469,-4.3075,-4.1549,-4.1732,-4.0027,-3.7453,-3.8288,-3.8012,-3.7285,-3.8146,-3.7953,0.0,0.0,0.0,0.0,0.0,0.0,0.0,0.0,0.0,0.0,0.0,-3.9905,0.0,-4.4638,0.0,0.0,0.0,0.0,0.0,0.0,0.0,0.0,0.0,0.0,0.0,0.0,0.0,0.0,0.0,0.0,0.0,0.0,0.0,0.0,0.0,0.0,0.0,0.0,0.0,-5.3501,-5.3501,-5.3501,-5.3501,-5.3501,-5.3501,-5.3467,-5.3467,-5.2706,-5.2252,-5.2118,-5.1229,-5.066,-5.0442,-5.0442,-5.0076,-4.941,-4.941,-4.8944,-4.8262,-4.8295,-4.8375,-4.8519,-4.8181,-4.8148,-4.8312,-4.8912,-4.8696,-4.8266,0.0,0.0,0.0,0.0,0.0,0.0,0.0,0.0,0.0,0.0,0.0,0.0,0.0,-4.2706,-4.2655,-4.2253,-4.1733,-4.1087,-4.0356,-4.0337,-4.0313,-4.0188,-4.0138,-4.0037,-3.991,-3.9858,-3.9772,-3.9642,-3.9642,-4.1046,-4.3801,-4.4461,-4.5982,-4.8202,-4.9793,-4.833,-4.4823,-4.6658,-4.4453,-4.0,-4.332,-4.2317,-3.9023,-4.0756,-4.1498,-4.1382,0.0,0.0,0.0,0.0,0.0,0.0,0.0,0.0,0.0,0.0,0.0,0.0,0.0,0.0,0.0,-4.2697,0.0,0.0,0.0,0.0,0.0,0.0,0.0,0.0,0.0,0.0,0.0,0.0,0.0,0.0,0.0,0.0,0.0,0.0,0.0,0.0,0.0,0.0,0.0,0.0,0.0,0.0,-5.3416,-5.1674,-5.1268,-5.2689,-5.2739,-5.2739,-5.2739,-5.1978,-5.1525,-5.1378,-5.1043,-5.0558,-4.9892,-4.9892,-4.9474,-4.8804,-4.8917,-4.8766,-4.8388,-4.8388,-4.8452,-4.8483,-4.8373,-4.8356,-4.8488,-4.9175,-4.8942,-4.8607,0.0,0.0,0.0,-4.1262,0.0,-4.1946,-4.1861,-4.2338,-4.2697,-4.2697,0.0,0.0,0.0,0.0,-4.2764,-4.2192,-4.1393,-4.0739,-4.0214,-4.0213,-4.0163,-3.9969,-3.9986,-3.9867,-3.9703,-3.9781,-3.9772,-3.9616,-3.972,-4.0805,-4.2797,-4.3462,-4.4825,-4.6759,-4.9227,-4.8778,-4.6369,-4.8677,-4.6793,-4.2412,-4.5126,-4.4457,-4.1922,-4.3009,-4.3349,0.0,0.0,0.0,0.0,0.0,0.0,0.0,0.0,0.0,0.0,0.0,0.0,0.0,-3.7104,0.0,0.0,0.0,0.0,0.0,0.0,0.0,0.0,0.0,0.0,0.0,0.0,0.0,0.0,0.0,0.0,0.0,0.0,0.0,0.0,0.0,0.0,0.0,0.0,0.0,0.0,0.0,0.0,0.0,-5.3416,-5.1336,-5.0676,-5.1894,-5.1944,-5.1944,-5.1944,-5.12,-5.0781,-5.0684,-5.0384,-4.9949,-4.9333,-4.9333,-4.9065,-4.8627,-4.8801,-4.8769,-4.8595,-4.8595,-4.8627,-4.8642,-4.8547,-4.8547,-4.8646,-4.9068,-4.8902,-4.8733,-4.2732,-4.268,-4.2602,-4.2339,-4.2303,-4.232,-4.232,-4.2337,-4.2354,-4.2354,0.0,0.0,0.0,0.0,0.0,-4.112,-4.0467,-4.0054,-3.9901,-4.0011,-3.9986,-3.9703,-3.9703,-3.9703,-3.9703,-3.9703,-3.9755,-3.9901,-3.9901,-4.0702,-4.2252,-4.285,-4.3895,-4.529,-4.5885,-4.7656,-5.0225,-5.0308,-4.9859,-4.891,-4.712,-4.6188,-4.5779,-4.4825,0.0,0.0,-4.589,-4.4953,0.0,-4.51,0.0,0.0,0.0,0.0,0.0,0.0,0.0,0.0,0.0,0.0,0.0,0.0,0.0,0.0,0.0,0.0,0.0,0.0,0.0,0.0,0.0,0.0,0.0,0.0,0.0,0.0,0.0,0.0,0.0,0.0,0.0,0.0,0.0,0.0,0.0,0.0,0.0,-5.3399,-5.3467,-5.2706,-5.1944,-5.12,-5.1134,-5.1134,-5.1183,-5.0439,-5.005,-5.005,-4.92,-4.8818,-4.8818,-4.8818,-4.8818,-4.8801,-4.894,-4.8925,-4.8818,-4.8818,-4.8894,-4.897,-4.8642,-4.8627,-4.8769,-4.8595,-4.8532,-4.8549,-4.2419,-4.2392,-4.2392,-4.2313,-4.2743,-4.3115,-4.3115,-4.3589,-4.3972,0.0,0.0,0.0,-4.3443,-4.281,-4.2048,-4.121,-4.0897,-4.0508,-3.9934,-3.9935,-3.9884,-3.9703,-3.9703,-3.9703,-3.9703,-3.9798,-3.9875,-3.9901,-3.9986,-4.0265,-4.0722,-4.1422,-4.197,-4.2426,-4.4096,-4.5198,-4.6015,-4.851,-4.7235,-4.3849,-4.8743,-4.766,0.0,0.0,0.0,0.0,0.0,-4.6495,-4.5749,0.0,-4.515,-4.2456,0.0,0.0,0.0,0.0,0.0,0.0,-3.5932,0.0,0.0,0.0,0.0,0.0,0.0,-3.8918,0.0,0.0,0.0,0.0,0.0,0.0,0.0,0.0,0.0,0.0,0.0,0.0,0.0,0.0,0.0,0.0,0.0,0.0,0.0,0.0,-5.1231,-5.0996,-5.2752,-5.1993,-5.1183,-5.0422,-4.9898,-4.9864,-5.0388,-4.9678,-4.9306,-4.9306,-4.9072,-4.894,-4.894,-4.894,-4.894,-4.8956,-4.897,-4.897,-4.894,-4.894,-4.8987,-4.9001,-4.8909,-4.8909,-4.8956,-4.8877,-4.9215,-4.9654,-4.3278,-4.3278,-4.3278,-4.3278,-4.3606,-4.391,-4.391,-4.4282,-4.4496,0.0,0.0,0.0,-4.2608,-4.2291,-4.1801,-4.0832,-4.0679,-4.0442,-4.002,-3.9986,-3.9935,-3.9884,-3.9884,-3.9884,-3.9884,-3.9935,-3.9986,-3.9986,-4.0062,-4.0096,-4.0113,-4.0527,-4.073,-4.0798,-4.1957,-4.2438,-4.2512,-4.534,-4.5784,-4.4917,-4.8393,0.0,0.0,-4.8495,-4.7933,0.0,0.0,0.0,-4.7683,-4.8994,-4.711,0.0,0.0,0.0,0.0,0.0,0.0,0.0,0.0,0.0,0.0,0.0,0.0,0.0,-3.6491,-3.7922,0.0,0.0,0.0,0.0,0.0,0.0,0.0,0.0,0.0,0.0,0.0,0.0,0.0,0.0,0.0,0.0,0.0,0.0,0.0,-5.2465,-5.118,-5.0708,-5.1498,-5.1061,-5.0405,-4.9661,-4.9221,-4.9204,-4.9644,-4.9221,-4.9001,-4.9001,-4.9001,-4.9001,-4.9001,-4.9001,-4.9001,-4.9001,-4.9001,-4.9001,-4.9001,-4.9001,-4.9001,-4.9001,-4.9001,-4.9001,-4.9001,-4.9001,-4.9272,-4.9644,0.0,-4.4615,-4.4615,-4.4615,-4.4615,-4.4615,-4.4615,-4.453,-4.4231,0.0,-4.3443,-4.2919,-4.1711,-4.1999,-4.1762,-4.0468,-4.0282,-4.0197,-4.0113,-4.0096,-4.0096,-4.0096,-4.0096,-4.0096,-4.0096,-4.0096,-4.0096,-4.0096,-4.0096,-4.0096,-4.0096,-4.0096,-4.0096,-4.0096,-3.9961,-3.9901,-3.9993,-4.1643,-4.481,-4.8526,-4.7089,-4.8791,0.0,0.0,-4.8978,-4.8415,-5.1365,-5.0601,-4.863,-5.1199,-4.9493,0.0,0.0,0.0,0.0,0.0,-3.8178,0.0,0.0,0.0,0.0,0.0,0.0,0.0,-3.6541,-3.7672,-3.8849,0.0,0.0,0.0,0.0,0.0,0.0,0.0,0.0,0.0,0.0,0.0,0.0,0.0,0.0,0.0,0.0,-5.1674,-5.2046,-5.2096,-5.2096,-5.1486,-5.005,-5.005,-4.9763,-4.9018,-4.9001,-4.9001,-4.9001,-4.9001,-4.9001,-4.9001,-4.9001,-4.9001,-4.9001,-4.9001,-4.9001,-4.9001,-4.9001,-4.9001,-4.9001,-4.9001,-4.9001,-4.9001,-4.9001,-4.9001,-4.9001,-4.9001,-4.9052,-4.912,-4.4479,-4.4615,-4.4615,-4.4615,-4.4615,-4.4615,-4.4615,-4.4045,-4.3809,-4.4282,-4.3809,-4.3555,-4.3904,-4.2973,-4.2168,-4.1907,-4.1322,-4.073,-4.0146,-4.0096,-4.0096,-4.0096,-4.0096,-4.0096,-4.0096,-4.0096,-4.0096,-4.0096,-4.0096,-4.0096,-4.0096,-4.0096,-4.0096,-4.0096,-3.9961,-3.9849,-3.9763,-4.0129,0.0,-4.4343,-4.7334,0.0,-4.9636,-5.1206,-5.0273,-4.8529,-5.1383,-5.1264,-4.9773,-4.9959,-4.919,-4.7553,0.0,0.0,0.0,0.0,0.0,0.0,0.0,0.0,0.0,0.0,0.0,0.0,-3.4342,-3.4257,-3.5043,0.0,0.0,0.0,0.0,0.0,0.0,0.0,0.0,0.0,0.0,0.0,0.0,0.0,0.0,0.0,0.0,-5.0439,-5.0604,-5.0747,-5.0779,-5.0326,-4.9255,-4.9779,-4.9763,-4.9018,-4.9001,-4.9001,-4.9001,-4.9001,-4.9001,-4.9001,-4.9001,-4.9001,-4.9001,-4.9001,-4.9001,-4.9001,-4.9001,-4.9001,-4.9001,-4.9001,-4.9001,-4.9001,-4.9001,-4.9001,-4.9001,-4.9001,-4.9373,-4.9796,-4.3859,-4.3995,-4.413,-4.453,-4.4615,-4.4615,-4.4615,-4.3927,-4.3527,-4.3944,-4.3335,-4.2861,-4.2895,-4.2202,-4.1593,-4.1247,-4.0849,-4.0476,-4.013,-4.0096,-4.0096,-4.0096,-4.0096,-4.0282,-4.0629,-4.0299,-4.0282,-4.0646,-4.0282,-4.0096,-4.0096,-4.0096,-4.0299,-4.0612,-3.9682,-3.942,-3.9627,-3.8779,-3.9677,-4.2044,-4.5986,0.0,-4.9272,-5.1536,-5.1533,-5.0472,-5.1879,-5.191,-5.11,-4.9809,-4.9159,0.0,0.0,-4.4399,-4.229,0.0,-3.953,-3.8744,0.0,0.0,0.0,-3.7817,0.0,0.0,0.0,-3.5262,-3.5577,0.0,0.0,0.0,0.0,0.0,0.0,0.0,0.0,0.0,0.0,0.0,0.0,0.0,0.0,0.0,0.0,-5.0084,-5.0132,-5.0243,-4.9904,-4.95,-4.9018,-4.9357,-4.9373,-4.9018,-4.9001,-4.9001,-4.9001,-4.9001,-4.9001,-4.9001,-4.9001,-4.9001,-4.9001,-4.9001,-4.9001,-4.9001,-4.9001,-4.9001,-4.9001,-4.9001,-4.9001,-4.9035,-4.9407,-4.926,-4.8928,-4.9316,-4.9403,-4.9255,-4.3031,-4.3291,-4.3572,-4.409,-4.4412,-4.4513,-4.4209,-4.3606,-4.3122,-4.2987,-4.2709,-4.2405,-4.21,-4.1677,-4.1407,-4.1399,-4.0993,-4.0688,-4.0536,-4.0671,-4.0553,-4.013,-4.0096,-4.0383,-4.0984,-4.0417,-4.0375,-4.0984,-4.0375,-4.0096,-4.0096,-3.996,-4.0273,-4.0933,-3.9496,-3.9402,-4.0247,-3.8966,0.0,-4.1888,0.0,-4.7313,-4.8627,-5.1368,-5.2061,-5.1647,-5.221,-5.248,-5.2221,-4.9943,0.0,-4.8893,-4.8994,-4.6589,0.0,0.0,0.0,0.0,0.0,0.0,0.0,0.0,0.0,-3.6827,0.0,0.0,0.0,0.0,0.0,0.0,0.0,0.0,0.0,0.0,0.0,0.0,0.0,0.0,0.0,0.0,0.0,0.0,0.0,-4.9371,-4.976,-4.9895,-4.9489,-4.9154,-4.9018,-4.9001,-4.9001,-4.9001,-4.9001,-4.9001,-4.9001,-4.9001,-4.9001,-4.9001,-4.9001,-4.9001,-4.9001,-4.9001,-4.9001,-4.9001,-4.9001,-4.9001,-4.9001,-4.9001,-4.897,-4.9007,-4.963,-4.9417,-4.8885,-4.9428,-4.9147,-4.8515,-4.2151,-4.2963,-4.3234,-4.2658,-4.3701,-4.4141,-4.276,-4.2472,-4.2185,-4.1542,-4.2523,-4.3747,-4.506,-4.3386,-4.3217,-4.5805,-4.4198,-4.276,-4.2083,-4.2658,-4.2151,-4.0197,-4.0096,-4.0146,-4.0231,-4.0146,-4.0146,-4.0231,-4.0146,-4.0096,-4.0096,-3.9411,-3.9512,-4.0206,-3.9885,-4.0822,-4.2646,0.0,-4.3942,0.0,-4.7801,-4.7052,0.0,-5.0406,-5.0767,-4.8879,-5.1604,-5.2799,-5.2673,0.0,-4.845,-4.7815,0.0,-4.4491,-4.2588,0.0,0.0,0.0,0.0,0.0,0.0,0.0,-3.9783,0.0,0.0,0.0,0.0,0.0,0.0,0.0,0.0,0.0,0.0,0.0,0.0,0.0,0.0,0.0,0.0,0.0,0.0,0.0,0.0,0.0,-4.8457,-4.9236,-4.9738,-4.9678,-4.9035,-4.9001,-4.9001,-4.9001,-4.9001,-4.9001,-4.9001,-4.9001,-4.9001,-4.9001,-4.9001,-4.9001,-4.9001,-4.9001,-4.9001,-4.9001,-4.9001,-4.9001,-4.9001,-4.9001,-4.8925,-4.8818,-4.8916,-4.8885,-4.8786,-4.8679,-4.8582,-4.8515,-4.1457,-4.1914,-4.2168,-4.2269,-4.2855,-4.3058,-4.2388,-4.2658,-4.2523,-4.1356,-4.2117,-4.3352,-4.4874,-4.3792,-4.3978,-4.6566,0.0,-4.5246,0.0,0.0,-4.2997,-4.2066,-4.0764,-4.0316,-4.073,-4.0333,-4.0113,-4.0104,-3.9665,-3.9469,-3.9445,-3.914,-3.9614,-4.0713,-4.0163,0.0,-4.3166,0.0,-4.3419,0.0,0.0,0.0,0.0,-4.9693,-5.0907,-4.9659,-5.056,-5.153,-5.1883,0.0,-4.894,0.0,0.0,0.0,0.0,0.0,0.0,0.0,0.0,0.0,0.0,0.0,0.0,0.0,0.0,0.0,-3.7347,0.0,0.0,0.0,0.0,0.0,0.0,0.0,0.0,0.0,0.0,0.0,0.0,0.0,0.0,0.0,0.0,0.0,0.0,0.0,0.0,-4.7454,-4.7107,-4.8308,-4.9001,-4.9001,-4.9001,-4.9001,-4.9001,-4.9001,-4.9001,-4.9001,-4.9001,-4.9001,-4.9001,-4.9001,-4.894,-4.8894,-4.8894,-4.8894,-4.8863,-4.8753,-4.8753,-4.8786,-4.8532,-4.8436,-4.8487,-4.8889,-4.8675,-4.8212,-4.0747,-4.1068,-4.1305,-4.1627,-4.2016,-4.2219,-4.2016,-4.2811,-4.3003,-4.1948,-4.2455,-4.3572,-4.5314,-4.4248,0.0,0.0,-4.7631,-4.7479,0.0,0.0,-4.4333,0.0,0.0,0.0,0.0,-4.0663,-4.0113,-4.0104,-3.9563,-3.9317,-3.9317,-3.9089,-3.9681,-4.0882,-4.0407,-4.1593,-4.3895,0.0,-4.4432,-4.5915,-4.7106,-4.6422,-4.51,-4.8676,-5.0343,-5.0709,-5.0091,-5.0659,-5.1127,-4.7723,-4.8637,0.0,-4.7727,0.0,0.0,0.0,0.0,0.0,-4.3081,0.0,0.0,0.0,0.0,0.0,0.0,0.0,0.0,0.0,0.0,0.0,0.0,0.0,0.0,0.0,0.0,0.0,0.0,0.0,0.0,0.0,0.0,0.0,0.0,0.0,0.0,0.0,0.0,0.0,-4.572,-4.78,-4.9001,-4.9001,-4.9001,-4.9001,-4.9001,-4.9001,-4.9001,-4.9001,-4.9001,-4.9001,-4.9001,-4.894,-4.8894,-4.8818,-4.8818,-4.8919,-4.9072,-4.8711,-4.8744,-4.8961,-4.8407,-4.8163,-4.8213,-4.8795,-4.8596,-4.8001,-3.9994,-4.0696,-4.0984,-4.0299,-4.1365,-4.2049,-4.1339,-4.2489,-4.3375,-4.3325,0.0,0.0,0.0,0.0,0.0,0.0,0.0,-4.9221,-4.9932,0.0,-4.6684,0.0,0.0,-4.1102,0.0,0.0,-4.0096,-4.0096,-4.0079,-4.0062,-4.0045,-3.9326,-3.9419,-4.0163,-4.071,-4.2648,-4.5645,-4.7485,-4.9216,-5.074,-5.1363,-5.0809,-4.9345,0.0,-4.8249,-5.0941,-5.076,0.0,0.0,-4.78,-4.6887,0.0,0.0,0.0,0.0,0.0,0.0,0.0,0.0,0.0,0.0,-4.3995,0.0,0.0,0.0,0.0,-3.9825,0.0,0.0,0.0,0.0,0.0,0.0,0.0,0.0,0.0,0.0,0.0,0.0,0.0,0.0,0.0,0.0,0.0,0.0,0.0,0.0,0.0,-4.5754,-4.78,-4.9001,-4.9001,-4.9001,-4.9001,-4.9001,-4.9001,-4.9001,-4.9001,-4.9001,-4.9001,-4.9001,-4.8863,-4.8801,-4.8818,-4.8818,-4.919,-4.9813,-4.9089,-4.9095,-4.9488,-4.8575,-4.8115,-4.8001,-4.8034,-4.8017,-4.8001,-3.9747,-3.9714,-3.9902,-4.0071,-4.0519,-4.0773,-4.0493,-4.1305,-4.2365,0.0,0.0,0.0,0.0,-4.9937,-5.0655,0.0,0.0,-5.3653,-5.2435,-5.0693,0.0,0.0,0.0,-4.4181,0.0,0.0,0.0,-3.9385,-3.9385,-3.9385,-3.9385,-3.9106,-3.9402,-4.013,-4.0814,-4.2554,0.0,0.0,0.0,0.0,0.0,-4.9544,-4.9246,0.0,0.0,-4.9767,-5.0289,-5.0347,0.0,-4.8115,-4.8341,-4.9159,-4.7943,-4.7192,-4.7124,-4.8849,-4.7259,0.0,0.0,0.0,-4.6853,-4.7056,0.0,0.0,0.0,0.0,0.0,0.0,0.0,0.0,0.0,0.0,0.0,0.0,0.0,0.0,0.0,0.0,0.0,0.0,0.0,0.0,0.0,0.0,0.0,0.0,0.0,0.0,0.0,-4.4676,-4.6684,-4.6684,-4.8179,-4.9001,-4.9001,-4.9001,-4.9001,-4.9001,-4.9001,-4.894,-4.8863,-4.8801,-4.8644,-4.8405,-4.8405,-4.8538,-4.8755,-4.8425,-4.8426,-4.8642,-4.8214,-4.8033,-4.8001,-4.8001,-4.8001,-4.8001,-3.956,-3.9206,-3.9312,-3.9722,-4.0008,-4.0361,-4.0829,0.0,0.0,0.0,-4.6468,0.0,-5.1891,0.0,-5.3131,0.0,-5.5045,-5.4992,-5.4511,-5.1562,0.0,-5.1444,-4.823,0.0,0.0,0.0,0.0,0.0,0.0,-4.0054,-4.0544,-3.9749,-3.9495,-3.9757,-4.0747,-4.2194,-4.402,0.0,-4.7763,0.0,0.0,-4.8234,0.0,0.0,-4.901,-4.9236,0.0,-4.9396,-4.8988,-4.8241,-4.8766,-4.9557,-4.8469,-4.8107,-4.8324,-4.9393,-4.8206,-4.6853,-4.8308,-4.8528,0.0,-4.8578,-4.7175,0.0,-4.6312,0.0,0.0,0.0,0.0,0.0,0.0,0.0,0.0,0.0,0.0,0.0,0.0,-3.2835,0.0,0.0,0.0,0.0,0.0,0.0,0.0,-3.6263,-3.7789,0.0,0.0,0.0,-4.5542,-4.5513,-4.7791,-4.9001,-4.9001,-4.9001,-4.8987,-4.8925,-4.8925,-4.8863,-4.8707,-4.8612,-4.8436,-4.8195,-4.8195,-4.8345,-4.8578,-4.8231,-4.8297,-4.8578,-4.8166,-4.8001,-4.8001,-4.8001,-4.8001,-4.8001,-3.945,-3.9152,-3.9152,0.0,-3.9857,0.0,0.0,0.0,-4.6776,0.0,-5.0017,-5.0925,-5.3155,-5.2838,-5.3132,-5.4868,-5.3515,0.0,-5.5893,-5.0811,0.0,0.0,-4.8889,-4.6951,-4.8795,0.0,0.0,0.0,0.0,-4.198,-4.3242,-4.1093,-3.9723,-3.9056,-4.051,0.0,-4.2685,-4.5643,-4.7272,-4.7817,-4.6744,-4.7161,-4.8364,-4.7107,-4.7852,-4.9472,-4.8559,-4.8195,-4.8195,-4.8195,-4.8115,-4.8033,-4.8388,-4.8483,-4.8547,-4.8877,-4.9461,-5.0002,-5.0002,-5.0526,-5.0576,-4.8514,0.0,0.0,0.0,0.0,-4.6566,0.0,0.0,0.0,0.0,0.0,0.0,0.0,0.0,0.0,0.0,0.0,0.0,0.0,0.0,0.0,0.0,0.0,-3.7075,-3.481,-3.6769,-3.8275,0.0,0.0,-4.5409,-4.5467,-4.7575,-4.8785,-4.897,-4.8872,-4.8779,-4.8738,-4.8738,-4.8627,-4.8403,-4.8211,-4.813,-4.813,-4.8098,-4.8529,-4.921,-4.8462,-4.8611,-4.9243,-4.8348,-4.8001,-4.8001,-4.8001,-4.8001,-4.8001,-3.8991,-3.86,-3.86,0.0,-4.0393,-4.1968,0.0,0.0,0.0,0.0,-5.0225,-5.2044,-5.4317,-5.6303,-5.6922,-5.5563,-5.553,0.0,0.0,0.0,0.0,-5.3242,-5.2082,-5.0314,-4.7921,-4.7853,0.0,-4.3816,0.0,0.0,-4.1953,-4.0685,-3.9723,-3.9039,0.0,0.0,-4.1379,-4.4118,-4.6293,-4.7817,-4.6744,-4.7161,0.0,0.0,-4.7815,-4.9161,-4.8735,-4.8356,-4.8082,-4.8324,-4.813,-4.7853,-4.8163,-4.8212,-4.8164,-4.8212,-4.8377,-4.8527,-4.8527,-4.8854,-4.9181,-4.9181,-4.7922,-4.6807,0.0,0.0,0.0,0.0,0.0,0.0,0.0,0.0,0.0,0.0,0.0,0.0,0.0,0.0,0.0,0.0,0.0,0.0,0.0,0.0,-3.5004,-3.3964,-3.536,-3.7009,0.0,0.0,0.0,-4.5173,-4.4795,-4.5866,-4.8593,-4.7017,-4.6697,-4.7704,-4.7704,-4.7622,-4.7455,-4.7422,-4.7321,-4.7135,-4.6569,-4.6786,-4.743,-4.7251,-4.762,-4.8331,-4.81,-4.8001,-4.8001,-4.8001,-4.8001,-4.8001,-3.8376,-3.8216,0.0,-3.8379,0.0,0.0,-4.3506,0.0,0.0,-5.0241,-5.1496,0.0,-5.485,-5.6381,-5.6847,-5.5717,-5.4389,0.0,-5.3922,0.0,0.0,-5.2545,-5.2296,-5.0826,-4.7981,-4.818,0.0,-4.5652,0.0,0.0,-4.3106,-4.0061,-3.8493,-3.8186,0.0,-3.9269,0.0,-4.2964,-4.545,-4.715,-4.638,0.0,0.0,-4.6904,-4.7338,-4.8597,-4.8442,-4.8163,-4.7886,-4.8098,-4.7902,-4.7654,-4.8017,-4.8049,-4.8033,-4.8179,-4.8445,-4.8628,-4.8295,-4.8525,-4.8872,-4.9086,-4.8119,-4.7383,-4.8308,-4.776,-4.6892,0.0,0.0,0.0,0.0,0.0,0.0,0.0,0.0,0.0,0.0,0.0,0.0,0.0,0.0,0.0,0.0,0.0,-3.418,-3.3432,-3.4119,0.0,0.0,0.0,0.0,-4.2278,-4.3397,-4.4691,-4.6153,-4.4607,-4.4653,-4.6241,-4.6307,-4.6383,-4.6515,-4.6828,-4.6708,-4.6288,-4.5877,-4.5949,-4.6324,-4.6324,-4.6585,-4.7032,-4.7337,-4.722,-4.6846,-4.722,-4.7621,-4.8001,-3.7798,0.0,0.0,0.0,0.0,0.0,0.0,-4.7477,0.0,-5.2812,0.0,-5.3518,-5.4672,-5.4963,-5.5151,-5.5287,0.0,-5.1377,-5.4041,-5.0065,-4.8901,-5.1859,-5.1142,-4.9987,-4.8484,-4.7964,0.0,0.0,0.0,-4.2318,-4.4561,-3.925,-3.6766,-3.6778,0.0,0.0,0.0,-4.2171,-4.4613,0.0,-4.5757,-4.6387,-4.7358,-4.6174,-4.6519,-4.7621,-4.7621,-4.7655,-4.7737,-4.7737,-4.7654,-4.7571,-4.7869,-4.7935,-4.8001,-4.826,-4.8807,-4.9191,-4.8523,-4.8742,-4.901,-4.8538,-4.8292,-4.8361,-4.9043,-4.8511,-4.7879,-4.7807,-4.8171,-4.797,0.0,0.0,0.0,0.0,0.0,0.0,0.0,0.0,0.0,0.0,0.0,0.0,0.0,0.0,0.0,0.0,0.0,0.0,0.0,0.0,0.0,-3.9026,-4.2377,0.0,-4.3395,0.0,-4.2889,-4.4979,-4.4787,-4.4998,-4.5551,-4.6218,-4.6147,-4.5551,-4.5442,-4.5442,-4.5551,-4.5551,-4.5588,-4.5717,-4.6308,-4.6028,-4.5342,-4.6028,-4.6931,-4.782,0.0,0.0,0.0,0.0,0.0,-4.3992,-4.6708,-4.9036,-5.0929,-5.224,-5.3218,-5.3676,-5.3302,-5.5565,-5.6041,-5.3359,-5.3402,0.0,0.0,0.0,0.0,-5.1272,-5.1514,-5.0558,-4.8129,-4.8775,-4.8289,0.0,-4.3794,-4.2097,-4.1361,-3.807,-3.5999,0.0,0.0,0.0,-4.1189,-4.2109,0.0,-4.4902,-4.4849,-4.4853,-4.4966,-4.5267,-4.5432,-4.553,-4.553,-4.6571,-4.7968,-4.7968,-4.782,-4.7688,-4.7737,-4.7688,-4.7604,-4.7671,-4.7753,-4.7835,-4.7704,-4.7952,-4.8215,-4.8115,-4.8066,-4.8148,-4.8555,-4.767,-4.6856,-4.7097,-4.659,-4.6163,-4.637,0.0,0.0,0.0,0.0,0.0,0.0,0.0,0.0,0.0,0.0,0.0,0.0,0.0,0.0,0.0,0.0,0.0,0.0,0.0,0.0,0.0,-3.958,0.0,0.0,0.0,-4.2116,-4.5359,-4.3614,-4.3464,-4.4699,-4.4834,-4.4834,-4.4662,-4.4004,-4.4105,-4.4699,-4.4699,-4.4968,-4.5379,-4.5311,-4.5222,-4.5075,-4.5222,-4.5905,-4.6777,0.0,0.0,0.0,0.0,0.0,0.0,0.0,-4.896,0.0,-5.169,-5.2672,-5.294,-5.2053,-5.2899,-5.304,-5.1911,-5.1282,-5.108,-5.1273,-5.0413,-5.0045,-5.0371,-5.0603,0.0,-4.7433,-4.7852,-4.7872,-4.7414,-4.2989,-4.1298,-4.2096,-3.6859,-3.4376,-3.4311,0.0,-3.8104,0.0,0.0,0.0,-4.4094,-4.4732,-4.4908,-4.483,-4.5055,-4.5075,-4.5001,-4.5001,-4.5622,-4.6537,-4.7033,-4.7521,-4.7853,-4.7853,-4.7521,-4.7218,-4.7637,-4.7471,-4.7218,-4.7637,-4.7803,-4.7853,-4.7968,-4.7638,-4.7286,-4.7288,-4.6555,-4.571,-4.5185,-4.5112,-4.4914,-4.4199,-4.2712,0.0,0.0,0.0,0.0,0.0,0.0,0.0,0.0,0.0,0.0,0.0,0.0,0.0,0.0,0.0,0.0,0.0,0.0,0.0,0.0,0.0,0.0,0.0,0.0,0.0,-4.3526,-4.2646,-4.2779,-4.3756,-4.4243,-4.4259,-4.3849,-4.3488,-4.3472,-4.3717,-4.36,-4.3741,-4.3982,-4.4297,-4.4106,-4.3696,-4.4075,-4.4531,-4.5017,0.0,-3.9805,0.0,0.0,-4.3652,0.0,-4.7216,-4.902,-5.0623,-5.1686,-5.2267,-5.223,-5.1311,-5.0976,-5.0713,-5.0424,-4.9565,-4.9265,-4.9948,-4.9105,-4.8805,-4.9282,-4.9635,-4.8935,-4.7071,-4.7073,-4.7361,0.0,-4.2743,-4.1079,0.0,-3.6542,0.0,0.0,0.0,0.0,0.0,0.0,-4.2763,-4.3479,-4.4443,-4.475,-4.4675,-4.4493,-4.4418,-4.438,-4.438,-4.4531,-4.4816,-4.5582,-4.6553,-4.7421,-4.7421,-4.705,-4.6673,-4.732,-4.7152,-4.6931,-4.7555,-4.7737,-4.7737,-4.7704,-4.7134,-4.6461,-4.6044,-4.54,-4.4622,-4.357,-4.3789,-4.3845,-4.2613,-4.1893,0.0,0.0,0.0,0.0,0.0,0.0,0.0,0.0,0.0,0.0,0.0,0.0,0.0,0.0,0.0,-3.1094,-3.2191,-3.3132,0.0,0.0,0.0,-3.8886,-3.9753,0.0,-3.9926,0.0,-4.1994,-4.2304,-4.3021,-4.3873,-4.3888,-4.325,-4.325,-4.3115,-4.2915,-4.2729,-4.2622,-4.2688,-4.3284,-4.3021,-4.2392,-4.2991,-4.3343,-4.3587,0.0,0.0,0.0,0.0,0.0,0.0,0.0,-5.0637,-5.1331,-5.2703,-5.2694,-5.229,-5.1558,-5.328,-5.276,-4.8463,-5.1087,-5.1091,-4.6675,-4.9359,-5.0216,-4.8065,-4.9326,-4.9314,-4.7756,-4.7852,-4.7393,0.0,0.0,-4.2602,0.0,0.0,0.0,0.0,0.0,0.0,0.0,-4.1945,-4.2605,-4.308,-4.316,-4.2981,-4.2648,-4.2648,-4.2541,-4.2351,-4.2351,-4.2926,-4.3665,-4.3743,-4.4569,-4.5561,-4.5561,-4.5665,-4.5805,-4.5877,-4.634,-4.6828,-4.6896,-4.7438,-4.7737,-4.6846,-4.6553,-4.6256,-4.5348,-4.4365,-4.3626,-4.3524,-4.2886,-4.2791,-4.4313,-4.3004,-4.1445,0.0,0.0,0.0,0.0,0.0,0.0,0.0,0.0,0.0,0.0,0.0,0.0,0.0,0.0,-3.0807,-3.332,-3.1983,-3.2573,-3.5743,0.0,-3.655,-3.8899,-3.873,-4.0277,-4.3475,-4.1755,-4.1655,-4.3036,-4.329,-4.3275,-4.3036,-4.3036,-4.2915,-4.2729,-4.25,-4.2433,-4.2433,-4.2325,-4.2201,-4.2133,-4.2201,-4.278,-4.3382,0.0,0.0,0.0,0.0,0.0,0.0,0.0,-5.0148,-5.09,-5.1589,-5.2337,-5.2608,-5.2066,-5.2565,-5.2126,-5.021,-5.1033,-5.0832,-4.8779,-5.0052,-5.0458,-4.9483,-4.9988,-4.9681,-4.8263,-4.828,-4.8145,0.0,0.0,0.0,0.0,0.0,0.0,0.0,0.0,-4.074,-4.1383,-4.2311,-4.2845,-4.2996,-4.2729,-4.2541,-4.2392,-4.2284,-4.2175,-4.2092,-4.2092,-4.2351,-4.2673,-4.282,-4.3928,-4.5306,-4.5306,-4.5153,-4.5058,-4.5551,-4.5463,-4.5337,-4.5794,-4.6064,-4.6083,-4.571,-4.5253,-4.4787,-4.4228,-4.3898,-4.3515,-4.282,-4.2351,-4.2315,-4.3079,-4.2831,-4.2169,0.0,0.0,0.0,0.0,0.0,0.0,0.0,0.0,0.0,0.0,0.0,0.0,0.0,0.0,0.0,-3.1294,-3.1796,-3.3403,-3.6369,0.0,-3.8082,-4.0915,-4.0134,-4.0754,-4.2731,-4.2078,-4.2081,-4.2662,-4.285,-4.289,-4.2795,-4.2688,-4.2581,-4.25,-4.2325,-4.2201,-4.2201,-4.2133,-4.2092,-4.2092,-4.2092,-4.2351,-4.2592,-4.6993,0.0,-4.7224,0.0,-4.8177,-4.9269,-4.8877,-5.0043,-5.0905,-5.0679,-5.2182,-5.2966,-5.2008,-5.1932,-5.1547,-5.0696,-5.0707,-5.0368,-4.941,-5.0073,-5.0324,-4.994,-5.0103,0.0,-4.854,-4.838,-4.8298,-4.8287,-4.4844,0.0,0.0,0.0,0.0,0.0,-4.1308,-4.1816,-4.1936,-4.2609,-4.2875,-4.2809,-4.25,-4.2351,-4.2284,-4.2133,-4.2092,-4.2092,-4.2092,-4.2092,-4.2133,-4.231,-4.3349,-4.454,-4.4615,-4.4403,-4.4259,-4.4759,-4.4586,-4.4282,-4.4765,-4.4943,-4.4927,-4.4629,-4.4167,-4.3672,-4.3215,-4.323,-4.314,-4.2284,-4.2092,-4.2092,-4.2092,-4.244,-4.2237,-4.0771,0.0,0.0,0.0,0.0,0.0,0.0,0.0,-3.4922,-3.5938,0.0,0.0,0.0,0.0,0.0,0.0,-3.1655,0.0,0.0,0.0,0.0,0.0,-4.0178,-4.0596,-4.2092,-4.2325,-4.2392,-4.2392,-4.2541,-4.2622,-4.2622,-4.2392,-4.2325,-4.2325,-4.2175,-4.2092,-4.2092,-4.2092,-4.2092,-4.2092,-4.2092,-4.2092,-4.2092,-4.9842,-5.0534,-5.1139,-5.1107,-5.1169,-5.075,-4.9464,-5.093,-5.1723,-5.0375,-5.2546,-5.3331,-5.1045,-5.2066,-5.1721,-4.887,-5.0294,-5.0029,-4.6845,-4.9041,-4.9926,0.0,0.0,-4.9189,-4.8525,-4.8103,-4.7511,-4.6653,0.0,0.0,-4.3991,0.0,-4.3554,-4.2455,-4.4173,-4.4184,-4.2966,-4.2795,-4.2581,-4.2392,-4.2392,-4.2284,-4.2092,-4.2092,-4.2092,-4.2092,-4.2092,-4.2092,-4.2133,-4.231,-4.2541,-4.2769,-4.2955,-4.3155,-4.329,-4.3076,-4.3615,-4.4182,-4.3959,-4.4449,-4.4778,-4.3782,-4.3524,-4.3264,-4.2351,-4.2133,-4.2133,-4.2092,-4.2092,-4.2092,-4.2092,-4.2107,-4.1482,-3.9538,0.0,0.0,0.0,0.0,0.0,0.0,-3.4095,-3.3296,-3.5218,0.0,0.0,0.0,0.0,0.0,0.0,0.0,0.0,-3.4356,-3.3224,0.0,-3.7331,-3.7941,-3.9523,-4.2092,-4.2325,-4.2392,-4.2392,-4.2392,-4.2392,-4.2392,-4.2216,-4.2092,-4.2092,-4.2092,-4.2092,-4.2092,-4.2092,-4.2092,-4.2092,-4.2092,-4.2092,-4.2092,-4.8298,-4.9807,-5.093,-5.0047,-5.0616,-5.1229,-5.1259,-5.1798,-5.2052,-5.1633,-5.2306,-5.2378,-5.1193,-5.2282,-5.257,0.0,-5.077,-5.0322,0.0,-5.01,-5.0339,-5.0353,-4.9698,-4.8834,-4.7732,-4.7538,-4.6925,-4.5722,0.0,0.0,0.0,-4.4485,-4.4586,-4.505,-4.4519,-4.408,-4.3623,-4.2813,-4.2474,-4.2392,-4.2242,-4.2175,-4.2092,-4.2092,-4.2092,-4.2092,-4.2092,-4.2092,-4.2133,-4.231,-4.2433,-4.2541,-4.2729,-4.2915,-4.3076,-4.2835,-4.289,-4.297,-4.2875,-4.2941,-4.2941,-4.2633,-4.2566,-4.2459,-4.2175,-4.2092,-4.2092,-4.2092,-4.2092,-4.2092,-4.2092,-4.2092,-4.1744,-4.067,-4.1221,0.0,0.0,0.0,0.0,0.0,-3.7128,-3.6395,0.0,-3.611,0.0,0.0,0.0,0.0,0.0,0.0,0.0,0.0,-3.768,0.0,-4.0554,-3.9857,-4.0365,-4.2092,-4.2175,-4.2216,-4.2216,-4.2216,-4.2216,-4.2216,-4.2133,-4.2092,-4.2092,-4.2092,-4.2092,-4.2092,-4.2092,-4.2092,-4.2092,-4.2092,-4.2092,-4.2092,-4.894,-5.0092,-5.096,-5.0137,-5.0676,-5.1199,-5.1109,-5.1723,-5.1932,-5.1199,-5.1962,-5.2217,-5.1319,-5.2172,0.0,-5.1887,-5.1079,-5.0734,-5.1184,-5.0794,-5.0629,-5.084,-4.9838,-4.8805,-4.7698,0.0,0.0,-4.6052,-4.6052,-4.6052,-4.6037,-4.5633,-4.5753,-4.6249,-4.5188,-4.4424,-4.3853,-4.3084,-4.2585,-4.2284,-4.2133,-4.2092,-4.2092,-4.2092,-4.2092,-4.2092,-4.2092,-4.2092,-4.2133,-4.231,-4.2392,-4.2433,-4.2541,-4.2648,-4.2769,-4.2607,-4.2514,-4.2392,-4.2325,-4.2216,-4.2092,-4.2092,-4.2092,-4.2092,-4.2092,-4.2092,-4.2092,-4.2092,-4.2092,-4.2092,-4.2092,-4.2092,-4.1961,-4.1541,-4.1816,-4.1947,-4.1526,0.0,0.0,0.0,0.0,0.0,0.0,-3.819,0.0,0.0,0.0,0.0,0.0,0.0,0.0,-3.8434,-3.8855,0.0,-4.1323,-4.0525,-4.0771,-4.2092,-4.2092,-4.2092,-4.2092,-4.2092,-4.2092,-4.2092,-4.2092,-4.2092,-4.2092,-4.2092,-4.2092,-4.2092,-4.2092,-4.2092,-4.2092,-4.2092,-4.2092,-4.2092,-5.0975,-5.1094,0.0,0.0,-5.1154,0.0,-4.9704,-5.102,-5.1543,-4.9763,-5.1603,-5.2636,-5.1349,-5.1768,-5.1887,-5.1274,0.0,0.0,0.0,-5.1184,-5.0823,-5.0226,-4.9568,-4.8865,-4.8162,-4.7549,-4.7249,-4.7309,-4.7309,-4.7309,-4.7266,-4.7266,-4.6937,-4.6311,-4.6066,-4.5126,-4.3735,-4.3483,-4.2867,-4.2092,-4.2092,-4.2092,-4.2092,-4.2092,-4.2092,-4.2092,-4.2092,-4.2092,-4.2133,-4.2325,-4.2392,-4.2392,-4.2392,-4.2392,-4.2392,-4.2392,-4.2392,-4.2366,-4.2133,-4.2092,-4.2092,-4.2092,-4.2092,-4.2092,-4.2092,-4.2092,-4.2092,-4.2092,-4.2092,-4.2092,-4.2092,-4.2092,-4.2092,-4.2092,-4.2092,-4.2063,-4.1976,0.0,0.0,0.0,0.0,0.0,0.0,-3.9349,-3.9581,0.0,0.0,0.0,0.0,0.0,-3.5024,-3.7564,-3.7636,-3.8478,-4.022,-4.0234,-4.0858,-4.2092,-4.2092,-4.2092,-4.2092,-4.2092,-4.2092,-4.2092,-4.2092,-4.2092,-4.2092,-4.2092,-4.2092,-4.2092,-4.2092,-4.2092,-4.2092,-4.2092,-4.2092,-4.2092,0.0,0.0,-5.09,-4.9898,-5.0556,-5.1289,-5.1483,-5.1902,-5.2037,-5.1558,-5.2037,-5.2127,-5.1304,-5.1349,-5.1394,-5.1229,-5.0719,-5.0629,-5.1184,-5.0704,-5.036,-5.0196,-4.9134,-4.7982,-4.6815,-4.6636,-4.68,-4.7309,-4.7309,-4.7207,-4.6975,-4.6975,-4.6813,-4.6519,-4.5784,-4.4993,-4.413,-4.3421,-4.2686,-4.2092,-4.2092,-4.2092,-4.2092,-4.2092,-4.2092,-4.2092,-4.2092,-4.2092,-4.2092,-4.2133,-4.2175,-4.2175,-4.2175,-4.2175,-4.2175,-4.2175,-4.2175,-4.2175,-4.2092,-4.2092,-4.2092,-4.2092,-4.2092,-4.2092,-4.2092,-4.2092,-4.2092,-4.2092,-4.2092,-4.2092,-4.2092,-4.2092,-4.2092,-4.2092,-4.2092,-4.1785,-4.0927,-4.0386,0.0,0.0,-3.9235,-3.963,-4.0067,-4.0895,-4.0858,0.0,0.0,0.0,0.0,-3.842,-3.8797,-4.0902,-4.096,-4.1178,-4.1613,-4.1628,-4.1787,-4.2092,-4.2092,-4.2092,-4.2092,-4.2092,-4.2092,-4.2092,-4.2092,-4.2092,-4.2092,-4.2092,-4.2092,-4.2092,-4.2092,-4.2092,-4.2092,-4.2092,-4.2092,-4.2092,-4.9239,-5.0242,-5.099,-5.0287,-5.075,-5.1334,-5.1693,-5.1753,-5.1753,-5.1753,-5.1753,-5.1618,-5.1259,-5.1214,-5.1214,-5.1214,-5.0885,-5.0794,-5.1199,-5.0554,-5.0061,-4.9808,-4.882,-4.7818,-4.68,-4.677,-4.695,-4.7309,-4.7309,-4.7207,-4.7062,-4.6975,-4.6844,-4.6697,-4.6138,-4.5317,-4.4279,-4.38,-4.3004,-4.2092,-4.2092,-4.2092,-4.2092,-4.2092,-4.2092,-4.2092,-4.2092,-4.2092,-4.2092,-4.2092,-4.2092,-4.2092,-4.2092,-4.2092,-4.2092,-4.2092,-4.2092,-4.2092,-4.2092,-4.2092,-4.2092,-4.2092,-4.2092,-4.2092,-4.2092,-4.2092,-4.2092,-4.2092,-4.2092,-4.2092,-4.2092,-4.2092,-4.2092,-4.2092,-4.1584,-4.0971,-4.0363,-3.9673,0.0,-3.937,-3.9799,-4.0375,-4.112,-4.1753,-4.1657,-4.0612,0.0,0.0,-4.0481,-3.9683,-4.0089,-4.2034,-4.2092,-4.2092,-4.2092,-4.2092,-4.2092,-4.2092,-4.2092,-4.2092,-4.2092,-4.2092,-4.2092,-4.2092,-4.2092,-4.2092,-4.2092,-4.2092,-4.2092,-4.2092,-4.2092,-4.2092,-4.2092,-4.2092,-4.2266,-4.2469,-5.1214,-5.1214,-5.1214,-5.1214,-5.1214,-5.1214,-5.1214,-5.1214,-5.1214,-5.1214,-5.1214,-5.1214,-5.1214,-5.1214,-5.1214,-5.1214,-5.1214,-5.1214,-5.1214,-5.0554,-4.9942,-4.9344,-4.8641,-4.7982,-4.7309,-4.7309,-4.7309,-4.7309,-4.7309,-4.7251,-4.7179,-4.6975,-4.6844,-4.6741,-4.6594,-4.5654,-4.4265,-4.4265,-4.3408,-4.2092,-4.2092,-4.2092,-4.2092,-4.2092,-4.2092,-4.2092,-4.2092,-4.2092,-4.2092,-4.2092,-4.2092,-4.2092,-4.2092,-4.2092,-4.2092,-4.2092,-4.2092,-4.2092,-4.2092,-4.2092,-4.215,-4.2339,-4.231,-4.2237,-4.2237,-4.231,-4.2353,-4.2252,-4.231,-4.2353,-4.2252,-4.2237,-4.2136,-4.1845,-4.0844,-4.0031,-3.9881,0.0,-3.8884,-4.0012,-4.0317,-4.0844,-4.199,-4.2092,-4.2092,-4.2092,-4.0568,-4.0365,-4.2005,-4.0539,-4.0394,-4.2049,-4.2092,-4.2092,-4.2092,-4.2092,-4.2092,-4.2092,-4.2092,-4.215,-4.2237,-4.2237,-4.2281,-4.2382,-4.2281,-4.2237,-4.2223,-4.2136,-4.2092,-4.2092,-4.2092,-4.215,-4.2237,-4.2237,-4.2615,-4.3065,-5.1214,-5.1214,-5.1214,-5.1214,-5.1214,-5.1214,-5.1214,-5.1214,-5.1214,-5.1214,-5.1214,-5.1214,-5.1214,-5.1214,-5.1214,-5.1214,-5.1214,-5.1214,-5.1214,-5.0554,-4.9942,-4.9344,-4.8641,-4.7982,-4.7309,-4.7309,-4.7309,-4.7309,-4.7309,-4.7077,-4.6727,-4.6683,-4.6462,-4.606,-4.6015,-4.5272,-4.4037,-4.4037,-4.3296,-4.2092,-4.2092,-4.2092,-4.2092,-4.2092,-4.2092,-4.2092,-4.2092,-4.2092,-4.2092,-4.2092,-4.2092,-4.2092,-4.2092,-4.2092,-4.2092,-4.2092,-4.2092,-4.2092,-4.2092,-4.2092,-4.2353,-4.3427,-4.3268,-4.2861,-4.2861,-4.3297,-4.3529,-4.2977,-4.3297,-4.3529,-4.2948,-4.2861,-4.231,-4.067,-4.0234,-3.9804,-3.8894,0.0,-3.9964,-4.0324,-4.1186,-4.186,-4.2078,-4.2092,-4.2092,-4.2092,-4.1816,-4.1773,-4.2078,-4.1802,-4.1787,-4.2092,-4.2092,-4.2092,-4.2092,-4.2092,-4.2092,-4.2092,-4.2092,-4.2368,-4.2861,-4.2861,-4.3166,-4.366,-4.3108,-4.2861,-4.2818,-4.231,-4.2092,-4.2092,-4.2092,-4.2411,-4.2861,-4.2861,-4.3268,-4.3819,-5.1214,-5.1214,-5.1214,-5.1214,-5.1214,-5.1214,-5.1214,-5.1214,-5.1214,-5.1214,-5.1214,-5.1214,-5.1214,-5.1214,-5.1214,-5.1214,-5.1214,-5.1214,-5.1214,-5.0554,-4.9942,-4.9344,-4.8641,-4.7982,-4.7309,-4.7309,-4.7309,-4.7309,-4.7164,-4.6975,-4.6756,-4.6491,-4.6269,-4.6046,-4.5925,-4.5184,-4.3993,-4.3993,-4.3253,-4.2092,-4.2092,-4.2092,-4.2092,-4.2092,-4.2092,-4.2136,-4.2469,-4.2382,-4.215,-4.2469,-4.2368,-4.2092,-4.2092,-4.2092,-4.2165,-4.2484,-4.2571,-4.2571,-4.2571,-4.2847,-4.3253,-4.3848,-4.3761,-4.3529,-4.3529,-4.3776,-4.3906,-4.3587,-4.3776,-4.379,-4.3108,-4.2992,-4.2586,-4.1381,-4.0568,0.0,0.0,-3.9765,-4.0143,-4.0222,-4.132,-4.2092,-4.2092,-4.2092,-4.2092,-4.2092,-4.2092,-4.2092,-4.2092,-4.2092,-4.2092,-4.2092,-4.2092,-4.2092,-4.2092,-4.2092,-4.2092,-4.2092,-4.2426,-4.2716,-4.3007,-4.3369,-4.35,-4.3427,-4.3123,-4.2818,-4.2484,-4.2208,-4.2092,-4.2121,-4.2455,-4.2745,-4.3036,-4.3398,-4.3921,-4.4429,-5.1214,-5.1214,-5.1214,-5.1214,-5.1214,-5.1214,-5.1214,-5.1214,-5.1214,-5.1214,-5.1214,-5.1214,-5.1214,-5.1214,-5.1214,-5.1214,-5.1214,-5.1214,-5.1214,-5.0704,-5.0182,-4.9523,-4.8716,-4.7982,-4.7309,-4.7309,-4.7309,-4.7309,-4.7019,-4.6887,-4.6844,-4.6388,-4.6165,-4.6135,-4.597,-4.5256,-4.4197,-4.4052,-4.334,-4.231,-4.231,-4.2223,-4.2107,-4.2252,-4.231,-4.2368,-4.2818,-4.2803,-4.2586,-4.289,-4.2789,-4.2513,-4.2353,-4.231,-4.2426,-4.305,-4.3326,-4.3427,-4.3427,-4.3703,-4.4066,-4.4356,-4.4313,-4.4197,-4.4197,-4.4313,-4.4385,-4.4226,-4.4327,-4.4226,-4.3558,-4.3311,-4.2919,-4.202,0.0,0.0,0.0,-4.0321,-4.0495,-4.0945,-4.1918,-4.2469,-4.2324,-4.244,-4.2469,-4.2324,-4.2455,-4.2542,-4.2542,-4.2542,-4.2542,-4.2542,-4.2252,-4.2165,-4.2295,-4.231,-4.231,-4.231,-4.2934,-4.3297,-4.3442,-4.3964,-4.3921,-4.3427,-4.3282,-4.2876,-4.2295,-4.215,-4.2092,-4.215,-4.276,-4.3094,-4.3297,-4.3964,-4.4589,-4.5053,-5.1214,-5.1214,-5.1214,-5.1214,-5.1214,-5.1214,-5.1214,-5.1214,-5.1214,-5.1214,-5.1214,-5.1214,-5.1214,-5.1214,-5.1214,-5.1214,-5.1214,-5.1214,-5.1214,-5.1169,-5.0808,-5.0151,-4.8955,-4.7982,-4.7309,-4.7309,-4.7309,-4.7309,-4.7019,-4.68,-4.6639,-4.6314,-4.609,-4.5925,-4.5925,-4.5488,-4.4792,-4.4226,-4.3587,-4.2919,-4.2919,-4.2586,-4.215,-4.2716,-4.2919,-4.2934,-4.2977,-4.3355,-4.3761,-4.3181,-4.3369,-4.3747,-4.3123,-4.2919,-4.305,-4.3718,-4.4313,-4.4748,-4.4748,-4.4371,-4.4269,-4.5459,-4.5271,-4.4821,-4.4821,-4.53,-4.5576,-4.4951,-4.5314,-4.5547,-4.4864,-4.4284,-4.3311,-4.1468,0.0,0.0,-4.0945,-4.1018,-4.1686,-4.3485,-4.379,-4.3616,-4.2992,-4.3485,-4.3587,-4.2977,-4.35,-4.3848,-4.3848,-4.3848,-4.3848,-4.3848,-4.2716,-4.2368,-4.2919,-4.2919,-4.2919,-4.2934,-4.3602,-4.4211,-4.4748,-4.4792,-4.4792,-4.4719,-4.4153,-4.3544,-4.2876,-4.2324,-4.2092,-4.215,-4.276,-4.3369,-4.3993,-4.4603,-4.5242,-4.5808,-5.1214,-5.1214,-5.1214,-5.1214,-5.1214,-5.1214,-5.1214,-5.1214,-5.1214,-5.1214,-5.1214,-5.1214,-5.1214,-5.1214,-5.1214,-5.1214,-5.1214,-5.1214,-5.1214,-5.1214,-5.0735,-4.9688,-4.8775,-4.7924,-4.7077,-4.7062,-4.699,-4.6873,-4.6624,-4.6447,-4.6358,-4.6135,-4.597,-4.588,-4.588,-4.5518,-4.4864,-4.4647,-4.4182,-4.3616,-4.3616,-4.3471,-4.3297,-4.3529,-4.3616,-4.366,-4.4023,-4.4095,-4.4008,-4.4124,-4.4095,-4.395,-4.3689,-4.3616,-4.3732,-4.4356,-4.4995,-4.5503,-4.5503,-4.5343,-4.5285,-4.5764,-4.5692,-4.5503,-4.5503,-4.5706,-4.5808,-4.5561,-4.5706,-4.5692,-4.501,-4.469,-4.4182,-4.3065,0.0,-4.26,-4.2861,-4.289,-4.3166,-4.3906,-4.3993,-4.3892,-4.3631,-4.3848,-4.3877,-4.3631,-4.3848,-4.3993,-4.3993,-4.3993,-4.4153,-4.4545,-4.3718,-4.3384,-4.3616,-4.3616,-4.3616,-4.3616,-4.4255,-4.4661,-4.4893,-4.5314,-4.5271,-4.485,-4.4255,-4.3616,-4.2948,-4.2339,-4.2324,-4.2716,-4.3355,-4.3993,-4.4632,-4.5271,-4.5663,-4.588,-5.1214,-5.1214,-5.1214,-5.1214,-5.1214,-5.1214,-5.1214,-5.1214,-5.1214,-5.1214,-5.1214,-5.1214,-5.1214,-5.1214,-5.1214,-5.1214,-5.1214,-5.1214,-5.1214,-5.112,-5.0538,-4.9359,-4.8581,-4.7776,-4.6931,-4.6844,-4.6712,-4.6594,-4.6314,-4.621,-4.6225,-4.6001,-4.588,-4.588,-4.588,-4.5634,-4.5184,-4.498,-4.4647,-4.4269,-4.4269,-4.4153,-4.4008,-4.4197,-4.4269,-4.4327,-4.4734,-4.4763,-4.4618,-4.4821,-4.4748,-4.4545,-4.4342,-4.4414,-4.4632,-4.4821,-4.5358,-4.588,-4.588,-4.588,-4.588,-4.588,-4.588,-4.588,-4.588,-4.588,-4.588,-4.588,-4.588,-4.575,-4.5285,-4.5024,-4.4748,-4.4342,-4.411,-4.4066,-4.4255,-4.4269,-4.4342,-4.456,-4.4589,-4.4501,-4.4284,-4.4458,-4.4501,-4.4284,-4.4472,-4.4589,-4.4589,-4.4385,-4.456,-4.5169,-4.4603,-4.4371,-4.4574,-4.4385,-4.4182,-4.4008,-4.4821,-4.5198,-4.5213,-4.5677,-4.5518,-4.4864,-4.4443,-4.3906,-4.3268,-4.2861,-4.2934,-4.3369,-4.4023,-4.4531,-4.4966,-4.5634,-4.588,-4.588,-5.1214,-5.1214,-5.1214,-5.1214,-5.1214,-5.1214,-5.1214,-5.1214,-5.1214,-5.1214,-5.1214,-5.1214,-5.1214,-5.1214,-5.1214,-5.1214,-5.1214,-5.1214,-5.1167,-5.0949,-5.0322,-4.9329,-4.8388,-4.76,-4.6902,-4.6727,-4.6594,-4.6594,-4.6314,-4.621,-4.621,-4.6015,-4.588,-4.588,-4.588,-4.588,-4.5837,-4.5169,-4.4893,-4.4893,-4.4893,-4.4545,-4.4066,-4.4661,-4.4893,-4.4893,-4.4893,-4.5329,-4.5779,-4.5111,-4.5329,-4.5764,-4.5111,-4.5343,-4.575,-4.5082,-4.5358,-4.588,-4.588,-4.588,-4.588,-4.588,-4.588,-4.588,-4.588,-4.588,-4.588,-4.588,-4.588,-4.588,-4.588,-4.5343,-4.4893,-4.4893,-4.44,-4.4211,-4.4806,-4.4893,-4.514,-4.5808,-4.588,-4.5619,-4.4966,-4.5503,-4.5605,-4.4937,-4.5503,-4.588,-4.588,-4.5256,-4.5198,-4.5866,-4.5242,-4.5213,-4.588,-4.5227,-4.4603,-4.4023,-4.5285,-4.588,-4.588,-4.588,-4.5518,-4.4893,-4.4879,-4.4545,-4.4008,-4.3993,-4.3993,-4.4066,-4.4661,-4.4879,-4.498,-4.5634,-4.588,-4.588,-5.1214,-5.1214,-5.1214,-5.1214,-5.1214,-5.1214,-5.1214,-5.1214,-5.1214,-5.1214,-5.1214,-5.1214,-5.1214,-5.1214,-5.1214,-5.1214,-5.1011,-5.0885,-5.0724,-5.0171,-4.9727,-4.9451,-4.8707,-4.7921,-4.7107,-4.6593,-4.6269,-4.6105,-4.6015,-4.6015,-4.6015,-4.5925,-4.588,-4.588,-4.588,-4.588,-4.588,-4.5677,-4.559,-4.559,-4.559,-4.5474,-4.5343,-4.5518,-4.559,-4.559,-4.559,-4.5721,-4.5851,-4.5648,-4.5721,-4.5851,-4.5648,-4.5721,-4.5837,-4.5648,-4.5721,-4.588,-4.588,-4.588,-4.588,-4.588,-4.588,-4.588,-4.588,-4.588,-4.588,-4.588,-4.588,-4.588,-4.588,-4.5721,-4.559,-4.559,-4.5445,-4.5387,-4.5561,-4.559,-4.5663,-4.5866,-4.588,-4.5808,-4.5605,-4.5764,-4.5808,-4.5605,-4.5779,-4.588,-4.588,-4.5692,-4.5677,-4.588,-4.5692,-4.5459,-4.5184,-4.5459,-4.5503,-4.5329,-4.5706,-4.588,-4.588,-4.588,-4.5779,-4.5561,-4.5082,-4.4792,-4.4589,-4.4168,-4.424,-4.4632,-4.4821,-4.5169,-4.5619,-4.5808,-4.588,-4.588,-5.1214,-5.1214,-5.1214,-5.1214,-5.1214,-5.1214,-5.1214,-5.1214,-5.1214,-5.1214,-5.1214,-5.1214,-5.1214,-5.112,-5.1058,-5.1058,-5.0837,-5.0614,-5.0501,-5.0007,-4.9739,-4.9739,-4.8764,-4.7909,-4.7234,-4.6471,-4.6001,-4.588,-4.588,-4.588,-4.588,-4.588,-4.588,-4.588,-4.588,-4.588,-4.588,-4.588,-4.588,-4.588,-4.588,-4.588,-4.588,-4.588,-4.588,-4.588,-4.588,-4.588,-4.588,-4.588,-4.588,-4.588,-4.588,-4.588,-4.588,-4.588,-4.588,-4.588,-4.588,-4.588,-4.588,-4.588,-4.588,-4.588,-4.588,-4.588,-4.588,-4.588,-4.588,-4.588,-4.588,-4.588,-4.588,-4.588,-4.588,-4.588,-4.588,-4.588,-4.588,-4.588,-4.588,-4.588,-4.588,-4.588,-4.588,-4.588,-4.588,-4.588,-4.588,-4.588,-4.588,-4.588,-4.588,-4.5692,-4.5285,-4.5692,-4.575,-4.5503,-4.5764,-4.588,-4.588,-4.588,-4.588,-4.5866,-4.5459,-4.5285,-4.5256,-4.4893,-4.4951,-4.5285,-4.5285,-4.5532,-4.588,-4.588,-4.588,-4.588,-5.1214,-5.1214,-5.1214,-5.1214,-5.1214,-5.1214,-5.1214,-5.1214,-5.1167,-5.1167,-5.1167,-5.1167,-5.1135,-5.0917,-5.076,-5.076,-5.0567,-5.0453,-5.0453,-5.0198,-5.0038,-5.0038,-4.8607,-4.7628,-4.7349,-4.6408,-4.588,-4.588,-4.588,-4.588,-4.588,-4.588,-4.588,-4.588,-4.588,-4.588,-4.588,-4.588,-4.588,-4.588,-4.588,-4.588,-4.588,-4.588,-4.588,-4.588,-4.588,-4.588,-4.588,-4.588,-4.588,-4.588,-4.588,-4.588,-4.588,-4.588,-4.588,-4.588,-4.588,-4.588,-4.588,-4.588,-4.588,-4.588,-4.588,-4.588,-4.588,-4.588,-4.588,-4.588,-4.588,-4.588,-4.588,-4.588,-4.588,-4.588,-4.588,-4.588,-4.588,-4.588,-4.588,-4.588,-4.588,-4.588,-4.588,-4.588,-4.588,-4.588,-4.588,-4.588,-4.588,-4.588,-4.588,-4.588,-4.588,-4.588,-4.5576,-4.498,-4.559,-4.588,-4.588,-4.588,-4.588,-4.588,-4.588,-4.588,-4.588,-4.588,-4.588,-4.588,-4.588,-4.588,-4.588,-4.588,-4.588,-4.588,-5.1214,-5.1214,-5.1214,-5.1214,-5.1214,-5.1214,-5.1214,-5.1214,-5.112,-5.0917,-5.0902,-5.0822,-5.0677,-5.0581,-5.0581,-5.0581,-5.0327,-5.0086,-4.9878,-4.9829,-4.9781,-4.9781,-4.8512,-4.8003,-4.8366,-4.6768,-4.588,-4.588,-4.588,-4.588,-4.588,-4.588,-4.588,-4.588,-4.588,-4.588,-4.588,-4.588,-4.588,-4.588,-4.588,-4.588,-4.588,-4.588,-4.588,-4.588,-4.588,-4.588,-4.588,-4.588,-4.588,-4.588,-4.588,-4.588,-4.588,-4.588,-4.588,-4.588,-4.588,-4.588,-4.588,-4.588,-4.588,-4.588,-4.588,-4.588,-4.588,-4.588,-4.588,-4.588,-4.588,-4.588,-4.588,-4.588,-4.588,-4.588,-4.588,-4.588,-4.588,-4.588,-4.588,-4.588,-4.588,-4.588,-4.588,-4.588,-4.588,-4.588,-4.588,-4.588,-4.588,-4.588,-4.588,-4.588,-4.588,-4.588,-4.5808,-4.5663,-4.5822,-4.588,-4.588,-4.588,-4.588,-4.588,-4.588,-4.588,-4.588,-4.588,-4.588,-4.588,-4.588,-4.588,-4.588,-4.588,-4.588,-4.588,-5.1214,-5.1214,-5.1214,-5.1214,-5.1214,-5.1214,-5.1214,-5.1214,-5.112,-5.0855,-5.0807,-5.0728,-5.0534,-5.039,-5.0246,-5.0135,-4.999,-4.9829,-4.9717,-4.9717,-4.9717,-4.9717,-4.8464,-4.8072,-4.8663,-4.7158,-4.633,-4.633,-4.6026,-4.588,-4.588,-4.588,-4.588,-4.588,-4.588,-4.588,-4.588,-4.588,-4.588,-4.588,-4.588,-4.588,-4.588,-4.588,-4.588,-4.588,-4.588,-4.588,-4.588,-4.588,-4.588,-4.588,-4.588,-4.588,-4.588,-4.588,-4.588,-4.588,-4.588,-4.588,-4.588,-4.588,-4.588,-4.588,-4.588,-4.588,-4.588,-4.588,-4.588,-4.588,-4.588,-4.588,-4.588,-4.588,-4.588,-4.588,-4.588,-4.588,-4.588,-4.588,-4.588,-4.588,-4.588,-4.588,-4.588,-4.588,-4.588,-4.588,-4.588,-4.588,-4.588,-4.588,-4.588,-4.588,-4.588,-4.588,-4.588,-4.588,-4.588,-4.588,-4.588,-4.588,-4.588,-4.588,-4.588,-4.588,-4.5925,-4.6001,-4.6015,-4.5925,-4.6015,-4.597,-4.5925,-4.6015,-4.6105,-4.6194,-5.1088,-5.1088,-5.1088,-5.112,-5.112,-5.112,-5.112,-5.112,-5.1026,-5.0713,-5.0665,-5.0585,-5.039,-5.0135,-4.9926,-4.9732,-4.9717,-4.9717,-4.9717,-4.9717,-4.9717,-4.9717,-4.8566,-4.8188,-4.8663,-4.743,-4.6778,-4.6778,-4.6301,-4.5996,-4.588,-4.588,-4.588,-4.588,-4.588,-4.588,-4.588,-4.588,-4.588,-4.588,-4.588,-4.588,-4.588,-4.588,-4.588,-4.588,-4.588,-4.588,-4.588,-4.588,-4.588,-4.588,-4.588,-4.588,-4.588,-4.588,-4.588,-4.588,-4.588,-4.588,-4.588,-4.588,-4.588,-4.588,-4.588,-4.588,-4.588,-4.588,-4.588,-4.588,-4.588,-4.588,-4.588,-4.588,-4.588,-4.588,-4.588,-4.588,-4.588,-4.588,-4.588,-4.588,-4.588,-4.588,-4.588,-4.588,-4.588,-4.588,-4.588,-4.588,-4.588,-4.588,-4.588,-4.588,-4.588,-4.588,-4.588,-4.588,-4.588,-4.5925,-4.597,-4.597,-4.597,-4.597,-4.6015,-4.597,-4.597,-4.618,-4.618,-4.6015,-4.618,-4.618,-4.6015,-4.6225,-4.6403,-4.655,-5.0581,-5.0581,-5.0677,-5.0822,-5.0855,-5.0855,-5.0855,-5.0855,-5.068,-5.0264,-5.0168,-5.0072,-4.9829,-4.9781,-4.9732,-4.9717,-4.9717,-4.9717,-4.9717,-4.9717,-4.9717,-4.9717,-4.8986,-4.8638,-4.8677,-4.743,-4.6778,-4.6778,-4.6705,-4.6417,-4.588,-4.588,-4.588,-4.588,-4.588,-4.588,-4.588,-4.588,-4.588,-4.588,-4.588,-4.588,-4.588,-4.588,-4.588,-4.588,-4.588,-4.588,-4.588,-4.588,-4.588,-4.588,-4.588,-4.588,-4.588,-4.588,-4.588,-4.588,-4.588,-4.588,-4.588,-4.588,-4.588,-4.588,-4.588,-4.588,-4.588,-4.588,-4.588,-4.588,-4.588,-4.588,-4.588,-4.588,-4.588,-4.588,-4.588,-4.588,-4.588,-4.588,-4.588,-4.588,-4.588,-4.588,-4.588,-4.588,-4.588,-4.588,-4.588,-4.588,-4.588,-4.588,-4.588,-4.588,-4.588,-4.588,-4.588,-4.588,-4.588,-4.6015,-4.6165,-4.6165,-4.6165,-4.6165,-4.6403,-4.6358,-4.6165,-4.6447,-4.655,-4.6506,-4.655,-4.655,-4.6506,-4.655,-4.655,-4.6594,-5.0501,-5.0501,-5.0534,-5.0614,-5.0614,-5.0614,-5.0614,-5.0614,-5.0519,-5.0135,-5.0086,-4.999,-4.9732,-4.9717,-4.9717,-4.9717,-4.9717,-4.9717,-4.9717,-4.9717,-4.9717,-4.9717,-4.9074,-4.8899,-4.9248,-4.8362,-4.7836,-4.7836,-4.6824,-4.6156,-4.588,-4.588,-4.588,-4.588,-4.588,-4.588,-4.588,-4.588,-4.588,-4.588,-4.588,-4.588,-4.588,-4.588,-4.588,-4.588,-4.588,-4.588,-4.588,-4.588,-4.588,-4.588,-4.588,-4.588,-4.588,-4.588,-4.588,-4.588,-4.588,-4.588,-4.588,-4.588,-4.588,-4.588,-4.588,-4.588,-4.588,-4.588,-4.588,-4.588,-4.588,-4.588,-4.588,-4.588,-4.588,-4.5925,-4.6046,-4.6046,-4.6135,-4.6284,-4.615,-4.6046,-4.6046,-4.597,-4.588,-4.588,-4.588,-4.588,-4.588,-4.588,-4.588,-4.588,-4.588,-4.588,-4.588,-4.588,-4.597,-4.6046,-4.6046,-4.6121,-4.621,-4.621,-4.6269,-4.6447,-4.655,-4.655,-4.6447,-4.6668,-4.6712,-4.6594,-4.6712,-4.6756,-4.6756,-4.6756,-4.6844,-4.699]},{"header":{"parameterUnit":"m.s-1","parameterCategory":1,"la1":30.6,"la2":28.766,"lo1":-90.7593,"lo2":-88.6598,"dy":0.0162,"dx":0.0183,"nx":116,"ny":114,"refTime":"2024-05-03T12:00:00:Z","depth":0,"parameterNumber":3,"parameterNumberName":"V-component_of_WINDS"},"data":[0.0,0.0,0.0,0.0,0.0,0.0,0.0,0.0,0.0,0.0,0.0,0.0,0.0,0.0,0.0,0.0,0.0,0.0,0.0,0.0,0.0,0.0,0.0,0.0,0.0,0.0,0.0,0.0,0.0,0.0,0.0,0.0,0.0,0.0,0.0,0.0,0.0,0.0,0.0,0.0,0.0,0.0,0.0,0.0,0.0,0.0,0.0,0.0,0.0,0.0,0.0,0.0,0.0,0.0,0.0,0.0,0.0,0.0,0.0,0.0,0.0,0.0,0.0,0.0,0.0,0.0,0.0,0.0,0.0,0.0,0.0,0.0,0.0,0.0,0.0,0.0,0.0,0.0,0.0,0.0,0.0,0.0,0.0,0.0,0.0,0.0,0.0,0.0,0.0,0.0,0.0,0.0,0.0,0.0,0.0,0.0,0.0,0.0,0.0,0.0,0.0,0.0,0.0,0.0,0.0,0.0,0.0,0.0,0.0,0.0,0.0,0.0,0.0,0.0,0.0,0.0,0.0,0.0,0.0,0.0,0.0,0.0,0.0,0.0,0.0,0.0,0.0,0.0,0.0,0.0,0.0,0.0,0.0,0.0,0.0,0.0,0.0,0.0,0.0,0.0,0.0,0.0,0.0,0.0,0.0,0.0,0.0,0.0,0.0,0.0,0.0,0.0,0.0,0.0,0.0,0.0,0.0,0.0,0.0,0.0,0.0,0.0,0.0,0.0,0.0,0.0,0.0,0.0,0.0,0.0,0.0,0.0,0.0,0.0,0.0,0.0,0.0,0.0,0.0,0.0,0.0,0.0,0.0,0.0,0.0,0.0,0.0,0.0,0.0,0.0,0.0,0.0,0.0,0.0,0.0,0.0,0.0,0.0,0.0,0.0,0.0,0.0,0.0,0.0,0.0,0.0,0.0,0.0,0.0,0.0,0.0,0.0,0.0,0.0,0.0,0.0,0.0,0.0,0.0,0.0,0.0,0.0,0.0,0.0,0.0,0.0,0.0,0.0,0.0,0.0,0.0,0.0,0.0,0.0,0.0,0.0,0.0,0.0,0.0,0.0,0.0,0.0,0.0,0.0,0.0,0.0,0.0,0.0,0.0,0.0,0.0,0.0,0.0,0.0,0.0,0.0,0.0,0.0,0.0,0.0,0.0,0.0,0.0,0.0,0.0,0.0,0.0,0.0,0.0,0.0,0.0,0.0,0.0,0.0,0.0,0.0,0.0,0.0,0.0,0.0,0.0,0.0,0.0,0.0,0.0,0.0,0.0,0.0,0.0,0.0,0.0,0.0,0.0,0.0,0.0,0.0,0.0,0.0,0.0,0.0,0.0,0.0,0.0,0.0,0.0,0.0,0.0,0.0,0.0,0.0,0.0,0.0,0.0,0.0,0.0,0.0,0.0,0.0,0.0,0.0,0.0,0.0,0.0,0.0,0.0,0.0,0.0,0.0,0.0,0.0,0.0,0.0,0.0,0.0,0.0,0.0,0.0,0.0,0.0,0.0,0.0,0.0,0.0,0.0,0.0,0.0,0.0,0.0,0.0,0.0,0.0,0.0,0.0,0.0,0.0,0.0,0.0,0.0,0.0,0.0,0.0,0.0,0.0,0.0,0.0,0.0,0.0,0.0,0.0,0.0,0.0,0.0,0.0,0.0,0.0,0.0,0.0,0.0,0.0,0.0,0.0,0.0,0.0,0.0,0.0,0.0,0.0,0.0,0.0,0.0,0.0,0.0,0.0,0.0,0.0,0.0,0.0,0.0,0.0,0.0,0.0,0.0,0.0,0.0,0.0,0.0,0.0,0.0,0.0,0.0,0.0,0.0,0.0,0.0,0.0,0.0,0.0,0.0,0.0,0.0,0.0,0.0,0.0,0.0,0.0,0.0,0.0,0.0,0.0,0.0,0.0,0.0,0.0,0.0,0.0,0.0,0.0,0.0,0.0,0.0,0.0,0.0,0.0,0.0,0.0,0.0,0.0,0.0,0.0,0.0,0.0,0.0,0.0,0.0,0.0,0.0,0.0,0.0,0.0,0.0,0.0,0.0,0.0,0.0,0.0,0.0,0.0,0.0,0.0,0.0,0.0,0.0,0.0,0.0,0.0,0.0,0.0,0.0,0.0,0.0,0.0,0.0,0.0,0.0,0.0,0.0,0.0,0.0,0.0,0.0,0.0,0.0,0.0,0.0,0.0,0.0,0.0,0.0,0.0,0.0,0.0,0.0,0.0,0.0,0.0,0.0,0.0,0.0,0.0,0.0,0.0,0.0,0.0,0.0,0.0,0.0,0.0,0.0,0.0,0.0,0.0,0.0,0.0,0.0,0.0,0.0,0.0,0.0,0.0,0.0,0.0,0.0,0.0,0.0,0.0,0.0,0.0,0.0,0.0,0.0,0.0,0.0,0.0,0.0,0.0,0.0,0.0,0.0,0.0,0.0,0.0,0.0,0.0,0.0,0.0,0.0,0.0,0.0,0.0,0.0,0.0,0.0,0.0,0.0,0.0,0.0,0.0,0.0,0.0,0.0,0.0,0.0,0.0,0.0,0.0,0.0,0.0,0.0,0.0,0.0,0.0,0.0,0.0,0.0,0.0,0.0,0.0,0.0,0.0,0.0,0.0,0.0,0.0,0.0,0.0,0.0,0.0,0.0,0.0,0.0,0.0,0.0,0.0,0.0,0.0,0.0,0.0,0.0,0.0,0.0,0.0,0.0,0.0,0.0,0.0,0.0,0.0,0.0,0.0,0.0,0.0,0.0,0.0,0.0,0.0,0.0,0.0,0.0,0.0,0.0,0.0,0.0,0.0,0.0,0.0,0.0,0.0,0.0,0.0,0.0,0.0,0.0,0.0,0.0,0.0,0.0,0.0,0.0,0.0,0.0,0.0,0.0,0.0,0.0,0.0,0.0,0.0,0.0,0.0,0.0,0.0,0.0,0.0,0.0,0.0,0.0,0.0,0.0,0.0,0.0,0.0,0.0,0.0,0.0,0.0,0.0,0.0,0.0,0.0,0.0,0.0,0.0,0.0,0.0,0.0,0.0,0.0,0.0,0.0,0.0,0.0,0.0,0.0,0.0,0.0,0.0,0.0,0.0,0.0,0.0,0.0,0.0,0.0,0.0,0.0,0.0,0.0,0.0,0.0,0.0,0.0,0.0,0.0,0.0,0.0,0.0,0.0,0.0,0.0,0.0,0.0,0.0,0.0,0.0,0.0,0.0,0.0,0.0,0.0,0.0,0.0,0.0,0.0,0.0,0.0,0.0,0.0,0.0,0.0,0.0,0.0,0.0,0.0,0.0,0.0,0.0,0.0,0.0,0.0,0.0,0.0,0.0,0.0,0.0,0.0,0.0,0.0,0.0,0.0,0.0,0.0,0.0,0.0,0.0,0.0,0.0,0.0,0.0,0.0,0.0,0.0,0.0,0.0,0.0,0.0,0.0,0.0,0.0,0.0,0.0,0.0,0.0,0.0,0.0,0.0,0.0,0.0,0.0,0.0,0.0,0.0,0.0,0.0,0.0,0.0,0.0,0.0,0.0,0.0,0.0,0.0,0.0,0.0,0.0,0.0,0.0,0.0,0.0,0.0,0.0,0.0,0.0,0.0,0.0,0.0,0.0,0.0,0.0,0.0,0.0,0.0,0.0,0.0,0.0,0.0,0.0,0.0,0.0,0.0,0.0,0.0,0.0,0.0,0.0,0.0,0.0,0.0,0.0,0.0,0.0,0.0,0.0,0.0,0.0,0.0,0.0,0.0,0.0,0.0,0.0,0.0,0.0,0.0,0.0,0.0,0.0,0.0,0.0,0.0,0.0,0.0,0.0,0.0,0.0,0.0,0.0,0.0,0.0,0.0,0.0,0.0,0.0,0.0,0.0,0.0,0.0,0.0,0.0,0.0,0.0,0.0,0.0,0.0,0.0,0.0,0.0,0.0,0.0,0.0,0.0,0.0,0.0,0.0,0.0,0.0,0.0,0.0,0.0,0.0,0.0,0.0,0.0,0.0,0.0,0.0,0.0,0.0,0.0,0.0,0.0,0.0,0.0,0.0,0.0,0.0,0.0,0.0,0.0,0.0,0.0,0.0,0.0,0.0,0.0,0.0,0.0,0.0,0.0,0.0,0.0,0.0,0.0,0.0,0.0,0.0,0.0,0.0,0.0,0.0,0.0,0.0,0.0,0.0,0.0,0.0,0.0,0.0,0.0,0.0,0.0,0.0,0.0,0.0,0.0,0.0,0.0,0.0,0.0,0.0,0.0,0.0,0.0,0.0,0.0,0.0,0.0,0.0,0.0,0.0,0.0,0.0,0.0,0.0,0.0,0.0,0.0,0.0,0.0,0.0,0.0,0.0,0.0,0.0,0.0,0.0,0.0,0.0,0.0,0.0,0.0,0.0,0.0,0.0,0.0,0.0,0.0,0.0,0.0,0.0,0.0,0.0,0.0,0.0,0.0,0.0,0.0,0.0,0.0,0.0,0.0,0.0,0.0,0.0,0.0,0.0,0.0,0.0,0.0,0.0,0.0,0.0,0.0,0.0,0.0,0.0,0.0,0.0,0.0,0.0,0.0,0.0,0.0,0.0,0.0,0.0,0.0,0.0,0.0,0.0,0.0,0.0,0.0,0.0,0.0,0.0,0.0,0.0,0.0,0.0,0.0,0.0,0.0,0.0,0.0,0.0,0.0,0.0,0.0,0.0,0.0,0.0,0.0,0.0,0.0,0.0,0.0,0.0,0.0,0.0,0.0,0.0,0.0,0.0,0.0,0.0,0.0,0.0,0.0,0.0,0.0,0.0,0.0,0.0,0.0,0.0,0.0,0.0,0.0,0.0,0.0,0.0,0.0,0.0,0.0,0.0,0.0,0.0,0.0,0.0,0.0,0.0,0.0,0.0,0.0,0.0,0.0,0.0,0.0,0.0,0.0,0.0,0.0,0.0,0.0,0.0,0.0,0.0,0.0,0.0,0.0,0.0,0.0,0.0,0.0,0.0,0.0,0.0,0.0,0.0,0.0,0.0,0.0,0.0,0.0,0.0,0.0,0.0,0.0,0.0,0.0,0.0,0.0,0.0,0.0,0.0,0.0,0.0,0.0,0.0,0.0,0.0,0.0,0.0,0.0,0.0,0.0,0.0,0.0,0.0,0.0,0.0,0.0,0.0,0.0,0.0,0.0,0.0,0.0,0.0,0.0,0.0,0.0,0.0,0.0,0.0,0.0,0.0,0.0,0.0,0.0,0.0,0.0,0.0,0.0,0.0,0.0,0.0,0.0,0.0,0.0,0.0,0.0,0.0,0.0,0.0,0.0,0.0,0.0,0.0,0.0,0.0,0.0,0.0,0.0,0.0,0.0,0.0,0.0,0.0,0.0,0.0,0.0,0.0,0.0,0.0,0.0,0.0,0.0,0.0,0.0,0.0,0.0,0.0,0.0,0.0,0.0,0.0,0.0,0.0,0.0,0.0,0.0,0.0,0.0,0.0,0.0,0.0,0.0,0.0,0.0,0.0,0.0,0.0,0.0,0.0,0.0,0.0,0.0,0.0,0.0,0.0,0.0,0.0,0.0,0.0,0.0,0.0,0.0,0.0,0.0,0.0,0.0,0.0,0.0,0.0,0.0,0.0,0.0,0.0,0.0,0.0,0.0,0.0,0.0,0.0,0.0,0.0,0.0,0.0,0.0,0.0,0.0,0.0,0.0,0.0,0.0,0.0,0.0,0.0,0.0,0.0,0.0,0.0,0.0,0.0,0.0,0.0,0.0,0.0,0.0,0.0,0.0,0.0,0.0,0.0,0.0,0.0,0.0,0.0,0.0,0.0,0.0,0.0,0.0,0.0,0.0,0.0,0.0,0.0,0.0,0.0,0.0,0.0,0.0,0.0,0.0,0.0,0.0,0.0,0.0,0.0,0.0,0.0,0.0,0.0,0.0,0.0,0.0,0.0,0.0,0.0,0.0,0.0,0.0,0.0,0.0,0.0,0.0,0.0,0.0,0.0,0.0,0.0,0.0,0.0,0.0,0.0,0.0,0.0,0.0,0.0,0.0,0.0,0.0,0.0,0.0,0.0,0.0,0.0,0.0,0.0,0.0,0.0,0.0,0.0,0.0,0.0,0.0,0.0,0.0,1.6772,0.0,0.0,0.0,0.0,0.0,0.0,0.0,0.0,0.0,0.0,0.0,0.0,0.0,0.0,0.0,0.0,0.0,0.0,0.0,0.0,0.0,0.0,0.0,0.0,1.4064,1.4064,1.4826,1.4565,1.468,1.5565,1.5491,0.0,0.0,0.0,0.0,1.519,1.519,1.5251,1.5378,1.5571,1.5885,1.644,1.6166,1.5885,1.5591,0.0,0.0,0.0,0.0,0.0,0.0,0.0,0.0,0.0,0.0,0.0,0.0,0.0,0.0,0.0,0.0,0.0,0.0,0.0,0.0,0.0,0.0,0.0,0.0,0.0,0.0,0.0,0.0,0.0,0.0,0.0,0.0,0.0,0.0,0.0,0.0,0.0,0.0,0.0,0.0,0.0,0.0,0.0,0.0,0.0,0.0,0.0,0.0,0.0,0.0,0.0,0.0,0.0,0.0,0.0,0.0,0.0,0.0,0.0,0.0,0.0,0.0,0.0,0.0,0.0,0.0,0.0,0.0,0.0,0.0,0.0,1.6898,0.0,0.0,0.0,0.0,0.0,0.0,0.0,0.0,0.0,0.0,0.0,0.0,0.0,0.0,0.0,0.0,0.0,0.0,0.0,0.0,0.0,1.4617,1.3983,1.3526,1.3637,1.4674,1.4142,1.4231,1.5338,1.517,1.5062,1.5015,1.5008,1.4981,1.4928,1.4928,1.517,1.5752,1.6259,1.6874,1.7569,1.6947,1.6477,1.6182,1.5929,0.0,0.0,0.0,0.0,0.0,0.0,0.0,0.0,0.0,0.0,0.0,0.0,0.0,0.0,0.0,0.0,0.0,0.0,0.0,0.0,0.0,0.0,0.0,0.0,0.0,0.0,0.0,0.0,0.0,0.0,0.0,0.0,0.0,0.0,0.0,0.0,0.0,0.0,0.0,0.0,0.0,0.0,0.0,0.0,0.0,0.0,0.0,0.0,0.0,0.0,0.0,0.0,0.0,0.0,0.0,0.0,0.0,0.0,0.0,0.0,0.0,0.0,0.0,1.8472,1.8561,1.8238,1.8603,1.8496,1.8187,1.8343,1.8129,1.7661,0.0,0.0,0.0,0.0,0.0,0.0,0.0,0.0,0.0,0.0,0.0,0.0,0.0,0.0,0.0,0.0,0.0,0.0,0.0,0.0,1.3999,1.3936,1.3642,1.3872,1.493,1.4946,1.5021,1.5365,1.5357,1.5224,1.5022,1.5008,1.4843,1.4583,1.4583,1.487,1.5451,1.6767,1.7468,1.7589,1.8003,1.8006,1.7683,1.6441,1.615,1.6464,0.0,0.0,0.0,0.0,0.0,0.0,0.0,0.0,0.0,0.0,0.0,0.0,0.0,0.0,0.0,0.0,0.0,0.0,0.0,0.0,0.0,0.0,0.0,0.0,0.0,0.0,0.0,0.0,0.0,0.0,0.0,0.0,0.0,0.0,0.0,0.0,0.0,0.0,0.0,0.0,0.0,1.733,1.7527,0.0,0.0,0.0,0.0,0.0,0.0,0.0,0.0,0.0,0.0,0.0,0.0,0.0,1.8577,1.8577,1.97,2.0013,1.9519,2.0889,2.1293,2.0759,2.1374,2.1441,2.1064,2.0368,0.0,1.8212,1.8459,0.0,0.0,0.0,0.0,0.0,0.0,0.0,0.0,0.0,0.0,0.0,0.0,0.0,0.0,0.0,0.0,0.0,0.0,0.0,0.0,0.0,1.3611,1.4229,1.5305,1.5703,1.5829,1.5638,1.5638,1.5291,1.4553,1.4469,1.4409,1.4282,1.4603,1.5464,1.6887,1.7856,1.8479,1.8786,1.8726,1.8601,1.8423,1.7431,1.7,1.6911,1.6375,0.0,0.0,0.0,0.0,0.0,0.0,0.0,0.0,0.0,0.0,0.0,0.0,0.0,0.0,0.0,0.0,0.0,0.0,0.0,0.0,0.0,0.0,0.0,0.0,0.0,0.0,0.0,0.0,0.0,0.0,0.0,0.0,0.0,0.0,0.0,0.0,0.0,0.0,0.0,1.9025,1.9394,1.8658,1.9244,1.8972,0.0,0.0,0.0,0.0,0.0,0.0,0.0,0.0,0.0,1.8531,1.9265,1.9659,1.9659,2.0661,2.1122,2.1036,2.184,2.2078,2.1673,2.21,2.2138,2.1824,2.1327,2.0638,1.9804,1.9185,1.8947,1.8841,0.0,0.0,0.0,0.0,1.5933,1.5912,0.0,0.0,0.0,0.0,0.0,0.0,0.0,0.0,0.0,0.0,0.0,0.0,1.3187,1.4239,1.5202,1.591,1.6562,1.6683,1.6171,1.5952,1.5378,1.4355,1.4168,1.4088,1.4088,1.5075,1.6386,1.8109,1.8858,1.9417,1.9798,1.932,1.9082,1.8958,1.8447,1.7933,1.7357,1.6907,1.6451,1.5999,0.0,0.0,0.0,0.0,0.0,0.0,0.0,0.0,0.0,0.0,0.0,0.0,0.0,0.0,0.0,0.0,0.0,0.0,0.0,0.0,0.0,0.0,0.0,0.0,0.0,0.0,0.0,0.0,0.0,0.0,0.0,0.0,0.0,0.0,0.0,0.0,0.0,2.061,2.1071,1.9783,2.0866,2.0773,0.0,0.0,0.0,0.0,0.0,0.0,1.9794,2.0274,2.0399,2.0165,2.0733,2.1037,2.1037,2.1652,2.1957,2.2098,2.2378,2.2438,2.2303,2.2652,2.2632,2.2349,2.2263,2.1991,2.145,2.002,1.9403,1.927,1.8541,1.798,1.75,1.7245,1.6955,1.664,0.0,0.0,0.0,0.0,0.0,0.0,0.0,0.0,0.0,0.0,0.0,1.4303,1.4205,1.5949,1.7134,1.7032,1.7605,1.7689,1.7172,1.6293,1.5558,1.4988,1.4432,1.4088,1.4088,1.6073,1.7561,1.847,1.9595,2.012,2.0172,2.0098,1.9833,1.9567,1.923,1.8776,1.8197,1.7158,1.6968,1.7256,1.577,0.0,0.0,0.0,0.0,0.0,0.0,0.0,0.0,0.0,0.0,0.0,0.0,0.0,0.0,0.0,0.0,0.0,0.0,0.0,0.0,0.0,0.0,0.0,0.0,0.0,0.0,0.0,0.0,0.0,0.0,0.0,0.0,0.0,0.0,0.0,0.0,0.0,0.0,2.0614,2.2619,0.0,0.0,0.0,0.0,2.0357,2.0411,2.0981,2.2157,2.2193,2.2566,2.3398,2.3369,2.3311,2.3311,2.2971,2.2665,2.2398,2.274,2.2881,2.2941,2.3616,2.375,2.3469,2.3721,2.3537,2.2779,2.1242,2.0456,2.0148,1.9151,1.8619,1.8357,1.7456,1.7272,1.7515,0.0,0.0,0.0,0.0,0.0,1.4124,1.3952,1.3513,1.3076,1.2725,1.3197,1.3575,1.3689,1.5839,1.7315,1.754,1.8699,1.9045,1.8076,1.7001,1.6132,1.5545,1.4603,1.4754,1.608,1.7393,1.8426,1.9266,2.0268,2.0676,2.0419,2.0572,2.0438,2.011,1.9822,1.945,1.9024,1.8082,1.7444,1.6931,1.6501,1.5836,0.0,0.0,0.0,0.0,0.0,0.0,0.0,0.0,0.0,0.0,0.0,0.0,0.0,0.0,0.0,0.0,0.0,0.0,0.0,0.0,0.0,0.0,0.0,0.0,0.0,0.0,0.0,0.0,0.0,0.0,0.0,0.0,0.0,0.0,0.0,0.0,0.0,2.1949,2.3527,0.0,2.1765,2.2221,2.2482,2.2083,2.3132,2.4023,2.4478,2.4855,2.5001,2.4944,2.4646,2.4518,2.4518,2.4171,2.37,2.3039,2.3174,2.2971,2.2569,2.2767,2.2971,2.31,2.3037,2.2827,2.2557,2.1854,2.1486,2.1367,2.0408,1.9891,1.9569,1.8834,1.8541,1.8444,0.0,0.0,0.0,1.386,1.3787,1.3636,1.3333,1.2981,1.2806,1.2836,1.3496,1.3954,1.398,1.636,1.7968,1.7967,1.9421,1.9827,1.8424,1.7503,1.6507,1.5429,1.4847,1.5445,1.7443,1.8377,1.9127,1.9856,2.0806,2.0993,2.0469,2.0784,2.0674,2.0214,2.0148,1.9917,1.9573,1.9054,1.8263,1.7328,1.7051,1.6275,1.5326,0.0,0.0,0.0,0.0,0.0,0.0,0.0,0.0,0.0,0.0,0.0,0.0,0.0,0.0,0.0,0.0,0.0,0.0,0.0,0.0,0.0,0.0,0.0,0.0,0.0,0.0,0.0,0.0,0.0,0.0,0.0,0.0,0.0,0.0,0.0,2.3204,2.3022,2.4533,2.5068,2.3566,2.4131,2.4563,2.4386,2.5523,2.6288,2.6395,2.6668,2.6586,2.6171,2.5682,2.5427,2.5427,2.4959,2.4295,2.3406,2.3406,2.2921,2.2104,2.2242,2.2343,2.2423,2.2391,2.2305,2.2118,2.2024,2.1957,2.1837,2.1149,2.0591,2.0218,1.9844,1.9533,1.9352,0.0,1.3919,1.4166,1.3661,1.3545,1.3333,1.2848,1.275,1.2947,1.366,1.4734,1.5363,1.5117,1.7768,1.9225,1.8303,1.973,1.9979,1.825,1.7779,1.6685,1.4689,1.5166,1.6292,1.802,1.8997,1.9687,2.0132,2.1071,2.1145,2.042,2.0832,2.0639,1.9978,2.0306,2.0233,1.9899,1.9899,1.9446,1.8607,1.7304,1.6691,1.6482,0.0,0.0,0.0,0.0,0.0,0.0,0.0,0.0,0.0,0.0,0.0,0.0,0.0,0.0,0.0,0.0,0.0,0.0,0.0,0.0,0.0,0.0,0.0,0.0,0.0,0.0,0.0,0.0,0.0,0.0,0.0,0.0,0.0,2.1082,2.2892,2.4071,2.3766,2.5778,2.6822,2.5869,2.6614,2.7224,2.7224,2.7232,2.7391,2.7749,2.7356,2.7165,2.7165,2.6473,2.6122,2.6122,2.5472,2.4524,2.3502,2.3502,2.2948,2.1848,2.2186,2.2017,2.1429,2.2111,2.2104,2.1603,2.1884,2.1824,2.1523,2.1229,2.0755,2.018,2.0173,2.0173,2.0187,1.363,1.3919,1.4106,1.3424,1.3425,1.3267,1.2588,1.2624,1.2707,1.2795,1.3952,1.4851,1.4988,1.7368,1.9048,1.9193,1.9914,1.9793,1.8519,1.7331,1.6211,1.5239,1.6359,1.7746,1.9289,2.016,2.0813,2.1104,2.1593,2.1574,2.111,2.1442,2.1332,2.0853,2.0922,2.0681,2.0171,2.0171,1.9935,1.9554,1.9036,1.7981,1.6679,0.0,0.0,0.0,0.0,0.0,0.0,0.0,0.0,0.0,0.0,0.0,0.0,0.0,0.0,0.0,0.0,0.0,0.0,0.0,0.0,0.0,0.0,0.0,0.0,0.0,0.0,0.0,0.0,0.0,0.0,0.0,0.0,2.2593,2.29,2.386,2.4999,2.6095,2.7221,2.7704,2.7201,2.7403,2.7582,2.7582,2.7812,2.8098,2.8464,2.7439,2.6832,2.6832,2.6398,2.6201,2.6178,2.6916,2.6763,2.5732,2.5732,2.4776,2.2978,2.3041,2.2566,2.1673,2.1887,2.1787,2.1464,2.1803,2.1608,2.1136,2.1095,2.0882,2.0528,2.0314,2.0173,2.016,1.4011,1.3945,1.3731,1.2898,1.2991,1.2984,1.2347,1.2497,1.2748,1.2945,1.3963,1.4925,1.5575,1.7245,1.8602,1.9328,1.9632,1.9173,1.766,1.6362,1.6051,1.6803,1.7803,1.8906,2.0084,2.1026,2.1443,2.1445,2.2061,2.2069,2.1599,2.2033,2.1897,2.1214,2.1352,2.1127,2.0642,2.0511,2.0359,2.0288,2.0156,1.9128,1.7737,1.8012,1.7191,1.5946,1.6089,1.6028,1.5777,1.5475,0.0,0.0,0.0,0.0,0.0,0.0,0.0,0.0,0.0,0.0,0.0,0.0,0.0,0.0,0.0,0.0,0.0,0.0,0.0,0.0,0.0,0.0,0.0,0.0,2.265,2.424,2.4879,2.5384,2.6204,2.7502,2.8114,2.8432,2.8392,2.8519,2.8551,2.84,2.8702,2.8861,2.8773,2.7998,2.7192,2.6283,2.6771,2.6687,2.5982,2.7491,2.7593,2.6424,2.6062,2.4981,2.337,2.2741,2.2038,0.0,2.1407,2.1104,2.0744,2.1172,2.107,0.0,0.0,0.0,0.0,0.0,2.0478,2.0535,1.439,1.39,1.3228,1.2277,1.2503,1.2642,1.2077,1.2398,1.2983,1.3654,1.439,1.5274,1.6309,1.7198,1.8068,1.9056,1.9092,1.8303,1.6347,1.5372,1.6127,1.8841,1.9261,1.9867,2.0744,2.162,2.1918,2.16,2.2398,2.2516,2.1904,2.2523,2.2248,2.1283,2.1559,2.1559,2.1214,2.0873,2.0739,2.0854,2.0922,2.0232,1.917,1.9037,1.8364,1.7402,1.7381,1.7078,1.6635,1.6544,0.0,0.0,0.0,0.0,0.0,0.0,0.0,0.0,0.0,0.0,0.0,0.0,0.0,0.0,0.0,0.0,0.0,0.0,0.0,0.0,0.0,0.0,0.0,0.0,2.3901,2.5532,2.6589,2.7042,2.7502,2.8146,2.8543,2.8908,2.9266,2.9504,2.9544,2.9314,2.9552,2.9433,2.8805,0.0,0.0,0.0,0.0,2.7306,2.5824,2.7514,2.7686,2.6382,2.5683,2.4722,2.3503,2.2179,2.1339,2.1035,2.0853,2.0379,1.9808,2.0264,2.029,2.0132,2.0696,2.083,2.0602,2.0537,2.074,2.0936,1.4415,1.3754,1.3043,1.2232,1.2503,1.2642,1.2077,1.2383,1.2903,1.3473,1.4174,1.4961,1.5967,1.6835,1.791,1.9214,1.846,1.7636,1.7028,1.6012,1.6582,1.9174,1.9593,2.0354,2.1732,2.2091,2.2411,2.2642,2.249,2.231,2.2173,2.2042,2.1904,2.1697,2.1421,2.1421,2.1628,2.1012,2.0843,2.1133,2.1477,2.0711,1.9528,2.0241,1.992,1.9118,1.9119,1.9069,1.8797,1.79,1.7563,1.7521,1.7261,1.6899,0.0,0.0,0.0,0.0,0.0,0.0,0.0,0.0,0.0,0.0,0.0,0.0,0.0,0.0,0.0,0.0,0.0,0.0,0.0,2.3247,2.4579,2.5906,2.6954,2.7407,2.778,2.8178,2.8543,2.8908,2.9266,2.8837,2.8742,2.9258,2.9091,2.8916,2.8773,2.771,2.6898,2.6501,2.6822,2.683,2.6493,2.8232,2.8838,2.8279,0.0,0.0,2.5161,2.4531,2.3405,2.1998,2.1151,2.0569,2.0232,2.012,1.9967,1.9775,2.0412,2.0661,2.055,2.0025,2.0024,2.0284,1.3904,1.3178,1.2439,1.1811,1.2013,1.2182,1.2051,1.2307,1.2706,1.3084,1.3635,1.447,1.5917,1.5725,1.6287,1.8202,1.7198,1.6734,1.7469,1.7117,1.7912,2.0127,2.0684,2.1279,2.2191,2.2492,2.2712,2.2928,2.2722,2.2585,2.2585,2.2448,2.2179,2.1766,2.176,2.176,2.1766,2.1421,2.1352,2.149,2.149,2.1034,2.0398,2.1136,2.1031,2.0488,2.0146,1.9911,1.9677,1.8809,1.8459,1.8233,1.7968,1.7633,1.7094,0.0,0.0,0.0,0.0,0.0,0.0,0.0,0.0,0.0,0.0,0.0,0.0,0.0,0.0,2.0956,2.1132,0.0,2.3079,2.3996,2.5145,2.6199,2.7081,2.7645,2.8043,2.8201,2.8543,2.8837,2.9012,2.9028,2.9099,2.9282,2.9298,2.9218,2.9043,2.8357,2.7599,2.6758,2.7576,2.7591,2.6681,2.8435,2.9028,2.8495,2.8107,2.7127,2.5795,2.4815,2.368,2.2304,2.162,2.0767,1.9915,1.9646,1.9579,1.9641,1.9966,2.0094,2.0055,1.9782,1.9858,2.0132,1.348,1.2581,1.1795,1.1386,1.1527,1.1766,1.1954,1.2241,1.2522,1.2904,1.322,1.399,1.5505,1.4548,1.4543,1.6344,1.5909,1.6138,1.7525,1.8058,1.918,2.1136,2.1704,2.2124,2.2412,2.2766,2.2953,2.2953,2.3013,2.3013,2.2953,2.2884,2.2576,2.2042,2.2173,2.2104,2.1973,2.1835,2.1835,2.1904,2.1553,2.1352,2.139,2.1726,2.1752,2.1417,2.078,2.039,2.0019,1.9405,1.8987,1.87,1.8378,1.8173,1.784,1.6667,1.7254,0.0,0.0,0.0,0.0,0.0,0.0,0.0,0.0,0.0,2.0979,2.0695,2.1594,2.2447,2.2587,2.3294,2.4102,2.4865,2.5762,2.6534,2.7113,2.7677,2.8027,2.8027,2.84,2.8694,2.8757,2.9282,2.956,2.9409,2.96,2.96,2.9306,2.9298,2.8672,2.7243,2.8561,2.8656,2.7235,2.8506,2.8869,2.8156,2.7391,2.6688,2.5988,2.4523,2.3356,2.2516,2.1857,2.0784,1.9512,1.9181,1.9264,1.9514,1.9514,1.9514,1.9514,1.9641,1.9839,2.0036,1.3919,1.2533,1.1381,1.1311,1.1527,1.1753,1.1948,1.2249,1.2649,1.3341,1.3408,1.3579,1.409,1.3931,1.3766,1.3567,1.5258,1.6533,1.695,1.8139,1.9626,2.145,2.181,2.2124,2.2412,2.2979,2.3273,2.3273,2.3541,2.3534,2.3273,2.2981,2.2836,2.2722,2.211,2.2173,2.2722,2.211,2.1966,2.2242,2.2173,2.1966,2.1734,2.1862,2.1886,2.178,2.1063,2.0701,2.0412,1.9531,1.9112,1.8994,1.8434,1.8432,1.8501,1.7916,1.7913,1.7927,1.7329,1.714,1.7318,1.8304,1.9087,1.9895,0.0,0.0,2.2364,2.2348,2.2936,2.3657,2.4282,2.4706,2.5262,2.6279,2.6541,2.6756,2.7145,2.7272,2.732,2.732,2.7892,2.8408,2.8734,2.8837,2.9131,2.9727,2.9512,2.9337,2.9298,2.9298,2.9186,2.9035,2.9186,2.9186,2.9028,2.894,2.8622,2.8217,2.7483,2.6822,2.6056,2.4546,2.3639,2.3167,2.1373,2.017,1.9512,1.9181,1.9136,1.9142,1.9142,1.9142,1.9206,1.9845,1.9909,1.9711,1.3245,1.2192,1.1305,1.1305,1.1397,1.1527,1.1794,1.1915,1.2157,1.2579,1.262,1.2877,1.3649,1.3698,1.3222,1.2129,1.4019,1.5608,1.6459,1.8171,1.9957,2.1757,2.2084,2.2372,2.2672,2.2926,2.3053,2.3053,2.318,2.318,2.3053,2.2908,2.2773,2.2516,2.2448,2.2448,2.2516,2.2448,2.2379,2.231,2.231,2.2007,2.1512,2.1323,2.1181,2.1085,2.0437,1.9914,0.0,1.8927,1.8476,1.8109,1.824,1.8004,1.7677,1.7338,1.7355,1.7456,1.7488,1.8182,0.0,0.0,2.0641,2.1852,2.2578,2.3267,2.3696,2.3481,2.4183,2.4879,2.5179,2.5296,2.5691,0.0,2.6566,2.6565,2.7121,2.72,2.7134,2.6934,2.7138,2.7463,2.782,2.8599,2.9028,2.89,2.9147,2.9298,2.9298,2.9298,2.9298,2.9298,2.9298,2.9298,2.9298,2.8948,2.8521,2.7887,2.7412,2.673,2.5801,2.5187,2.4224,2.2963,2.098,1.9947,1.9676,1.9253,1.9078,1.9078,1.9078,1.9078,1.9142,1.9647,1.9711,1.9641,1.3124,1.232,1.1602,1.1348,1.1305,1.1408,1.1668,1.1766,1.1847,1.1976,1.2103,1.2461,1.3195,1.3254,1.2761,1.1527,1.3164,1.4825,1.5992,1.802,1.9928,2.1577,2.2058,2.2398,2.2619,2.2866,2.2993,2.2993,2.3153,2.3193,2.3182,2.3193,2.3008,2.2572,2.2848,2.2802,2.2448,2.2791,2.2722,2.2448,2.231,2.1936,2.1334,2.0912,2.0377,1.9846,1.9505,1.9095,1.8627,1.8096,1.7692,1.7444,1.7646,1.7426,1.7048,1.6876,1.6806,1.6932,1.7575,0.0,0.0,2.0448,2.178,2.3074,2.3634,2.4217,2.4574,2.4529,2.5092,2.5636,2.589,2.5921,2.612,2.6724,2.6605,2.6621,2.7129,2.7121,2.6885,2.6452,2.6422,2.6379,2.6348,2.7855,2.8765,2.8535,2.9004,2.9298,2.9298,2.9298,2.9298,2.9298,2.9298,2.925,2.9155,2.8797,2.8238,2.7554,2.7135,2.6434,2.5599,2.5322,2.4231,2.249,2.1061,2.0215,1.9851,1.9504,1.9267,1.9078,1.9078,1.9078,1.9136,1.945,1.9577,1.9641,1.4126,1.3252,1.2369,1.1478,1.1305,1.1397,1.1667,1.1877,1.2,1.2012,1.2423,1.2631,1.2441,1.2441,1.2221,1.1742,1.3095,1.45,1.5716,1.7602,1.9239,2.0675,2.1537,2.2004,2.2011,2.2866,2.3313,2.3313,2.3881,2.4022,2.3748,2.4028,2.3861,2.3244,2.3313,2.3146,2.2866,2.2859,2.2859,2.2866,2.2448,2.1936,2.1363,2.0749,1.9506,1.8171,1.8574,1.8661,1.8328,1.7147,1.7094,1.735,1.6514,1.6769,0.0,1.7231,1.662,1.6314,1.7456,0.0,1.8202,2.0329,2.17,2.2767,2.3829,2.433,2.4778,2.5398,2.5557,2.5842,2.6517,2.6644,2.6764,2.7129,2.7177,2.7177,2.72,2.6907,2.65,2.5829,2.571,2.532,0.0,2.6354,2.8193,2.9186,2.9282,2.9298,2.9298,2.9298,2.9298,2.9298,2.9298,2.9131,2.8789,2.8424,2.786,2.7196,2.6448,2.5951,2.5532,2.4503,2.3208,2.1822,2.1868,2.112,1.9929,1.9961,1.9625,1.9078,1.9078,1.9078,1.9136,1.945,1.9577,1.9577,1.4887,1.4174,1.3288,1.2363,1.224,1.2032,1.1527,1.1656,1.1785,1.1785,1.2203,0.0,0.0,0.0,0.0,0.0,1.2598,1.3659,1.4855,1.6753,1.8399,1.9798,2.1224,2.1897,2.1769,2.2184,2.2438,2.2438,2.2639,2.2779,2.2873,2.2973,2.302,2.302,2.302,2.2959,2.2928,2.2928,2.2928,2.2846,2.251,2.1988,2.1415,2.078,1.9736,1.8442,0.0,1.6873,1.6223,1.5928,1.5813,1.5793,1.591,1.5828,1.5705,1.5475,1.5733,1.6179,1.6412,0.0,1.9715,2.068,2.2415,2.4063,2.4648,2.505,2.5278,2.5286,2.5477,2.5635,2.5635,2.5635,2.5826,2.6406,2.6112,2.6136,2.7073,2.6303,2.5747,2.5959,2.5386,0.0,0.0,0.0,0.0,2.755,2.8199,2.8751,2.9282,2.9298,2.9298,2.9298,2.9067,2.8885,2.8765,2.8408,2.7775,2.6831,2.5884,2.5397,2.5262,2.4374,2.3754,2.3188,2.2281,2.1395,2.0589,2.0163,1.9625,1.9078,1.9078,1.9264,1.945,1.9577,1.9577,1.9577,0.0,1.4929,1.4216,1.333,1.3167,0.0,0.0,0.0,0.0,0.0,0.0,0.0,0.0,0.0,0.0,0.0,0.0,1.3037,1.4115,1.5492,1.6968,1.8596,1.975,2.0465,2.0615,2.0902,2.1102,2.1203,2.1516,2.1877,2.2265,2.2372,2.2519,2.2706,2.2706,2.2645,2.2545,2.2545,2.2492,2.2358,2.1826,2.1233,2.0628,1.9937,1.8855,0.0,1.6684,1.565,1.4773,1.4774,1.4838,1.4934,1.5025,1.4847,1.4676,1.4876,1.536,1.5927,1.6584,1.828,2.0085,2.0914,2.2705,2.4277,2.4494,2.503,2.5359,2.5131,2.5289,2.5211,2.4611,2.4734,2.5006,2.5194,2.5023,2.536,2.6638,2.6038,2.5682,2.6047,2.5572,0.0,0.0,0.0,0.0,2.6669,2.7531,2.8208,2.8726,2.8742,2.8853,2.9099,2.8885,2.8646,2.84,2.8024,2.7328,2.6315,2.5493,2.5127,2.5059,2.4578,2.4043,2.3428,2.3045,2.2105,2.0837,2.0647,2.0107,1.945,1.92,1.9139,1.932,1.9668,1.9706,1.9631,0.0,0.0,1.5179,0.0,0.0,0.0,0.0,0.0,0.0,0.0,0.0,0.0,0.0,0.0,0.0,0.0,0.0,0.0,1.3578,1.3899,1.5029,1.7149,1.7347,1.7844,1.8788,1.9152,1.9439,1.9733,2.0568,2.1269,2.1837,2.2111,2.2245,2.2265,2.2265,2.2111,2.185,2.1871,2.1704,2.139,2.0453,1.972,1.9194,1.8264,1.7083,1.5953,1.5853,1.5133,1.4191,1.3812,0.0,0.0,0.0,0.0,1.4405,0.0,0.0,1.5594,1.7821,1.8749,1.9528,2.1182,2.2558,2.3594,2.3641,2.4332,2.5053,2.4992,2.4968,2.4593,0.0,0.0,2.4163,2.3489,2.4062,2.4922,2.603,2.6171,2.6171,0.0,0.0,0.0,0.0,0.0,0.0,2.6643,0.0,2.7704,2.7812,2.7796,2.809,2.875,2.8734,2.84,2.7741,2.7301,2.6662,2.5622,2.5269,2.5127,2.5127,2.5127,2.418,2.2717,2.3969,2.3074,2.0757,2.1306,2.0987,2.0017,1.9386,1.8985,1.886,1.972,1.9903,1.9725,0.0,0.0,0.0,0.0,0.0,0.0,0.0,0.0,0.0,0.0,0.0,0.0,0.0,0.0,0.0,0.0,0.0,0.0,1.2476,1.3351,1.4219,1.4925,1.6258,1.7141,1.7391,1.8011,1.8531,1.8824,1.9045,1.9345,1.9706,1.978,1.9933,2.0147,2.0147,2.0107,2.0054,2.0267,2.0194,1.9913,1.97,1.9362,1.89,1.8238,1.753,1.6775,1.6071,1.5219,1.4441,0.0,0.0,0.0,0.0,1.5457,1.5619,0.0,0.0,1.6858,1.7241,1.8928,2.0639,2.1272,2.2274,2.3236,2.3769,2.4101,2.4153,2.3741,2.3164,2.2385,0.0,0.0,0.0,2.3184,2.3839,0.0,2.6024,2.5929,0.0,2.6074,0.0,2.663,2.6785,2.7262,0.0,0.0,2.7295,2.8066,2.8869,2.8646,2.8583,2.8765,2.8265,2.7915,2.7733,2.6796,2.6216,2.5966,2.538,2.5127,2.5127,2.5127,2.4829,2.4415,2.4499,2.3718,2.2428,2.2318,2.1371,2.0081,1.989,1.9661,1.9396,1.9386,1.9802,2.0346,0.0,0.0,0.0,0.0,0.0,0.0,0.0,0.0,0.0,0.0,0.0,0.0,0.0,0.0,0.0,0.0,0.0,0.0,0.0,1.2505,1.3244,1.4033,1.4912,1.5713,1.641,1.6835,1.7221,1.7515,1.7649,1.7923,1.833,1.8203,1.837,1.8778,1.8784,1.8865,1.8991,1.9158,1.9058,0.0,0.0,1.8217,1.7889,1.725,1.6867,1.6486,1.5865,1.5278,0.0,0.0,0.0,1.556,1.6141,1.6371,1.6386,1.6557,0.0,1.7649,1.7972,1.9175,2.0381,2.0665,2.1516,2.2281,2.2342,2.2729,2.2882,2.1825,2.1299,0.0,1.9271,0.0,0.0,0.0,0.0,0.0,2.5557,2.5825,2.6029,0.0,2.7067,0.0,2.8076,2.8311,2.8294,0.0,2.7783,2.7923,2.836,2.8186,2.8154,2.8305,2.7931,2.745,2.703,2.6229,2.5832,2.5671,2.5283,2.5127,2.5127,2.5127,2.4831,2.4442,0.0,2.3924,2.2907,2.2646,2.1903,2.0963,2.0652,2.0328,2.0092,2.006,2.0365,2.0859,0.0,0.0,0.0,0.0,0.0,0.0,0.0,0.0,0.0,0.0,1.3516,1.3386,0.0,0.0,0.0,0.0,0.0,0.0,0.0,0.0,1.2338,1.3769,1.3628,1.4203,1.5617,1.5724,1.5919,1.6213,1.6466,1.6854,1.7348,1.7105,1.7208,1.7722,1.7649,1.7862,1.8143,1.8183,1.8023,1.7656,1.7228,1.6854,1.6533,0.0,1.5784,1.5738,1.5411,1.5198,0.0,0.0,1.5928,1.5808,1.687,1.7086,1.7129,1.8246,1.8283,1.8172,1.9082,1.9416,1.9591,1.9869,2.0591,2.1109,2.0574,2.1073,2.1296,1.9861,0.0,1.9098,1.7609,1.8838,2.0226,2.0673,0.0,2.3964,2.4867,2.5734,2.649,2.7042,2.7749,2.8503,2.9226,2.8932,2.8861,2.9266,2.8456,2.778,2.7431,2.7359,2.7372,2.7585,2.7593,2.7038,2.6011,2.5734,2.5464,2.5127,2.5127,2.5127,2.5127,2.5127,2.4611,2.3832,0.0,0.0,2.2889,2.2801,2.2455,2.2048,2.1488,2.1018,2.0755,2.0929,2.1128,2.132,0.0,0.0,0.0,0.0,0.0,0.0,0.0,0.0,0.0,0.0,1.5024,1.472,0.0,0.0,0.0,0.0,0.0,0.0,0.0,0.0,0.0,1.2968,1.331,1.3933,1.4847,1.5279,1.5611,1.5905,1.5911,1.6032,1.6126,1.5838,1.5885,1.6151,1.5965,1.6019,1.6306,1.6553,1.6486,1.6177,1.6366,1.6246,1.5924,1.5824,0.0,0.0,1.4989,1.4989,1.541,1.5764,1.6305,1.708,1.81,1.8515,1.8587,1.8167,1.8446,1.8815,1.8553,1.9145,1.9875,2.0146,2.0342,2.0711,2.1444,2.0681,0.0,0.0,1.8225,1.7206,1.7575,1.835,1.9614,2.1689,0.0,0.0,0.0,0.0,2.6849,0.0,0.0,0.0,0.0,0.0,0.0,0.0,0.0,2.8869,2.8519,2.8209,2.7676,2.6902,2.6886,2.646,2.5667,2.5599,2.5464,2.5127,2.5127,2.5127,2.5127,2.5127,2.4993,2.4809,2.4664,0.0,2.3831,2.3556,2.2899,2.2111,2.1985,2.158,2.0982,2.0548,2.0835,2.1483,0.0,0.0,0.0,0.0,0.0,0.0,0.0,1.6931,1.6892,1.68,1.6751,1.6197,1.4828,1.4106,1.3548,0.0,0.0,0.0,0.0,0.0,0.0,1.3968,1.3817,0.0,1.6018,1.5758,0.0,0.0,0.0,1.5605,1.5598,0.0,0.0,0.0,1.5458,1.5558,1.5791,1.5979,1.5959,1.5791,1.5985,1.5952,1.5784,0.0,0.0,0.0,0.0,0.0,1.5684,1.5928,1.6308,1.695,1.8295,1.8896,1.8965,1.8306,1.8656,1.9163,1.8638,1.9181,1.9947,2.0213,2.0177,2.0093,2.0214,0.0,0.0,0.0,1.6665,1.6035,1.6286,1.7213,0.0,0.0,0.0,0.0,0.0,0.0,0.0,0.0,0.0,0.0,0.0,0.0,0.0,0.0,0.0,2.8479,2.8487,2.7979,2.7407,2.6741,2.6532,2.6138,2.5599,2.5464,2.5262,2.5127,2.5127,2.5127,2.5127,2.5127,2.5127,2.5097,2.4532,0.0,2.3177,2.3279,2.268,2.1732,2.2359,2.2418,2.2055,2.1224,2.1364,2.1965,0.0,0.0,0.0,0.0,0.0,0.0,1.7184,1.7241,1.7345,1.7664,1.7766,1.7182,1.5516,1.4991,1.4401,0.0,0.0,0.0,0.0,0.0,0.0,0.0,0.0,0.0,0.0,0.0,0.0,0.0,0.0,0.0,0.0,0.0,0.0,0.0,0.0,0.0,0.0,1.5784,1.5784,0.0,0.0,0.0,0.0,0.0,0.0,0.0,0.0,0.0,0.0,0.0,1.6202,1.6442,1.7831,1.8494,1.8686,1.8444,1.8813,1.9247,1.9006,1.9404,1.9947,2.0213,2.008,1.9753,1.9032,1.8414,0.0,0.0,1.5426,1.5297,1.5405,1.6373,1.8007,0.0,2.1514,0.0,0.0,0.0,0.0,0.0,0.0,0.0,0.0,0.0,0.0,0.0,0.0,0.0,2.8106,2.7467,2.6934,2.6599,2.6205,2.5801,2.5532,2.5262,2.5127,2.5127,2.5382,2.5517,2.5517,2.5517,2.5517,2.548,2.4816,0.0,0.0,2.3161,2.2848,2.1853,2.3042,2.372,2.3792,2.2889,2.2714,2.3071,0.0,0.0,0.0,0.0,0.0,0.0,1.6668,1.6687,1.6735,1.6958,1.716,1.7169,1.6823,1.6243,1.5676,0.0,0.0,0.0,0.0,0.0,0.0,0.0,0.0,0.0,0.0,0.0,0.0,0.0,0.0,0.0,0.0,0.0,0.0,0.0,0.0,0.0,0.0,0.0,0.0,0.0,0.0,0.0,0.0,0.0,0.0,0.0,0.0,0.0,0.0,0.0,0.0,1.6049,1.6658,1.7255,1.7762,1.8444,0.0,0.0,1.9591,1.9833,1.9947,2.0213,2.008,1.9802,1.9594,0.0,0.0,1.6377,1.5308,1.4789,1.6113,1.6465,1.7602,2.0867,0.0,2.1361,0.0,0.0,0.0,0.0,0.0,0.0,0.0,0.0,0.0,0.0,0.0,0.0,2.7788,2.7138,2.6532,2.6138,2.5801,2.5464,2.5127,2.5127,2.5127,2.5119,2.6301,2.6961,2.7035,2.6953,2.6886,2.6847,2.6155,0.0,0.0,2.4209,2.4227,2.3242,2.4428,2.5615,2.6557,2.5772,2.5543,2.5525,0.0,0.0,0.0,0.0,0.0,0.0,1.663,1.6719,1.6863,1.7048,1.7479,1.7746,1.7629,1.7356,1.6743,1.5531,1.522,0.0,0.0,0.0,0.0,0.0,0.0,0.0,0.0,0.0,0.0,1.6716,0.0,0.0,0.0,0.0,0.0,0.0,0.0,0.0,0.0,0.0,0.0,0.0,0.0,0.0,0.0,0.0,0.0,0.0,0.0,0.0,0.0,0.0,0.0,0.0,1.5441,1.5495,0.0,0.0,1.7563,1.8414,1.8251,1.903,1.9911,2.0014,2.0038,1.9825,1.9374,0.0,1.7241,1.6343,1.5534,1.5166,1.5558,1.5806,1.6726,1.9277,0.0,0.0,0.0,0.0,0.0,0.0,0.0,0.0,0.0,0.0,0.0,0.0,0.0,0.0,2.7725,2.7462,2.6952,2.6145,2.6396,2.6065,2.5127,2.5329,2.5719,2.6301,2.6894,2.7618,2.8403,2.8403,2.8328,2.8287,2.7565,0.0,0.0,2.561,2.5214,2.3852,2.5572,2.6529,2.6953,2.6414,2.6121,2.6048,0.0,0.0,0.0,0.0,0.0,1.6692,1.6707,1.6838,1.6939,1.7019,1.7662,1.7985,1.778,1.7789,1.7347,1.6107,1.6179,0.0,0.0,0.0,0.0,0.0,0.0,0.0,0.0,0.0,1.8149,1.7738,1.7681,0.0,0.0,0.0,0.0,0.0,0.0,0.0,0.0,0.0,0.0,0.0,0.0,0.0,0.0,0.0,0.0,0.0,0.0,0.0,0.0,0.0,0.0,0.0,0.0,1.4307,1.4186,0.0,1.6659,1.7768,1.7515,1.8644,1.9887,1.9887,1.9891,1.9652,0.0,1.8141,1.7178,1.6098,1.5538,1.5213,1.5131,1.5242,1.6038,1.8032,0.0,1.9316,0.0,0.0,0.0,0.0,0.0,0.0,0.0,0.0,0.0,0.0,0.0,0.0,0.0,2.7677,2.7283,2.6433,2.6616,2.6239,2.5262,2.5464,2.6115,2.7086,2.7551,2.8352,2.9447,2.973,2.9713,2.9468,0.0,0.0,0.0,2.6953,2.6518,2.5042,2.6845,2.7796,2.8119,2.7709,2.7437,2.7328,0.0,0.0,0.0,0.0,0.0,1.6725,1.6861,1.6952,1.6911,1.6735,1.7265,1.7556,1.722,1.7337,1.7394,1.7378,1.6149,0.0,0.0,0.0,0.0,0.0,0.0,0.0,2.0232,1.8334,1.7785,1.8788,1.9168,1.8652,1.7326,1.8707,0.0,0.0,0.0,0.0,0.0,0.0,0.0,0.0,0.0,0.0,1.5927,0.0,0.0,0.0,0.0,0.0,0.0,0.0,0.0,0.0,0.0,1.4085,1.3789,1.5331,1.624,1.6948,1.7998,1.9066,1.9887,1.9887,1.9679,1.9317,0.0,1.7291,1.6177,1.5596,1.507,1.479,1.5035,1.5089,1.5703,1.7523,1.8219,0.0,0.0,0.0,0.0,0.0,0.0,0.0,0.0,0.0,0.0,0.0,0.0,0.0,0.0,2.7542,2.7521,2.7173,2.6178,2.5607,2.5599,2.5599,2.6115,2.7145,2.8526,2.9506,3.0114,3.0901,3.0828,0.0,0.0,0.0,0.0,2.8179,2.8182,2.7215,2.8405,2.9658,3.0772,3.0314,3.0138,3.0127,0.0,0.0,0.0,0.0,0.0,0.0,1.7046,1.6776,1.6511,1.6361,1.6861,1.7139,1.7032,1.7233,1.7255,1.6947,1.6546,0.0,0.0,0.0,0.0,0.0,0.0,0.0,2.0294,2.0552,2.055,2.0235,2.0138,2.0,1.98,1.9336,1.8891,1.8473,0.0,0.0,0.0,0.0,0.0,0.0,0.0,1.7738,1.6864,0.0,0.0,0.0,0.0,0.0,0.0,0.0,0.0,0.0,0.0,0.0,0.0,1.4212,1.4812,1.5415,1.5899,1.6861,1.781,1.8178,1.8528,1.858,1.7906,1.7441,1.6892,1.575,1.5492,1.5452,1.5356,1.5356,1.5943,1.7733,1.83,0.0,0.0,0.0,0.0,0.0,0.0,0.0,0.0,0.0,0.0,0.0,0.0,0.0,0.0,3.0171,2.89,2.6889,2.6954,2.6705,2.5944,2.7094,2.8262,2.9296,3.0651,3.1586,3.2148,3.2811,0.0,0.0,0.0,0.0,0.0,3.0023,2.9699,2.8889,2.9872,3.0518,3.0869,3.0723,3.0594,3.0586,0.0,0.0,0.0,0.0,0.0,0.0,1.7221,1.7006,1.6745,1.658,1.6939,1.7193,1.7183,1.7328,1.7321,1.718,1.7051,0.0,0.0,0.0,0.0,0.0,0.0,0.0,2.1056,2.1683,2.1897,2.1673,2.1482,2.1334,2.1169,2.0611,2.01,1.9728,1.9816,1.9347,0.0,0.0,0.0,0.0,1.8972,1.8565,1.7326,0.0,0.0,0.0,0.0,0.0,0.0,0.0,0.0,0.0,0.0,0.0,0.0,0.0,1.3862,1.4151,1.4697,1.5725,1.6771,1.7215,1.7541,1.7696,1.7402,1.7067,1.6603,1.5758,1.5885,1.608,1.5701,1.5906,1.6354,1.7106,1.8317,0.0,0.0,0.0,0.0,0.0,0.0,0.0,0.0,0.0,0.0,0.0,0.0,0.0,0.0,3.1385,2.9947,2.7766,2.8444,2.8319,2.711,2.8649,3.0004,3.1038,3.1926,3.2599,3.3145,3.3773,0.0,0.0,0.0,0.0,0.0,3.1247,3.0845,3.0278,3.0953,3.1228,3.1228,3.1228,3.1166,3.114,0.0,0.0,0.0,0.0,0.0,0.0,0.0,1.7499,1.738,1.7139,1.7333,1.7504,1.7632,1.7529,1.7565,1.7895,1.7629,0.0,0.0,0.0,0.0,0.0,0.0,2.0624,2.2263,2.1896,2.206,2.295,2.3048,2.2606,2.1704,2.2224,2.1964,2.1052,2.1518,2.1177,2.0249,1.9293,1.8926,1.8972,1.9977,1.9247,0.0,0.0,0.0,0.0,0.0,0.0,0.0,0.0,0.0,0.0,0.0,0.0,0.0,0.0,0.0,0.0,0.0,1.5424,1.6499,1.6826,1.6769,1.6634,1.6826,1.6189,0.0,1.5828,1.6388,1.6667,1.6057,1.671,1.7062,1.6189,0.0,0.0,0.0,0.0,0.0,0.0,0.0,0.0,0.0,0.0,0.0,0.0,0.0,0.0,0.0,3.1588,3.1001,2.9657,3.0595,3.0384,2.878,3.0254,3.1451,3.2286,3.2416,3.2756,3.3185,3.4062,0.0,0.0,0.0,0.0,0.0,3.1842,3.1614,3.1383,3.1672,3.1787,3.1787,3.1787,3.1845,3.1903,0.0,0.0,0.0,0.0,0.0,0.0,0.0,0.0,0.0,0.0,1.7163,1.7129,1.6927,1.7489,1.763,0.0,0.0,0.0,0.0,0.0,0.0,0.0,2.086,2.159,2.2263,2.2788,2.316,2.3352,2.3094,2.3162,2.3546,2.2717,2.2361,2.2402,2.1916,2.1177,2.0294,2.0068,1.9931,2.0022,2.0997,2.0673,0.0,0.0,0.0,0.0,1.6593,1.6418,0.0,0.0,0.0,0.0,0.0,0.0,0.0,0.0,1.2969,1.2985,1.3233,0.0,1.457,1.5085,1.5483,1.5807,0.0,1.6015,1.619,1.6522,1.6861,1.7103,1.7168,1.814,1.8914,0.0,0.0,0.0,0.0,0.0,0.0,0.0,0.0,0.0,0.0,0.0,0.0,0.0,0.0,0.0,0.0,3.4647,3.3819,3.2473,3.3684,3.2654,2.9199,3.157,3.2527,3.2067,3.3813,3.4024,3.2868,3.4207,0.0,0.0,0.0,0.0,3.2228,3.1896,3.173,3.1672,3.1787,3.1787,3.1787,3.1787,3.196,3.219,0.0,0.0,0.0,0.0,0.0,0.0,0.0,0.0,0.0,0.0,1.7505,1.7465,1.7302,1.7721,1.7912,0.0,0.0,0.0,0.0,0.0,0.0,2.0564,2.1313,2.197,2.2556,2.2995,2.3224,2.3224,2.2871,2.3128,2.3859,2.2864,2.2591,2.2867,2.2053,2.1509,2.12,2.1023,2.1049,2.1236,2.1572,0.0,0.0,0.0,0.0,0.0,1.68,1.68,0.0,1.6206,1.5722,1.5527,0.0,0.0,0.0,0.0,1.3262,1.3524,1.3453,1.3809,1.4308,1.5041,1.5362,1.5645,1.6143,1.61,1.6126,1.6854,1.7103,1.74,1.7971,1.8282,0.0,0.0,0.0,0.0,0.0,0.0,0.0,0.0,0.0,0.0,0.0,0.0,0.0,0.0,0.0,0.0,0.0,3.5562,3.4787,3.3442,3.4715,3.4017,3.1203,3.3243,3.3889,3.2955,3.4605,3.4693,3.3389,3.4388,3.4285,0.0,0.0,0.0,3.2275,3.1819,3.1777,3.2018,3.2143,3.2201,3.2201,3.2201,3.2315,3.2487,0.0,0.0,0.0,0.0,0.0,0.0,0.0,0.0,0.0,0.0,0.0,0.0,0.0,0.0,0.0,0.0,0.0,0.0,0.0,0.0,2.1018,2.1291,2.1586,2.2135,2.2895,2.2904,2.294,2.2995,2.2695,2.2867,2.3489,2.2849,2.2632,2.2785,2.2089,2.1934,2.2172,2.1833,2.1888,2.2163,2.1824,0.0,0.0,0.0,0.0,0.0,0.0,0.0,0.0,1.6866,1.619,1.5865,1.5582,0.0,0.0,0.0,0.0,0.0,1.413,1.4412,1.4898,1.5763,1.575,1.5805,1.6887,1.6334,1.5926,1.7141,1.7556,1.7939,0.0,1.8667,0.0,0.0,0.0,0.0,0.0,0.0,0.0,0.0,0.0,0.0,0.0,0.0,0.0,0.0,0.0,0.0,0.0,3.5418,3.4849,3.3757,3.4787,3.4849,3.3704,3.4849,3.4962,3.4142,3.4993,3.4941,3.4142,3.4608,3.4567,0.0,0.0,0.0,3.2311,3.1787,3.1921,3.2373,3.2612,3.2669,3.2669,3.2669,3.2669,3.2669,0.0,0.0,0.0,0.0,0.0,0.0,0.0,0.0,0.0,0.0,0.0,0.0,0.0,0.0,0.0,0.0,0.0,0.0,0.0,2.1244,2.1751,2.208,2.2153,2.2419,2.2895,2.2904,2.3068,2.3407,2.3021,2.3067,2.348,2.3048,2.2674,2.2373,2.2245,2.2034,2.1778,2.1723,2.1733,2.1778,2.1714,0.0,0.0,0.0,0.0,0.0,0.0,0.0,0.0,1.7313,1.6729,1.6353,1.6091,0.0,0.0,0.0,0.0,0.0,1.397,1.4696,1.5431,1.6064,1.5997,1.5944,1.6627,1.6237,1.6244,0.0,0.0,0.0,0.0,2.2438,2.3823,0.0,0.0,0.0,0.0,0.0,0.0,0.0,0.0,0.0,0.0,0.0,0.0,0.0,0.0,0.0,0.0,3.5418,3.5294,3.5108,3.5294,3.5294,3.5108,3.5294,3.4962,3.4142,3.4993,3.4941,3.4142,3.4608,3.4567,0.0,0.0,3.3006,3.2602,3.2525,3.2545,3.2612,3.2669,3.2669,3.2669,3.2669,3.2669,3.2669,0.0,0.0,0.0,0.0,0.0,0.0,0.0,0.0,0.0,0.0,0.0,0.0,0.0,0.0,0.0,0.0,0.0,0.0,2.123,2.1996,2.2361,2.2162,2.2455,2.2712,2.2904,2.2904,2.2838,2.2708,2.2697,2.2603,2.2463,2.2423,2.25,2.2602,2.2163,2.198,2.1998,2.1778,2.1815,2.1989,0.0,0.0,0.0,0.0,0.0,0.0,0.0,0.0,0.0,0.0,1.7162,1.6883,1.6401,0.0,0.0,0.0,0.0,0.0,1.4929,1.5262,1.5976,1.7748,1.7128,1.6393,1.7622,1.6827,1.652,1.9124,0.0,0.0,0.0,0.0,0.0,0.0,0.0,0.0,0.0,0.0,0.0,0.0,0.0,0.0,0.0,0.0,0.0,0.0,0.0,0.0,0.0,0.0,3.5418,3.5418,3.5418,3.5418,3.5418,3.5418,3.4962,3.4142,3.4993,3.4941,3.4132,3.4349,3.4329,3.4059,0.0,3.2457,3.2638,3.2199,3.2292,3.2669,3.2669,3.2669,3.2669,3.2669,3.2669,3.2669,0.0,0.0,0.0,0.0,0.0,0.0,0.0,0.0,0.0,0.0,0.0,0.0,0.0,0.0,0.0,0.0,0.0,2.1038,2.1666,2.2476,2.27,2.2088,2.282,2.3142,2.305,2.2767,2.2518,2.2249,2.2418,2.2369,2.2102,2.22,2.2506,2.2876,2.2153,2.1952,2.2126,2.1824,2.187,2.2108,0.0,0.0,0.0,0.0,0.0,0.0,0.0,0.0,0.0,0.0,0.0,0.0,0.0,0.0,0.0,1.5418,1.5585,1.5918,1.5795,1.5823,1.6453,1.8839,1.796,1.6946,1.8878,1.7774,1.7211,2.0208,0.0,0.0,0.0,0.0,0.0,0.0,0.0,0.0,0.0,0.0,0.0,0.0,0.0,0.0,0.0,0.0,0.0,0.0,0.0,0.0,0.0,0.0,3.5418,3.5418,3.5418,3.5418,3.5418,3.5418,3.5066,3.4393,3.5086,3.5004,3.4287,3.4173,3.401,3.3824,3.2333,3.2085,3.2675,3.1981,3.2106,3.2669,3.2669,3.2669,3.2669,3.2669,3.2669,3.2669,0.0,0.0,0.0,0.0,0.0,0.0,0.0,0.0,0.0,0.0,0.0,0.0,0.0,0.0,0.0,0.0,2.0871,2.1256,2.1951,2.2413,2.2552,2.23,2.3446,2.3886,2.3462,2.2355,2.2171,2.3012,2.2688,2.2886,2.361,2.3241,2.2985,2.2885,2.2437,2.2053,2.1733,2.1705,2.1705,2.1696,2.1319,0.0,0.0,0.0,0.0,0.0,0.0,0.0,0.0,0.0,0.0,0.0,0.0,0.0,1.5841,1.577,1.546,1.5276,1.578,1.6162,1.6752,1.8078,1.7658,1.7601,2.0015,1.9205,1.8592,2.0818,0.0,0.0,0.0,0.0,0.0,0.0,0.0,0.0,0.0,0.0,0.0,0.0,0.0,0.0,0.0,0.0,0.0,0.0,0.0,0.0,0.0,0.0,0.0,3.5418,3.5418,3.5418,3.5418,3.5418,3.5387,3.5324,3.5387,3.5169,3.4754,3.4318,3.3834,3.3399,3.2861,3.2607,3.2727,3.2607,3.2607,3.2669,3.2669,3.2669,3.2669,3.2669,3.2669,3.2669,0.0,0.0,0.0,0.0,0.0,0.0,0.0,0.0,0.0,0.0,0.0,0.0,0.0,0.0,0.0,0.0,2.1103,2.1303,2.173,2.2254,2.2431,2.2125,2.2674,2.307,2.3123,2.3074,2.2961,2.2917,2.2323,2.2412,2.3122,2.2622,2.2297,2.2144,2.198,2.1687,2.1321,2.1577,2.1696,2.165,2.1273,2.0869,0.0,0.0,0.0,0.0,0.0,0.0,0.0,0.0,1.7943,1.7825,1.7477,1.7143,1.6821,1.6544,1.636,1.6303,1.6602,1.6768,1.7442,2.0039,1.9492,1.8832,2.0932,2.0284,2.0241,2.3537,2.3561,0.0,0.0,0.0,0.0,0.0,0.0,0.0,0.0,0.0,0.0,0.0,0.0,0.0,0.0,0.0,0.0,0.0,0.0,0.0,0.0,0.0,0.0,3.5418,3.5418,3.5418,3.5418,3.5148,3.5014,3.5014,3.5014,3.4921,3.4795,3.4038,3.3544,3.3348,3.2913,3.2669,3.2669,3.2669,3.2669,3.2669,3.2669,3.2669,3.2669,3.2669,3.2669,3.2669,0.0,0.0,0.0,0.0,0.0,0.0,0.0,0.0,0.0,0.0,0.0,0.0,0.0,0.0,0.0,0.0,2.0954,2.1046,2.1414,2.1926,2.211,2.1898,2.23,2.2547,2.2702,2.3305,2.3278,2.269,2.2289,2.2351,2.2801,2.2506,2.2224,2.2071,2.1934,2.1759,2.1493,2.1476,2.1495,2.1449,2.0952,2.0576,0.0,0.0,0.0,0.0,0.0,0.0,0.0,0.0,1.7579,1.766,1.7229,1.7193,1.7257,1.6991,1.6921,1.7015,1.7153,1.7307,1.8089,2.0835,2.0465,2.0056,2.258,2.1935,2.1779,2.4872,2.4739,2.4456,2.5844,0.0,0.0,0.0,0.0,0.0,0.0,0.0,0.0,0.0,0.0,0.0,0.0,0.0,0.0,0.0,0.0,0.0,0.0,0.0,0.0,0.0,3.4993,3.4993,3.4993,3.4693,3.4598,3.4598,3.4453,3.438,3.436,3.3668,3.3296,3.3161,3.2861,3.2669,3.2669,3.2669,3.2669,3.2669,3.2669,3.2669,3.2669,3.2669,3.2669,3.2669,0.0,0.0,0.0,0.0,0.0,0.0,0.0,0.0,2.0292,2.0292,2.0292,0.0,0.0,0.0,0.0,0.0,2.0473,2.051,2.0952,2.1378,2.1652,2.1714,2.2465,2.2693,2.2282,2.2822,2.2904,2.2479,2.2615,2.2841,2.3084,2.3084,2.3021,2.2867,2.2465,2.2282,2.2254,2.1456,2.1117,2.1034,2.0204,1.9893,1.9847,0.0,0.0,0.0,0.0,0.0,0.0,0.0,1.7551,1.6991,1.7376,1.7238,1.6927,1.6936,1.7069,1.7198,1.7243,1.7792,1.8674,1.9913,2.0159,2.113,2.5063,2.4356,2.3147,2.4191,2.5794,2.7251,2.8113,0.0,0.0,0.0,0.0,0.0,0.0,0.0,0.0,0.0,0.0,0.0,0.0,0.0,0.0,0.0,0.0,0.0,0.0,0.0,0.0,0.0,3.4132,3.4132,3.4132,3.4121,3.4062,3.4111,3.3596,3.3368,3.3379,3.3368,3.3141,3.2669,3.2669,3.2669,3.2669,3.2669,3.2669,3.2669,3.2669,3.2669,3.2669,3.2669,3.2669,3.2669,0.0,0.0,0.0,0.0,0.0,0.0,0.0,0.0,2.0292,2.0292,2.0292,0.0,0.0,0.0,0.0,0.0,0.0,0.0,2.0997,2.1311,2.1464,2.1482,2.1834,2.1998,2.187,2.2008,2.2169,2.2242,2.2158,2.1885,2.1437,2.2189,2.208,2.1257,2.2556,2.2538,2.1549,2.1847,2.1651,2.109,2.0228,2.0058,2.0264,0.0,0.0,0.0,0.0,0.0,0.0,0.0,0.0,0.0,1.799,1.7943,1.8076,1.8793,1.8352,1.7912,1.9161,1.9034,1.8941,2.0627,0.0,0.0,0.0,2.3898,0.0,0.0,2.7546,2.7992,2.7392,0.0,0.0,0.0,0.0,0.0,0.0,0.0,0.0,0.0,0.0,0.0,0.0,0.0,0.0,0.0,0.0,0.0,0.0,0.0,0.0,0.0,3.4132,3.4132,3.4132,3.3741,3.3586,3.3575,3.313,3.3078,3.3368,3.3058,3.2851,3.2669,3.2669,3.2669,3.2669,3.2669,3.2669,3.2669,3.2669,3.2669,3.2669,3.2669,3.2669,3.2669,0.0,0.0,0.0,0.0,0.0,0.0,0.0,0.0,2.0292,2.0292,2.0292,2.0337,0.0,0.0,0.0,0.0,0.0,0.0,2.115,2.1293,2.1446,2.1526,2.1651,2.1769,2.1925,2.1614,2.1544,2.1714,2.1762,2.1482,2.0857,2.2032,2.2203,2.1606,2.314,2.3229,2.2203,2.2511,2.2271,2.1662,2.0983,2.0934,2.1236,0.0,0.0,0.0,0.0,0.0,0.0,0.0,0.0,0.0,1.8164,1.8508,1.904,1.9323,1.9107,1.9042,2.028,2.0066,0.0,2.2285,2.2664,2.2682,2.3558,0.0,0.0,0.0,0.0,2.9316,0.0,0.0,0.0,0.0,0.0,0.0,0.0,0.0,0.0,0.0,0.0,0.0,0.0,0.0,0.0,0.0,0.0,0.0,0.0,0.0,0.0,0.0,3.3358,3.3417,3.3534,3.3254,3.312,3.312,3.2851,3.2871,3.311,3.2851,3.2669,3.2669,3.2669,3.2669,3.2669,3.2669,3.2669,3.2669,3.2669,3.2669,3.2669,3.2669,3.2669,3.2669,0.0,0.0,2.0292,2.0292,0.0,0.0,0.0,0.0,2.0292,2.0292,2.0337,2.0428,0.0,0.0,0.0,0.0,0.0,0.0,2.1302,2.1347,2.1428,2.1642,2.1723,2.1934,2.2327,2.1585,2.1145,2.1108,2.1376,2.1355,2.1004,2.2295,2.2943,2.3107,2.4045,2.4189,2.3682,2.3374,2.2924,2.2425,2.2034,2.2151,2.2441,2.1514,0.0,0.0,0.0,0.0,0.0,0.0,0.0,0.0,1.8191,1.8923,1.9664,1.9061,1.9534,2.031,2.0849,2.0931,2.1455,2.4079,2.3738,0.0,2.5612,2.6218,2.6819,2.8649,0.0,0.0,0.0,0.0,0.0,0.0,0.0,0.0,0.0,0.0,0.0,0.0,0.0,0.0,0.0,0.0,0.0,0.0,0.0,0.0,0.0,0.0,0.0,3.2315,3.2305,3.243,3.2669,3.2669,3.2669,0.0,3.2669,3.2669,3.2669,3.2669,3.2669,3.2669,3.2669,3.2669,3.2669,3.2669,3.2669,3.2669,3.2669,3.2669,3.2669,3.2669,3.2669,3.2669,0.0,0.0,2.0292,2.0292,0.0,0.0,0.0,0.0,0.0,2.0292,2.0473,0.0,0.0,0.0,0.0,0.0,0.0,0.0,2.0835,2.1006,2.1096,2.1132,2.1799,2.2346,2.2757,2.197,2.1438,2.1108,2.0534,2.0232,2.0207,2.1471,2.227,2.2683,2.414,2.4398,2.3773,2.3491,2.2911,2.2241,2.1812,2.19,2.219,2.1107,2.0835,0.0,0.0,0.0,0.0,0.0,0.0,0.0,1.9045,1.89,1.8964,2.0241,2.0398,2.0533,2.2053,2.1771,0.0,0.0,2.3129,2.4297,2.757,2.8065,2.807,0.0,0.0,0.0,0.0,0.0,0.0,0.0,0.0,0.0,0.0,0.0,0.0,0.0,0.0,0.0,0.0,0.0,0.0,0.0,0.0,0.0,0.0,0.0,0.0,3.2305,3.2305,3.243,3.2669,3.2669,3.2669,0.0,3.2669,3.2669,3.2669,3.2669,3.2669,3.2669,3.2669,3.2669,3.2669,3.2669,3.2669,3.2669,3.2669,3.2669,3.2669,3.2669,3.2669,3.2669,0.0,0.0,0.0,0.0,0.0,0.0,0.0,0.0,0.0,0.0,0.0,0.0,0.0,0.0,0.0,0.0,2.0826,2.0916,2.1024,2.1239,2.123,2.1076,2.1497,2.1714,2.1742,2.1138,2.0946,2.1165,2.0549,2.022,2.0263,2.1765,2.2824,2.358,2.4806,2.5043,2.4445,2.4236,2.373,2.3125,2.2777,2.2863,2.3034,2.2038,2.1586,2.1413,2.0516,0.0,0.0,0.0,0.0,0.0,0.0,0.0,1.9507,2.0076,2.0291,2.058,2.1616,0.0,0.0,2.3731,0.0,2.6994,2.8371,2.9105,0.0,0.0,0.0,0.0,0.0,0.0,0.0,0.0,0.0,0.0,0.0,0.0,0.0,0.0,0.0,0.0,0.0,0.0,0.0,0.0,0.0,0.0,0.0,3.1112,3.1334,3.1787,3.196,3.219,3.2498,3.2612,3.2669,3.2669,3.2669,3.2669,3.2669,3.2669,3.2669,3.2669,3.2669,3.2545,3.2359,3.2633,3.2545,3.2339,3.2339,3.2339,3.2339,3.2339,3.2339,3.237,0.0,0.0,0.0,0.0,0.0,0.0,0.0,0.0,0.0,0.0,0.0,0.0,0.0,0.0,2.088,0.0,0.0,0.0,2.1392,2.1571,2.1523,2.1293,2.1275,2.1156,2.0857,2.0517,2.0694,2.14,2.1081,2.1108,2.1457,2.2914,2.4061,2.496,2.5698,2.572,2.5179,2.4842,2.4459,2.4041,2.3816,2.3819,2.3878,2.3,2.2339,2.1829,2.1312,2.0642,2.0029,2.0027,0.0,0.0,0.0,0.0,2.0163,1.9421,1.9824,2.0552,2.0709,0.0,2.3566,2.5737,2.7696,0.0,2.8728,2.9575,0.0,0.0,0.0,0.0,0.0,0.0,0.0,0.0,0.0,0.0,0.0,0.0,0.0,0.0,0.0,0.0,0.0,0.0,0.0,0.0,0.0,0.0,3.0889,3.0889,3.0995,3.1267,3.1556,3.1845,3.219,3.243,3.2555,3.2555,3.2612,3.2669,3.2669,3.2669,3.2685,3.2556,3.2556,3.2297,3.1961,3.2344,3.2271,3.193,3.193,3.193,3.1884,3.1957,3.1936,3.1946,0.0,0.0,0.0,0.0,0.0,0.0,0.0,0.0,0.0,0.0,2.0952,2.0952,0.0,2.1195,2.1302,2.1347,2.1347,2.1347,2.1392,0.0,0.0,2.1889,2.2026,2.2208,2.2324,2.2138,2.2127,2.2227,2.2284,2.3123,2.4681,2.4927,2.5477,2.6346,2.6455,2.602,2.5158,2.4321,2.3808,2.3572,2.3362,2.3171,2.2941,2.2251,2.198,2.1779,2.0987,2.0615,2.0508,2.0429,2.0382,0.0,0.0,0.0,0.0,1.8916,1.9613,2.0488,2.0543,0.0,2.4158,0.0,2.6245,2.6564,0.0,0.0,0.0,0.0,0.0,0.0,0.0,0.0,0.0,0.0,0.0,0.0,0.0,0.0,0.0,0.0,0.0,0.0,0.0,0.0,0.0,0.0,0.0,0.0,3.0889,3.0889,3.0995,3.1267,3.1325,3.1556,3.1845,3.1903,3.1903,3.1903,3.2201,3.2487,3.2669,3.2669,3.2452,3.2081,3.2081,3.1878,3.1464,3.1536,3.1526,3.1464,3.1464,3.1464,3.1505,3.1899,3.1795,3.1588,0.0,0.0,0.0,0.0,0.0,0.0,0.0,0.0,0.0,0.0,0.0,2.0862,2.0997,2.1301,2.1489,2.1489,2.1626,2.1672,2.158,2.1571,2.1535,2.1515,2.1595,2.171,2.1796,2.1748,2.2102,2.285,2.293,2.4381,2.7129,2.7129,2.7147,2.7212,2.7824,2.7084,2.5347,2.5083,2.4415,2.3459,2.3235,2.3066,2.2948,2.255,2.248,2.2462,2.1719,2.1283,2.1086,2.0948,2.0731,2.0484,2.0057,0.0,0.0,0.0,1.9246,2.0131,2.1575,2.2282,2.3456,0.0,2.677,2.6554,0.0,0.0,0.0,0.0,0.0,0.0,0.0,0.0,0.0,0.0,0.0,0.0,0.0,0.0,0.0,0.0,0.0,0.0,0.0,0.0,0.0,0.0,0.0,3.0889,3.0889,3.0889,3.0947,3.1054,3.1218,3.1383,3.1498,3.173,3.1903,3.2076,3.2248,3.2297,3.2287,3.2287,3.2184,3.1988,3.1988,3.164,3.1008,3.1267,3.1226,3.0988,3.0988,3.0988,3.104,3.1495,3.1381,3.1153,0.0,0.0,0.0,0.0,0.0,0.0,0.0,0.0,0.0,0.0,0.0,2.1292,2.1509,0.0,0.0,0.0,2.2245,2.2262,2.1982,2.1909,2.1771,2.1544,2.1568,2.1601,2.1598,2.1748,2.2324,2.3285,2.3412,2.5086,2.8253,2.8466,2.8418,2.8197,2.889,2.8089,2.6274,2.6114,2.5255,2.4031,2.3736,2.3408,2.3016,2.2926,2.298,2.306,2.2544,2.212,2.18,0.0,2.1422,2.1094,0.0,0.0,0.0,0.0,0.0,0.0,0.0,0.0,2.246,2.6702,2.6319,2.5867,0.0,0.0,0.0,0.0,0.0,0.0,0.0,0.0,0.0,0.0,0.0,0.0,0.0,0.0,0.0,0.0,0.0,0.0,0.0,0.0,0.0,0.0,0.0,3.0889,3.0889,3.0889,3.0889,3.0889,3.1102,3.1218,3.1218,3.1331,3.1559,3.1913,3.1848,3.1794,3.1746,3.1746,3.1684,3.1515,3.1515,3.1127,3.0426,3.082,3.0714,3.0288,3.0458,3.0458,3.051,3.1029,3.0905,3.0688,0.0,0.0,0.0,0.0,0.0,0.0,0.0,0.0,0.0,0.0,0.0,2.2711,2.2938,2.3417,2.3594,2.3312,2.3393,2.322,2.2788,2.2485,2.2476,2.2677,2.2887,0.0,2.2736,2.3337,2.3607,2.3464,2.395,2.5204,2.7309,2.7973,2.8849,2.9762,2.9196,2.8727,2.8371,2.7051,2.6074,2.5462,2.5199,2.4169,2.2839,2.3006,2.3123,2.3185,2.309,2.2917,0.0,0.0,0.0,0.0,0.0,0.0,0.0,0.0,0.0,0.0,0.0,2.1051,0.0,2.3922,0.0,0.0,0.0,0.0,0.0,0.0,0.0,0.0,0.0,0.0,0.0,0.0,0.0,0.0,0.0,0.0,0.0,0.0,0.0,0.0,0.0,0.0,0.0,0.0,0.0,3.0889,3.0889,3.0889,3.0889,3.0889,3.0889,3.0947,3.0947,3.0507,3.0472,3.0777,3.063,3.0741,3.0986,3.0986,3.0687,3.0278,3.0278,3.0066,2.9647,2.9668,2.9499,2.9225,2.9815,2.9868,2.9751,3.0489,3.0429,3.016,0.0,0.0,0.0,0.0,0.0,0.0,0.0,0.0,0.0,0.0,0.0,0.0,0.0,2.3308,2.3522,2.3602,2.3491,2.3246,2.2832,2.2706,2.275,2.2969,2.3057,2.3232,2.345,2.3537,2.3721,2.3937,2.3937,2.4785,2.6383,2.6913,2.7834,2.9106,3.0663,2.9835,2.7333,2.8452,2.7041,2.4213,2.6158,2.5553,2.3564,2.4549,2.5058,2.5173,0.0,0.0,0.0,0.0,0.0,0.0,0.0,0.0,0.0,0.0,0.0,0.0,0.0,0.0,0.0,2.3364,0.0,0.0,0.0,0.0,0.0,0.0,0.0,0.0,0.0,0.0,0.0,0.0,0.0,0.0,0.0,0.0,0.0,0.0,0.0,0.0,0.0,0.0,0.0,0.0,0.0,0.0,3.084,2.9834,2.96,3.042,3.0449,3.0449,3.0449,3.001,2.9973,3.0264,3.0217,3.0153,3.0201,3.0201,2.9948,2.947,2.932,2.9229,2.929,2.929,2.9185,2.9132,2.9353,2.9343,2.9351,2.9913,2.9845,2.9568,0.0,0.0,0.0,2.2813,0.0,2.3311,2.3503,2.365,2.3728,2.3728,0.0,0.0,0.0,0.0,2.401,2.3871,2.3538,2.3225,2.3042,2.2925,2.3013,2.3309,2.3319,2.3484,2.3797,2.3667,2.3721,2.398,2.3807,2.4276,2.5398,2.5922,2.6801,2.8096,3.0166,2.9964,2.8137,2.9829,2.8605,2.5736,2.7249,2.6845,2.5376,2.5842,2.6111,0.0,0.0,0.0,0.0,0.0,0.0,0.0,0.0,0.0,0.0,0.0,0.0,0.0,2.0726,0.0,0.0,0.0,0.0,0.0,0.0,0.0,0.0,0.0,0.0,0.0,0.0,0.0,0.0,0.0,0.0,0.0,0.0,0.0,0.0,0.0,0.0,0.0,0.0,0.0,0.0,0.0,0.0,0.0,3.084,2.9639,2.9258,2.9961,2.999,2.999,2.999,2.956,2.9466,2.9632,2.9604,2.9496,2.9423,2.9423,2.9263,2.893,2.8674,2.8727,2.8983,2.8983,2.893,2.8867,2.9026,2.9026,2.9013,2.941,2.9383,2.9209,2.3626,2.3719,2.3858,2.4322,2.4424,2.4434,2.4434,2.4443,2.4453,2.4453,0.0,0.0,0.0,0.0,0.0,2.4282,2.3541,2.3242,2.3503,2.3276,2.3319,2.3797,2.3797,2.3797,2.3797,2.3797,2.3711,2.3503,2.3503,2.3797,2.4394,2.5115,2.592,2.6745,2.7502,2.899,3.0854,3.098,3.0629,2.9972,2.8593,2.8097,2.8054,2.6801,0.0,0.0,2.7984,2.7345,0.0,2.7705,0.0,0.0,0.0,0.0,0.0,0.0,0.0,0.0,0.0,0.0,0.0,0.0,0.0,0.0,0.0,0.0,0.0,0.0,0.0,0.0,0.0,0.0,0.0,0.0,0.0,0.0,0.0,0.0,0.0,0.0,0.0,0.0,0.0,0.0,0.0,0.0,0.0,3.083,3.0869,3.043,2.999,2.956,2.9597,2.9597,2.9551,2.9121,2.8896,2.8896,2.8765,2.8684,2.8684,2.8684,2.8684,2.8674,2.8398,2.8461,2.8684,2.8684,2.8514,2.8344,2.8867,2.893,2.8727,2.8983,2.9089,2.9099,2.4183,2.4229,2.4229,2.4368,2.4678,2.4893,2.4893,2.5166,2.5323,0.0,0.0,0.0,2.5145,2.5029,2.4706,2.3973,2.385,2.3742,2.3523,2.3406,2.3493,2.3797,2.3797,2.3797,2.3797,2.3677,2.3547,2.3503,2.3319,2.3306,2.3452,2.4036,2.4415,2.468,2.604,2.7091,2.7854,2.9727,2.8592,2.5958,2.9797,2.9134,0.0,0.0,0.0,0.0,0.0,2.8492,2.8104,0.0,2.7398,2.57,0.0,0.0,0.0,0.0,0.0,0.0,2.002,0.0,0.0,0.0,0.0,0.0,0.0,2.1684,0.0,0.0,0.0,0.0,0.0,0.0,0.0,0.0,0.0,0.0,0.0,0.0,0.0,0.0,0.0,0.0,0.0,0.0,0.0,0.0,2.9429,2.9368,3.0074,2.9867,2.9551,2.9111,2.8809,2.8789,2.9092,2.8682,2.8467,2.8467,2.8403,2.8398,2.8398,2.8398,2.8398,2.8408,2.8344,2.8344,2.8398,2.8398,2.8354,2.8291,2.8451,2.8451,2.8408,2.8504,2.8701,2.8957,2.4923,2.4923,2.4923,2.4923,2.5176,2.5352,2.5352,2.5566,2.5625,0.0,0.0,0.0,2.46,2.4601,2.4317,2.3574,2.3604,2.3585,2.3339,2.3319,2.3406,2.3493,2.3493,2.3493,2.3493,2.3406,2.3319,2.3319,2.3188,2.3091,2.3101,2.3398,2.3516,2.3555,2.4591,2.5123,2.5418,2.7649,2.7783,2.6723,2.9583,0.0,0.0,2.9864,2.9734,0.0,0.0,0.0,2.9507,3.0097,2.8798,0.0,0.0,0.0,0.0,0.0,0.0,0.0,0.0,0.0,0.0,0.0,0.0,0.0,2.0541,2.162,0.0,0.0,0.0,0.0,0.0,0.0,0.0,0.0,0.0,0.0,0.0,0.0,0.0,0.0,0.0,0.0,0.0,0.0,0.0,2.9986,2.94,2.9202,2.9434,2.9332,2.9101,2.8672,2.8418,2.8408,2.8662,2.8418,2.8291,2.8291,2.8291,2.8291,2.8291,2.8291,2.8291,2.8291,2.8291,2.8291,2.8291,2.8291,2.8291,2.8291,2.8291,2.8291,2.8291,2.8291,2.8447,2.8662,0.0,2.5693,2.5693,2.5693,2.5693,2.5693,2.5693,2.5645,2.5537,0.0,2.5145,2.4842,2.4082,2.4248,2.4111,2.3305,2.3198,2.3149,2.3101,2.3091,2.3091,2.3091,2.3091,2.3091,2.3091,2.3091,2.3091,2.3091,2.3091,2.3091,2.3091,2.3091,2.3091,2.3091,2.3363,2.3503,2.3616,2.527,2.7392,2.9664,2.8645,2.968,0.0,0.0,3.0309,3.0179,3.2019,3.1619,3.0387,3.1915,3.0627,0.0,0.0,0.0,0.0,0.0,2.2657,0.0,0.0,0.0,0.0,0.0,0.0,0.0,2.174,2.2246,2.2827,0.0,0.0,0.0,0.0,0.0,0.0,0.0,0.0,0.0,0.0,0.0,0.0,0.0,0.0,0.0,0.0,2.9834,3.0049,3.0002,3.0002,2.9651,2.8896,2.8896,2.873,2.8301,2.8291,2.8291,2.8291,2.8291,2.8291,2.8291,2.8291,2.8291,2.8291,2.8291,2.8291,2.8291,2.8291,2.8291,2.8291,2.8291,2.8291,2.8291,2.8291,2.8291,2.8291,2.8291,2.832,2.8359,2.5615,2.5693,2.5693,2.5693,2.5693,2.5693,2.5693,2.543,2.5293,2.5566,2.5293,2.5146,2.5284,2.4748,2.4346,2.4134,2.3857,2.3516,2.312,2.3091,2.3091,2.3091,2.3091,2.3091,2.3091,2.3091,2.3091,2.3091,2.3091,2.3091,2.3091,2.3091,2.3091,2.3091,2.3363,2.359,2.3774,2.4112,0.0,2.7107,2.9291,0.0,2.9677,3.1533,3.1186,2.9958,3.1952,3.2033,3.1102,3.0765,2.9776,2.8291,0.0,0.0,0.0,0.0,0.0,0.0,0.0,0.0,0.0,0.0,0.0,0.0,2.0279,2.0078,2.0436,0.0,0.0,0.0,0.0,0.0,0.0,0.0,0.0,0.0,0.0,0.0,0.0,0.0,0.0,0.0,0.0,2.9121,2.9069,2.8858,2.8802,2.8691,2.8437,2.874,2.873,2.8301,2.8291,2.8291,2.8291,2.8291,2.8291,2.8291,2.8291,2.8291,2.8291,2.8291,2.8291,2.8291,2.8291,2.8291,2.8291,2.8291,2.8291,2.8291,2.8291,2.8291,2.8291,2.8291,2.8506,2.875,2.5322,2.54,2.5478,2.5645,2.5693,2.5693,2.5693,2.5361,2.5194,2.5371,2.5019,2.4746,2.4766,2.4365,2.4014,2.3754,2.3584,2.3369,2.311,2.3091,2.3091,2.3091,2.3091,2.3198,2.3457,2.3208,2.3198,2.3467,2.3198,2.3091,2.3091,2.3091,2.3208,2.3447,2.3374,2.3511,2.381,2.359,2.4255,2.5701,2.8388,0.0,2.9752,3.1891,3.2045,3.1309,3.2339,3.2437,3.1853,3.0598,2.9977,0.0,0.0,2.6218,2.4911,0.0,2.2938,2.2425,0.0,0.0,0.0,2.1999,0.0,0.0,0.0,2.0564,2.0644,0.0,0.0,0.0,0.0,0.0,0.0,0.0,0.0,0.0,0.0,0.0,0.0,0.0,0.0,0.0,0.0,2.8916,2.8871,2.8717,2.8523,2.8363,2.8301,2.8496,2.8506,2.8301,2.8291,2.8291,2.8291,2.8291,2.8291,2.8291,2.8291,2.8291,2.8291,2.8291,2.8291,2.8291,2.8291,2.8291,2.8291,2.8291,2.8291,2.831,2.8525,2.8584,2.8534,2.876,2.8883,2.8941,2.4844,2.5057,2.5156,2.5391,2.5577,2.5635,2.546,2.5176,2.4959,2.4881,2.4658,2.4482,2.4307,2.4062,2.3906,2.3842,2.3608,2.3432,2.3344,2.3422,2.3354,2.311,2.3091,2.3257,2.3662,2.3276,2.331,2.3662,2.331,2.3091,2.3091,2.3013,2.3252,2.3633,2.3381,2.3617,2.4183,2.3995,0.0,2.5732,0.0,2.9065,2.9799,3.1865,3.2452,3.2194,3.2545,3.2555,3.2158,3.053,0.0,2.9962,2.9076,2.758,0.0,0.0,0.0,0.0,0.0,0.0,0.0,0.0,0.0,2.1369,0.0,0.0,0.0,0.0,0.0,0.0,0.0,0.0,0.0,0.0,0.0,0.0,0.0,0.0,0.0,0.0,0.0,0.0,0.0,2.8432,2.8657,2.8735,2.8501,2.8379,2.8301,2.8291,2.8291,2.8291,2.8291,2.8291,2.8291,2.8291,2.8291,2.8291,2.8291,2.8291,2.8291,2.8291,2.8291,2.8291,2.8291,2.8291,2.8291,2.8291,2.8344,2.8437,2.8726,2.8819,2.8724,2.9188,2.924,2.9079,2.4336,2.4805,2.4961,2.4629,2.5167,2.5421,2.4687,2.4521,2.4355,2.3984,2.4551,2.5321,2.6016,2.5049,2.4951,2.6445,2.5518,2.4687,2.4297,2.4629,2.4336,2.3149,2.3091,2.312,2.3169,2.312,2.312,2.3169,2.312,2.3091,2.3091,2.2754,2.2812,2.3213,2.3377,2.4286,2.5688,0.0,2.7126,0.0,2.9797,2.9116,0.0,3.1268,3.1723,3.0469,3.1856,3.196,3.1182,0.0,2.8539,2.7885,0.0,2.5752,2.4712,0.0,0.0,0.0,0.0,0.0,0.0,0.0,2.2969,0.0,0.0,0.0,0.0,0.0,0.0,0.0,0.0,0.0,0.0,0.0,0.0,0.0,0.0,0.0,0.0,0.0,0.0,0.0,0.0,0.0,2.7906,2.7999,2.8499,2.8682,2.831,2.8291,2.8291,2.8291,2.8291,2.8291,2.8291,2.8291,2.8291,2.8291,2.8291,2.8291,2.8291,2.8291,2.8291,2.8291,2.8291,2.8291,2.8291,2.8291,2.8461,2.8684,2.867,2.8724,2.8737,2.9033,2.9119,2.9079,2.3935,2.4199,2.4346,2.4404,2.468,2.4797,2.4473,2.4629,2.4551,2.3877,2.4316,2.5029,2.5908,2.5283,2.5391,2.6885,0.0,2.6123,0.0,0.0,2.4824,2.4287,2.3535,2.3218,2.3516,2.3227,2.3101,2.3154,2.29,2.273,2.2773,2.2598,2.2871,2.3506,2.3481,0.0,2.5617,0.0,2.6672,0.0,0.0,0.0,0.0,3.0601,3.1349,3.0357,3.0681,3.0963,3.0867,0.0,2.89,0.0,0.0,0.0,0.0,0.0,0.0,0.0,0.0,0.0,0.0,0.0,0.0,0.0,0.0,0.0,2.1562,0.0,0.0,0.0,0.0,0.0,0.0,0.0,0.0,0.0,0.0,0.0,0.0,0.0,0.0,0.0,0.0,0.0,0.0,0.0,0.0,2.726,2.7197,2.7891,2.8291,2.8291,2.8291,2.8291,2.8291,2.8291,2.8291,2.8291,2.8291,2.8291,2.8291,2.8291,2.8398,2.8514,2.8514,2.8514,2.8568,2.8717,2.8717,2.8737,2.9089,2.9248,2.9278,2.9594,2.9682,2.9617,2.3525,2.3711,2.3848,2.4033,2.4258,2.4375,2.4258,2.4717,2.4891,2.4219,2.4512,2.5156,2.6162,2.5547,0.0,0.0,2.75,2.7412,0.0,0.0,2.5596,0.0,0.0,0.0,0.0,2.3477,2.3101,2.3154,2.2842,2.2643,2.2643,2.2568,2.291,2.3603,2.3683,2.4439,2.5727,0.0,2.6962,2.7793,2.8655,2.8239,2.7367,2.9756,3.0549,3.0319,3.0097,3.0289,3.0342,2.8041,2.8721,0.0,2.7764,0.0,0.0,0.0,0.0,0.0,2.4873,0.0,0.0,0.0,0.0,0.0,0.0,0.0,0.0,0.0,0.0,0.0,0.0,0.0,0.0,0.0,0.0,0.0,0.0,0.0,0.0,0.0,0.0,0.0,0.0,0.0,0.0,0.0,0.0,0.0,2.6396,2.7598,2.8291,2.8291,2.8291,2.8291,2.8291,2.8291,2.8291,2.8291,2.8291,2.8291,2.8291,2.8398,2.8514,2.8684,2.8684,2.8743,2.8906,2.898,2.9,2.9056,2.9447,2.9659,2.9763,3.0048,3.0072,2.9994,2.3033,2.3496,2.3662,2.3208,2.3822,2.4277,2.3867,2.4531,2.5106,2.5077,0.0,0.0,0.0,0.0,0.0,0.0,0.0,2.8418,2.8828,0.0,2.6953,0.0,0.0,2.373,0.0,0.0,2.3091,2.3091,2.3081,2.3071,2.3062,2.2705,2.2701,2.313,2.3861,2.4996,2.6486,2.8251,2.9353,3.0038,3.071,3.0304,2.9212,0.0,2.8991,3.0082,3.0349,0.0,0.0,2.7598,2.707,0.0,0.0,0.0,0.0,0.0,0.0,0.0,0.0,0.0,0.0,2.54,0.0,0.0,0.0,0.0,2.3051,0.0,0.0,0.0,0.0,0.0,0.0,0.0,0.0,0.0,0.0,0.0,0.0,0.0,0.0,0.0,0.0,0.0,0.0,0.0,0.0,0.0,2.6416,2.7598,2.8291,2.8291,2.8291,2.8291,2.8291,2.8291,2.8291,2.8291,2.8291,2.8291,2.8291,2.8568,2.8674,2.8684,2.8684,2.8975,2.9342,2.8916,2.9136,2.9735,2.9621,2.9774,2.9994,3.0015,3.0005,2.9994,2.4178,2.4158,2.4035,2.3251,2.3335,2.3481,2.3379,2.3848,2.4707,0.0,0.0,0.0,0.0,2.9783,2.9913,0.0,0.0,3.0976,3.0273,2.9268,0.0,0.0,0.0,2.5508,0.0,0.0,0.0,2.2682,2.2682,2.2682,2.2682,2.2578,2.2691,2.311,2.3683,2.4692,0.0,0.0,0.0,0.0,0.0,2.9183,2.8648,0.0,0.0,2.8878,2.9108,2.9435,0.0,2.799,2.8262,2.9029,2.7819,2.7246,2.7207,2.8203,2.7285,0.0,0.0,0.0,2.7051,2.7168,0.0,0.0,0.0,0.0,0.0,0.0,0.0,0.0,0.0,0.0,0.0,0.0,0.0,0.0,0.0,0.0,0.0,0.0,0.0,0.0,0.0,0.0,0.0,0.0,0.0,0.0,0.0,2.6054,2.7225,2.7225,2.7957,2.8291,2.8291,2.8291,2.8291,2.8291,2.8291,2.8398,2.8568,2.8674,2.894,2.93,2.93,2.9381,2.9513,2.953,2.9603,2.9662,2.9836,2.9942,2.9994,2.9994,2.9994,2.9994,2.478,2.4498,2.4327,2.3691,2.3743,2.3953,2.4351,0.0,0.0,0.0,2.8685,0.0,3.1799,0.0,3.2241,0.0,3.2505,3.2555,3.1949,3.0221,0.0,3.0152,2.7986,0.0,0.0,0.0,0.0,0.0,0.0,2.3125,2.3408,2.2949,2.2803,2.2896,2.3525,2.43,2.516,0.0,2.7506,0.0,0.0,2.8483,0.0,0.0,2.851,2.8858,0.0,2.9242,2.9581,2.87,2.9229,2.9998,2.8622,2.8196,2.8252,2.8589,2.7832,2.7051,2.7891,2.8018,0.0,2.8047,2.7236,0.0,2.6738,0.0,0.0,0.0,0.0,0.0,0.0,0.0,0.0,0.0,0.0,0.0,0.0,1.8909,0.0,0.0,0.0,0.0,0.0,0.0,0.0,2.0308,2.138,0.0,0.0,0.0,2.6626,2.6675,2.7731,2.8291,2.8291,2.8291,2.8354,2.8461,2.8461,2.8568,2.8834,2.8993,2.9248,2.9606,2.9606,2.9698,2.9841,2.9846,2.9814,2.9841,2.9951,2.9994,2.9994,2.9994,2.9994,2.9994,2.4771,2.4584,2.4584,0.0,2.4966,0.0,0.0,0.0,2.93,0.0,3.1558,3.2131,3.3538,3.3419,3.3281,3.3295,3.3035,0.0,3.375,3.0606,0.0,0.0,2.887,2.8003,3.0713,0.0,0.0,0.0,0.0,2.4359,2.5218,2.3785,2.2877,2.2549,2.3389,0.0,2.415,2.5823,2.695,2.7607,2.7741,2.8337,2.8989,2.7817,2.8398,2.9799,2.9611,2.9606,2.9606,2.9606,2.9774,2.9942,2.929,2.9132,2.9026,2.8504,2.8628,2.8941,2.8941,2.9245,2.9274,2.808,0.0,0.0,0.0,0.0,2.6885,0.0,0.0,0.0,0.0,0.0,0.0,0.0,0.0,0.0,0.0,0.0,0.0,0.0,0.0,0.0,0.0,0.0,2.0816,1.9744,2.0644,2.171,0.0,0.0,2.6349,2.6715,2.7675,2.8237,2.8344,2.8359,2.8518,2.8781,2.8781,2.893,2.9227,2.9544,2.9711,2.9711,2.9764,2.9958,3.023,2.9843,2.9862,3.0176,3.0065,2.9994,2.9994,2.9994,2.9994,2.9994,2.5807,2.5549,2.5549,0.0,2.5982,2.6416,0.0,0.0,0.0,0.0,3.2538,3.3717,3.5022,3.6302,3.6351,3.4551,3.4531,0.0,0.0,0.0,0.0,3.499,3.2861,3.1746,3.2095,3.0412,0.0,2.9554,0.0,0.0,2.6985,2.4325,2.2877,2.2539,0.0,0.0,2.4496,2.5343,2.6458,2.7607,2.7741,2.8337,0.0,0.0,2.9516,3.0348,2.9283,2.9343,2.9827,2.9396,2.9711,3.0193,2.9659,2.9617,2.9732,2.9617,2.9646,2.9737,2.9737,2.95,2.9259,2.9259,2.8511,2.7709,0.0,0.0,0.0,0.0,0.0,0.0,0.0,0.0,0.0,0.0,0.0,0.0,0.0,0.0,0.0,0.0,0.0,0.0,0.0,0.0,1.9956,1.9216,2.0159,2.1367,0.0,0.0,0.0,2.6942,2.6584,2.7152,2.891,2.9024,2.9463,3.0172,3.0172,3.0338,3.0671,3.0722,3.0877,3.1124,3.1931,3.1856,3.1245,3.1127,3.0704,3.0054,2.9983,2.9994,2.9994,2.9994,2.9994,2.9994,2.6747,2.6635,0.0,2.6811,0.0,0.0,2.8253,0.0,0.0,3.3333,3.4898,0.0,3.7434,3.9204,3.9253,3.6878,3.6686,0.0,3.5521,0.0,0.0,3.7393,3.5942,3.5013,3.4941,3.3346,0.0,3.2189,0.0,0.0,2.8329,2.5522,2.3646,2.2719,0.0,2.342,0.0,2.5307,2.6705,2.7705,2.8006,0.0,0.0,2.9096,2.958,3.0293,2.954,2.9659,3.0141,2.9764,3.0078,3.0505,2.9931,2.9879,2.9942,2.9669,2.976,2.9872,2.9668,2.9591,2.9584,2.9494,2.9056,2.8612,2.874,2.9196,2.9373,0.0,0.0,0.0,0.0,0.0,0.0,0.0,0.0,0.0,0.0,0.0,0.0,0.0,0.0,0.0,0.0,0.0,1.9783,1.9399,1.9848,0.0,0.0,0.0,0.0,2.629,2.6334,2.6986,2.8491,2.8418,2.8998,3.0317,3.0216,3.0846,3.2044,3.1586,3.1728,3.2336,3.2951,3.2851,3.2286,3.2286,3.1942,3.1351,3.0888,3.1032,3.1524,3.1032,3.0484,2.9994,2.7525,0.0,0.0,0.0,0.0,0.0,0.0,3.2402,0.0,3.5706,0.0,3.8883,3.9721,4.1136,4.1277,3.9436,0.0,3.8365,3.8458,3.6625,3.6849,3.9703,3.819,3.7582,3.8222,3.6308,0.0,0.0,0.0,2.9289,2.9775,2.6787,2.4567,2.3149,0.0,0.0,0.0,2.5906,2.7675,0.0,2.894,2.9623,3.0316,2.9558,2.9779,3.0484,3.0484,3.0432,3.0339,3.0339,3.0505,3.0672,3.0203,3.0099,2.9994,2.9501,2.9617,2.985,2.9444,2.9723,3.0033,2.9381,2.9448,2.9709,2.998,3.0979,3.1841,3.2019,3.2492,3.2892,0.0,0.0,0.0,0.0,0.0,0.0,0.0,0.0,0.0,0.0,0.0,0.0,0.0,0.0,0.0,0.0,0.0,0.0,0.0,0.0,0.0,2.5647,2.6609,0.0,2.8316,0.0,2.8657,3.0553,3.0209,3.1216,3.34,3.2437,3.2538,3.34,3.3549,3.3549,3.34,3.34,3.335,3.3139,3.2275,3.2605,3.3552,3.2605,3.1432,3.0245,0.0,0.0,0.0,0.0,0.0,3.3075,3.3935,3.5382,3.616,3.5402,3.7524,3.8998,3.8815,3.9178,3.979,4.0667,3.8444,0.0,0.0,0.0,0.0,4.2078,3.935,3.8446,4.0117,3.8798,3.8153,0.0,3.2851,3.1009,3.2461,2.6843,2.4168,0.0,0.0,0.0,2.6621,2.8137,0.0,3.166,3.1769,3.2067,3.2445,3.2662,3.2933,3.3231,3.3231,3.1858,3.0047,3.0047,3.0245,3.0453,3.0339,3.0453,3.062,3.0516,3.0569,3.0621,3.0537,3.0255,2.9982,2.9847,2.9889,2.9795,2.9391,3.0662,3.1753,3.1395,3.2245,3.3156,3.3536,0.0,0.0,0.0,0.0,0.0,0.0,0.0,0.0,0.0,0.0,0.0,0.0,0.0,0.0,0.0,0.0,0.0,0.0,0.0,0.0,0.0,2.7203,0.0,0.0,0.0,3.2317,3.457,3.3315,3.3351,3.4532,3.4325,3.4325,3.4581,3.5475,3.5319,3.4532,3.4532,3.4117,3.3502,3.3528,3.3616,3.3813,3.3616,3.2744,3.1626,0.0,0.0,0.0,0.0,0.0,0.0,0.0,3.7994,0.0,3.8074,3.9243,4.0348,4.076,4.1422,4.1907,4.2037,4.0792,4.0449,4.1613,4.019,4.0616,4.3691,4.2273,0.0,4.1415,4.0869,3.9815,3.831,3.4118,3.2193,3.2374,2.7775,2.5321,2.4814,0.0,2.6005,0.0,0.0,0.0,3.2183,3.2799,3.3154,3.3324,3.3644,3.3813,3.3911,3.3911,3.307,3.1909,3.1278,3.064,3.0193,3.0193,3.064,3.1105,3.0568,3.0754,3.1105,3.0568,3.0308,3.0193,3.0047,3.0495,3.1002,3.0856,3.1847,3.2982,3.3665,3.3763,3.3539,3.293,3.2405,0.0,0.0,0.0,0.0,0.0,0.0,0.0,0.0,0.0,0.0,0.0,0.0,0.0,0.0,0.0,0.0,0.0,0.0,0.0,0.0,0.0,0.0,0.0,0.0,0.0,3.4855,3.3922,3.4257,3.575,3.5114,3.5126,3.5667,3.6168,3.6156,3.5798,3.5941,3.5738,3.5378,3.4921,3.5162,3.5701,3.5137,3.4557,3.3923,0.0,3.3326,0.0,0.0,3.4413,0.0,3.7306,4.0051,4.1638,4.0564,4.0836,4.1545,4.2675,4.3346,4.3504,4.2971,4.2802,4.2731,4.2565,4.2498,4.299,4.4276,4.4203,4.358,4.2383,4.2292,4.108,0.0,3.5628,3.3563,0.0,2.9328,0.0,0.0,0.0,0.0,0.0,0.0,3.2078,3.2913,3.3872,3.4338,3.4435,3.4606,3.4703,3.4751,3.4751,3.4557,3.4156,3.3193,3.192,3.0795,3.0795,3.1289,3.1779,3.095,3.1135,3.1432,3.0588,3.0339,3.0339,3.0391,3.1197,3.2156,3.2616,3.3441,3.4472,3.5916,3.5618,3.4642,3.3143,3.3924,0.0,0.0,0.0,0.0,0.0,0.0,0.0,0.0,0.0,0.0,0.0,0.0,0.0,0.0,0.0,2.2026,2.4038,2.4573,0.0,0.0,0.0,3.0109,3.2407,0.0,3.3059,0.0,3.4234,3.4872,3.6662,3.5607,3.5619,3.6452,3.6452,3.6581,3.6815,3.7062,3.7214,3.7108,3.632,3.6662,3.7505,3.6637,3.6128,3.5771,0.0,0.0,0.0,0.0,0.0,0.0,0.0,4.1096,4.1106,4.0624,4.0892,4.1501,4.2407,4.1347,4.122,4.2876,4.2394,4.1836,4.1477,4.096,4.1395,4.3088,4.269,4.2585,4.2905,4.271,4.2022,0.0,0.0,3.5827,0.0,0.0,0.0,0.0,0.0,0.0,0.0,3.2919,3.4348,3.6229,3.6377,3.6709,3.7155,3.7155,3.7307,3.7551,3.7551,3.6743,3.5676,3.5581,3.4509,3.3254,3.3254,3.3178,3.3051,3.2951,3.2297,3.1586,3.1483,3.0733,3.0339,3.1524,3.192,3.2314,3.3479,3.4739,3.5724,3.5879,3.679,3.7198,3.5964,3.5925,3.5319,0.0,0.0,0.0,0.0,0.0,0.0,0.0,0.0,0.0,0.0,0.0,0.0,0.0,0.0,2.3214,2.5395,2.527,2.6377,2.9073,0.0,3.1217,3.3518,3.3742,3.5089,3.7543,3.5978,3.5734,3.6675,3.6405,3.6392,3.6675,3.6675,3.6815,3.7062,3.7353,3.7459,3.7459,3.7611,3.7749,3.7854,3.7749,3.6943,3.6081,0.0,0.0,0.0,0.0,0.0,0.0,0.0,4.236,4.271,4.2338,4.2193,4.2696,4.4175,4.3427,4.3161,4.3936,4.349,4.3033,4.2872,4.2654,4.281,4.3491,4.3358,4.2997,4.2512,4.2434,4.1667,0.0,0.0,0.0,0.0,0.0,0.0,0.0,0.0,3.336,3.3962,3.4956,3.5871,3.6722,3.7062,3.7307,3.7505,3.7657,3.7808,3.79,3.79,3.7551,3.7095,3.6896,3.5414,3.3601,3.3601,3.3871,3.403,3.34,3.3487,3.3624,3.2967,3.2555,3.2493,3.2982,3.3639,3.4289,3.4945,3.539,3.5951,3.6896,3.7551,3.7768,3.7283,3.7479,3.7226,0.0,0.0,0.0,0.0,0.0,0.0,0.0,0.0,0.0,0.0,0.0,0.0,0.0,0.0,0.0,2.6027,2.6918,2.8466,3.0857,0.0,3.3178,3.5961,3.543,3.6056,3.7888,3.7064,3.6823,3.7168,3.6922,3.6875,3.6956,3.7108,3.7261,3.7353,3.7611,3.7749,3.7749,3.7854,3.79,3.79,3.79,3.7551,3.7188,4.0581,0.0,3.9189,0.0,4.0425,4.1068,4.1745,4.3025,4.367,4.3093,4.3399,4.3954,4.4813,4.4452,4.4122,4.3972,4.4079,4.3784,4.2951,4.3528,4.3746,4.3413,4.3554,0.0,4.2195,4.1963,4.1159,3.9804,3.7712,0.0,0.0,0.0,0.0,0.0,3.4816,3.5244,3.5344,3.6392,3.6862,3.6968,3.7353,3.7551,3.7657,3.7854,3.79,3.79,3.79,3.79,3.7854,3.7598,3.6213,3.4642,3.4545,3.4848,3.5126,3.4422,3.4678,3.5066,3.435,3.4021,3.4009,3.44,3.5053,3.5761,3.6342,3.6355,3.6521,3.7657,3.79,3.79,3.79,3.8214,3.8031,3.6711,0.0,0.0,0.0,0.0,0.0,0.0,0.0,3.1444,3.2359,0.0,0.0,0.0,0.0,0.0,0.0,2.8006,0.0,0.0,0.0,0.0,0.0,3.5703,3.6233,3.79,3.7611,3.7505,3.7505,3.7307,3.7214,3.7214,3.7505,3.7611,3.7611,3.7808,3.79,3.79,3.79,3.79,3.79,3.79,3.79,3.79,4.2569,4.278,4.2911,4.2979,4.2936,4.2585,4.1505,4.2735,4.3401,4.2363,4.4091,4.4948,4.3597,4.3111,4.2731,4.2202,4.372,4.3489,4.0632,4.2631,4.34,0.0,0.0,4.2759,4.2182,4.1357,4.0758,4.0466,0.0,0.0,3.7571,0.0,3.6546,3.5545,3.7478,3.7736,3.6696,3.6956,3.7261,3.7505,3.7505,3.7657,3.79,3.79,3.79,3.79,3.79,3.79,3.7854,3.7598,3.7307,3.7015,3.6769,3.6534,3.6405,3.6628,3.5953,3.5223,3.5439,3.4727,3.4205,3.5533,3.5879,3.6223,3.7551,3.7854,3.7854,3.79,3.79,3.79,3.79,3.7913,3.7351,3.56,0.0,0.0,0.0,0.0,0.0,0.0,3.0699,2.998,3.1641,0.0,0.0,0.0,0.0,0.0,0.0,0.0,0.0,3.0934,2.9915,0.0,3.3613,3.4162,3.5587,3.79,3.7611,3.7505,3.7505,3.7505,3.7505,3.7505,3.7762,3.79,3.79,3.79,3.79,3.79,3.79,3.79,3.79,3.79,3.79,3.79,4.0797,4.1886,4.2735,4.1995,4.2472,4.2986,4.3011,4.3463,4.3677,4.3325,4.389,4.4048,4.3242,4.3676,4.3819,0.0,4.3076,4.2789,0.0,4.2507,4.2709,4.2722,4.2166,4.1433,4.0498,4.0244,3.9637,3.8792,0.0,0.0,0.0,3.741,3.7412,3.7801,3.7855,3.7648,3.734,3.7381,3.7413,3.7505,3.7703,3.7808,3.79,3.79,3.79,3.79,3.79,3.79,3.7854,3.7598,3.7459,3.7307,3.7062,3.6815,3.6628,3.6909,3.6875,3.6781,3.6862,3.6756,3.6756,3.7142,3.7248,3.74,3.7808,3.79,3.79,3.79,3.79,3.79,3.79,3.79,3.7586,3.6619,3.7116,0.0,0.0,0.0,0.0,0.0,3.3284,3.2698,0.0,3.2371,0.0,0.0,0.0,0.0,0.0,0.0,0.0,0.0,3.3927,0.0,3.6515,3.5887,3.6345,3.79,3.7808,3.7762,3.7762,3.7762,3.7762,3.7762,3.7854,3.79,3.79,3.79,3.79,3.79,3.79,3.79,3.79,3.79,3.79,3.79,4.1065,4.2032,4.276,4.207,4.2522,4.2961,4.2886,4.3401,4.3576,4.2961,4.3601,4.3815,4.3062,4.3777,0.0,4.3539,4.2861,4.2665,4.2949,4.2715,4.2577,4.266,4.1819,4.0862,4.0023,0.0,0.0,3.8642,3.8642,3.8642,3.863,3.8291,3.8391,3.8894,3.8424,3.8026,3.7703,3.7784,3.7759,3.7657,3.7854,3.79,3.79,3.79,3.79,3.79,3.79,3.79,3.7854,3.7598,3.7505,3.7459,3.7307,3.7155,3.7015,3.7201,3.7366,3.7505,3.7611,3.7762,3.79,3.79,3.79,3.79,3.79,3.79,3.79,3.79,3.79,3.79,3.79,3.79,3.7782,3.7403,3.7652,3.7769,3.739,0.0,0.0,0.0,0.0,0.0,0.0,3.4236,0.0,0.0,0.0,0.0,0.0,0.0,0.0,3.4607,3.4986,0.0,3.7207,3.6488,3.6711,3.79,3.79,3.79,3.79,3.79,3.79,3.79,3.79,3.79,3.79,3.79,3.79,3.79,3.79,3.79,3.79,3.79,3.79,3.79,4.2773,4.2873,0.0,0.0,4.2924,0.0,4.1614,4.2811,4.325,4.1664,4.33,4.4166,4.3087,4.3438,4.3539,4.3024,0.0,0.0,0.0,4.2949,4.274,4.2238,4.1593,4.1003,4.0413,3.9898,3.9647,3.9697,3.9697,3.9697,3.9749,3.9749,3.9472,3.9032,3.9171,3.8798,3.8018,3.8217,3.8176,3.79,3.79,3.79,3.79,3.79,3.79,3.79,3.79,3.79,3.7854,3.7611,3.7505,3.7505,3.7505,3.7505,3.7505,3.7505,3.7505,3.7564,3.7854,3.79,3.79,3.79,3.79,3.79,3.79,3.79,3.79,3.79,3.79,3.79,3.79,3.79,3.79,3.79,3.79,3.7874,3.7795,0.0,0.0,0.0,0.0,0.0,0.0,3.543,3.5639,0.0,0.0,0.0,0.0,0.0,3.1535,3.3822,3.3888,3.4646,3.6214,3.6227,3.6789,3.79,3.79,3.79,3.79,3.79,3.79,3.79,3.79,3.79,3.79,3.79,3.79,3.79,3.79,3.79,3.79,3.79,3.79,3.79,0.0,0.0,4.271,4.1869,4.2421,4.3037,4.32,4.3551,4.3664,4.3263,4.3664,4.374,4.3049,4.3087,4.3124,4.2986,4.2652,4.2577,4.2949,4.264,4.2351,4.2213,4.1229,4.0262,3.9283,3.9132,3.927,3.9697,3.9697,3.9788,4.0032,4.0032,4.0071,4.0083,3.9888,3.9458,3.8871,3.867,3.835,3.79,3.79,3.79,3.79,3.79,3.79,3.79,3.79,3.79,3.79,3.7854,3.7808,3.7808,3.7808,3.7808,3.7808,3.7808,3.7808,3.7808,3.79,3.79,3.79,3.79,3.79,3.79,3.79,3.79,3.79,3.79,3.79,3.79,3.79,3.79,3.79,3.79,3.79,3.7541,3.6449,3.6204,0.0,0.0,3.4942,3.5526,3.5682,3.6661,3.6789,0.0,0.0,0.0,0.0,3.4593,3.4933,3.6828,3.6881,3.7077,3.7469,3.7482,3.7625,3.79,3.79,3.79,3.79,3.79,3.79,3.79,3.79,3.79,3.79,3.79,3.79,3.79,3.79,3.79,3.79,3.79,3.79,3.79,4.1317,4.2158,4.2785,4.2195,4.2585,4.3074,4.3376,4.3426,4.3426,4.3426,4.3426,4.3313,4.3011,4.2974,4.2974,4.2974,4.2698,4.2715,4.2961,4.2514,4.2099,4.1794,4.0965,4.0124,3.927,3.9245,3.9396,3.9697,3.9697,3.9788,3.9929,4.0032,4.0185,4.0326,4.0284,3.9829,3.9175,3.9008,3.8551,3.79,3.79,3.79,3.79,3.79,3.79,3.79,3.79,3.79,3.79,3.79,3.79,3.79,3.79,3.79,3.79,3.79,3.79,3.79,3.79,3.79,3.79,3.79,3.79,3.79,3.79,3.79,3.79,3.79,3.79,3.79,3.79,3.79,3.79,3.79,3.7442,3.681,3.6025,3.5566,0.0,3.4908,3.56,3.6275,3.6701,3.743,3.7508,3.6567,0.0,0.0,3.6449,3.573,3.6096,3.7848,3.79,3.79,3.79,3.79,3.79,3.79,3.79,3.79,3.79,3.79,3.79,3.79,3.79,3.79,3.79,3.79,3.79,3.79,3.79,3.79,3.79,3.79,3.8057,3.824,4.2974,4.2974,4.2974,4.2974,4.2974,4.2974,4.2974,4.2974,4.2974,4.2974,4.2974,4.2974,4.2974,4.2974,4.2974,4.2974,4.2974,4.2974,4.2974,4.2514,4.1907,4.1313,4.0814,4.0262,3.9697,3.9697,3.9697,3.9697,3.9697,3.9736,3.9852,4.0032,4.0185,4.0275,4.0504,4.0126,3.9249,3.9249,3.8743,3.79,3.79,3.79,3.79,3.79,3.79,3.79,3.79,3.79,3.79,3.79,3.79,3.79,3.79,3.79,3.79,3.79,3.79,3.79,3.79,3.79,3.7952,3.8122,3.8096,3.8031,3.8031,3.8096,3.8135,3.8044,3.8096,3.8135,3.8044,3.8031,3.7939,3.7678,3.6776,3.6044,3.5831,0.0,3.5012,3.5948,3.6222,3.6776,3.7808,3.79,3.79,3.79,3.6528,3.6345,3.7821,3.6502,3.6371,3.7861,3.79,3.79,3.79,3.79,3.79,3.79,3.79,3.7952,3.8031,3.8031,3.807,3.8161,3.807,3.8031,3.8018,3.7939,3.79,3.79,3.79,3.7952,3.8031,3.8031,3.837,3.8776,4.2974,4.2974,4.2974,4.2974,4.2974,4.2974,4.2974,4.2974,4.2974,4.2974,4.2974,4.2974,4.2974,4.2974,4.2974,4.2974,4.2974,4.2974,4.2974,4.2514,4.1907,4.1313,4.0814,4.0262,3.9697,3.9697,3.9697,3.9697,3.9697,3.9942,4.0351,4.0402,4.0656,4.111,4.1161,4.0585,3.9564,3.9564,3.8898,3.79,3.79,3.79,3.79,3.79,3.79,3.79,3.79,3.79,3.79,3.79,3.79,3.79,3.79,3.79,3.79,3.79,3.79,3.79,3.79,3.79,3.8135,3.9102,3.8958,3.8593,3.8593,3.8985,3.9194,3.8697,3.8985,3.9194,3.8671,3.8593,3.8096,3.6619,3.6227,3.5683,3.4562,0.0,3.5826,3.5833,3.6921,3.7691,3.7887,3.79,3.79,3.79,3.7652,3.7612,3.7887,3.7639,3.7625,3.79,3.79,3.79,3.79,3.79,3.79,3.79,3.79,3.8148,3.8593,3.8593,3.8867,3.9311,3.8815,3.8593,3.8553,3.8096,3.79,3.79,3.79,3.8187,3.8593,3.8593,3.8958,3.9455,4.2974,4.2974,4.2974,4.2974,4.2974,4.2974,4.2974,4.2974,4.2974,4.2974,4.2974,4.2974,4.2974,4.2974,4.2974,4.2974,4.2974,4.2974,4.2974,4.2514,4.1907,4.1313,4.0814,4.0262,3.9697,3.9697,3.9697,3.9697,3.9839,4.0032,4.0287,4.0593,4.0846,4.1097,4.1261,4.0684,3.9612,3.9612,3.8945,3.79,3.79,3.79,3.79,3.79,3.79,3.7939,3.824,3.8161,3.7952,3.824,3.8148,3.79,3.79,3.79,3.7965,3.8253,3.8331,3.8331,3.8331,3.8579,3.8945,3.9481,3.9403,3.9194,3.9194,3.9416,3.9534,3.9246,3.9416,3.9429,3.8815,3.871,3.8344,3.726,3.6528,0.0,0.0,3.5726,3.6066,3.5978,3.7123,3.79,3.79,3.79,3.79,3.79,3.79,3.79,3.79,3.79,3.79,3.79,3.79,3.79,3.79,3.79,3.79,3.79,3.82,3.8462,3.8723,3.905,3.9168,3.9102,3.8828,3.8553,3.8253,3.8004,3.79,3.7926,3.8227,3.8488,3.8749,3.9076,3.9547,4.0004,4.2974,4.2974,4.2974,4.2974,4.2974,4.2974,4.2974,4.2974,4.2974,4.2974,4.2974,4.2974,4.2974,4.2974,4.2974,4.2974,4.2974,4.2974,4.2974,4.264,4.2108,4.1555,4.0877,4.0262,3.9697,3.9697,3.9697,3.9697,3.9981,4.0134,4.0185,4.0681,4.0933,4.0997,4.1211,4.0749,3.9795,3.9664,3.9024,3.8096,3.8096,3.8018,3.7913,3.8044,3.8096,3.8148,3.8553,3.854,3.8344,3.8619,3.8527,3.8279,3.8135,3.8096,3.82,3.8762,3.9011,3.9102,3.9102,3.9351,3.9677,3.9939,3.9899,3.9795,3.9795,3.9899,3.9965,3.9821,3.9913,3.9821,3.922,3.8998,3.8645,3.7835,0.0,0.0,0.0,3.6305,3.6462,3.6867,3.7743,3.824,3.8109,3.8214,3.824,3.8109,3.8227,3.8305,3.8305,3.8305,3.8305,3.8305,3.8044,3.7965,3.8083,3.8096,3.8096,3.8096,3.8658,3.8985,3.9115,3.9586,3.9547,3.9102,3.8972,3.8606,3.8083,3.7952,3.79,3.7952,3.8501,3.8802,3.8985,3.9586,4.0148,4.0566,4.2974,4.2974,4.2974,4.2974,4.2974,4.2974,4.2974,4.2974,4.2974,4.2974,4.2974,4.2974,4.2974,4.2974,4.2974,4.2974,4.2974,4.2974,4.2974,4.2936,4.2728,4.2175,4.1078,4.0262,3.9697,3.9697,3.9697,3.9697,3.9981,4.0236,4.0453,4.0795,4.1047,4.1261,4.1261,4.0958,4.0331,3.9821,3.9246,3.8645,3.8645,3.8344,3.7952,3.8462,3.8645,3.8658,3.8697,3.9037,3.9403,3.888,3.905,3.939,3.8828,3.8645,3.8762,3.9364,3.9899,4.0292,4.0292,3.9952,3.986,4.0932,4.0762,4.0357,4.0357,4.0788,4.1036,4.0474,4.0801,4.101,4.0396,3.9873,3.8998,3.7338,0.0,0.0,3.6867,3.6933,3.7534,3.9155,3.9429,3.9272,3.871,3.9155,3.9246,3.8697,3.9168,3.9481,3.9481,3.9481,3.9481,3.9481,3.8462,3.8148,3.8645,3.8645,3.8645,3.8658,3.9259,3.9808,4.0292,4.0331,4.0331,4.0265,3.9756,3.9207,3.8606,3.8109,3.79,3.7952,3.8501,3.905,3.9612,4.0161,4.0736,4.1246,4.2974,4.2974,4.2974,4.2974,4.2974,4.2974,4.2974,4.2974,4.2974,4.2974,4.2974,4.2974,4.2974,4.2974,4.2974,4.2974,4.2974,4.2974,4.2974,4.2974,4.2572,4.1693,4.0927,4.0302,3.9942,3.9929,4.0044,4.0211,4.044,4.0643,4.0744,4.0997,4.1211,4.1311,4.1311,4.0984,4.0396,4.02,3.9782,3.9272,3.9272,3.9141,3.8985,3.9194,3.9272,3.9311,3.9638,3.9703,3.9625,3.973,3.9703,3.9573,3.9337,3.9272,3.9377,3.9939,4.0514,4.0971,4.0971,4.0827,4.0775,4.1206,4.1141,4.0971,4.0971,4.1154,4.1246,4.1023,4.1154,4.1141,4.0527,4.0239,3.9782,3.8776,0.0,3.8357,3.8593,3.8619,3.8867,3.9534,3.9612,3.952,3.9285,3.9481,3.9507,3.9285,3.9481,3.9612,3.9612,3.9612,3.9756,4.0109,3.9364,3.9063,3.9272,3.9272,3.9272,3.9272,3.9847,4.0213,4.0422,4.0801,4.0762,4.0383,3.9847,3.9272,3.8671,3.8122,3.8109,3.8462,3.9037,3.9612,4.0187,4.0762,4.1115,4.1311,4.2974,4.2974,4.2974,4.2974,4.2974,4.2974,4.2974,4.2974,4.2974,4.2974,4.2974,4.2974,4.2974,4.2974,4.2974,4.2974,4.2974,4.2974,4.2974,4.3085,4.2595,4.1326,4.0855,4.0446,4.0083,4.0185,4.0338,4.0504,4.0795,4.0883,4.0896,4.1147,4.1311,4.1311,4.1311,4.1089,4.0684,4.0501,4.02,3.986,3.986,3.9756,3.9625,3.9795,3.986,3.9913,4.0278,4.0305,4.0174,4.0357,4.0292,4.0109,3.9926,3.9991,4.0187,4.0357,4.084,4.1311,4.1311,4.1311,4.1311,4.1311,4.1311,4.1311,4.1311,4.1311,4.1311,4.1311,4.1311,4.1193,4.0775,4.054,4.0292,3.9926,3.9716,3.9677,3.9847,3.986,3.9926,4.0122,4.0148,4.0069,3.9873,4.003,4.0069,3.9873,4.0043,4.0148,4.0148,3.9965,4.0122,4.0671,4.0161,3.9952,4.0135,3.9965,3.9782,3.9625,4.0357,4.0697,4.071,4.1128,4.0984,4.0396,4.0017,3.9534,3.8958,3.8593,3.8658,3.905,3.9638,4.0095,4.0488,4.1089,4.1311,4.1311,4.2974,4.2974,4.2974,4.2974,4.2974,4.2974,4.2974,4.2974,4.2974,4.2974,4.2974,4.2974,4.2974,4.2974,4.2974,4.2974,4.2974,4.2974,4.303,4.3227,4.2789,4.1392,4.1054,4.0654,4.0147,4.0351,4.0504,4.0504,4.0795,4.0883,4.0883,4.1161,4.1311,4.1311,4.1311,4.1311,4.1272,4.0671,4.0422,4.0422,4.0422,4.0109,3.9677,4.0213,4.0422,4.0422,4.0422,4.0814,4.1219,4.0618,4.0814,4.1206,4.0618,4.0827,4.1193,4.0592,4.084,4.1311,4.1311,4.1311,4.1311,4.1311,4.1311,4.1311,4.1311,4.1311,4.1311,4.1311,4.1311,4.1311,4.1311,4.0827,4.0422,4.0422,3.9978,3.9808,4.0344,4.0422,4.0644,4.1246,4.1311,4.1076,4.0488,4.0971,4.1063,4.0461,4.0971,4.1311,4.1311,4.0749,4.0697,4.1298,4.0736,4.071,4.1311,4.0723,4.0161,3.9638,4.0775,4.1311,4.1311,4.1311,4.0984,4.0422,4.0409,4.0109,3.9625,3.9612,3.9612,3.9677,4.0213,4.0409,4.0501,4.1089,4.1311,4.1311,4.2974,4.2974,4.2974,4.2974,4.2974,4.2974,4.2974,4.2974,4.2974,4.2974,4.2974,4.2974,4.2974,4.2974,4.2974,4.2974,4.3184,4.3364,4.3611,4.3325,4.2943,4.2516,4.2062,4.1657,4.1312,4.0951,4.0846,4.106,4.1161,4.1161,4.1161,4.1261,4.1311,4.1311,4.1311,4.1311,4.1311,4.1128,4.105,4.105,4.105,4.0945,4.0827,4.0984,4.105,4.105,4.105,4.1167,4.1285,4.1102,4.1167,4.1285,4.1102,4.1167,4.1272,4.1102,4.1167,4.1311,4.1311,4.1311,4.1311,4.1311,4.1311,4.1311,4.1311,4.1311,4.1311,4.1311,4.1311,4.1311,4.1311,4.1167,4.105,4.105,4.0919,4.0867,4.1023,4.105,4.1115,4.1298,4.1311,4.1246,4.1063,4.1206,4.1246,4.1063,4.1219,4.1311,4.1311,4.1141,4.1128,4.1311,4.1141,4.0932,4.0684,4.0932,4.0971,4.0814,4.1154,4.1311,4.1311,4.1311,4.1219,4.1023,4.0592,4.0331,4.0148,3.9769,3.9834,4.0187,4.0357,4.0671,4.1076,4.1246,4.1311,4.1311,4.2974,4.2974,4.2974,4.2974,4.2974,4.2974,4.2974,4.2974,4.2974,4.2974,4.2974,4.2974,4.2974,4.3085,4.3129,4.3129,4.3419,4.3708,4.3899,4.3663,4.3524,4.3524,4.2859,4.2293,4.1789,4.1295,4.1147,4.1311,4.1311,4.1311,4.1311,4.1311,4.1311,4.1311,4.1311,4.1311,4.1311,4.1311,4.1311,4.1311,4.1311,4.1311,4.1311,4.1311,4.1311,4.1311,4.1311,4.1311,4.1311,4.1311,4.1311,4.1311,4.1311,4.1311,4.1311,4.1311,4.1311,4.1311,4.1311,4.1311,4.1311,4.1311,4.1311,4.1311,4.1311,4.1311,4.1311,4.1311,4.1311,4.1311,4.1311,4.1311,4.1311,4.1311,4.1311,4.1311,4.1311,4.1311,4.1311,4.1311,4.1311,4.1311,4.1311,4.1311,4.1311,4.1311,4.1311,4.1311,4.1311,4.1311,4.1311,4.1311,4.1311,4.1141,4.0775,4.1141,4.1193,4.0971,4.1206,4.1311,4.1311,4.1311,4.1311,4.1298,4.0932,4.0775,4.0749,4.0422,4.0474,4.0775,4.0775,4.0997,4.1311,4.1311,4.1311,4.1311,4.2974,4.2974,4.2974,4.2974,4.2974,4.2974,4.2974,4.2974,4.303,4.303,4.303,4.303,4.3098,4.3295,4.3449,4.3449,4.3764,4.3955,4.3955,4.4216,4.4367,4.4367,4.3478,4.2697,4.1983,4.1512,4.1311,4.1311,4.1311,4.1311,4.1311,4.1311,4.1311,4.1311,4.1311,4.1311,4.1311,4.1311,4.1311,4.1311,4.1311,4.1311,4.1311,4.1311,4.1311,4.1311,4.1311,4.1311,4.1311,4.1311,4.1311,4.1311,4.1311,4.1311,4.1311,4.1311,4.1311,4.1311,4.1311,4.1311,4.1311,4.1311,4.1311,4.1311,4.1311,4.1311,4.1311,4.1311,4.1311,4.1311,4.1311,4.1311,4.1311,4.1311,4.1311,4.1311,4.1311,4.1311,4.1311,4.1311,4.1311,4.1311,4.1311,4.1311,4.1311,4.1311,4.1311,4.1311,4.1311,4.1311,4.1311,4.1311,4.1311,4.1311,4.1311,4.1311,4.1036,4.0501,4.105,4.1311,4.1311,4.1311,4.1311,4.1311,4.1311,4.1311,4.1311,4.1311,4.1311,4.1311,4.1311,4.1311,4.1311,4.1311,4.1311,4.1311,4.2974,4.2974,4.2974,4.2974,4.2974,4.2974,4.2974,4.2974,4.3085,4.3295,4.3283,4.3406,4.3666,4.3776,4.3776,4.3776,4.4039,4.4313,4.4518,4.4572,4.4626,4.4626,4.3584,4.3127,4.3454,4.2018,4.1311,4.1311,4.1311,4.1311,4.1311,4.1311,4.1311,4.1311,4.1311,4.1311,4.1311,4.1311,4.1311,4.1311,4.1311,4.1311,4.1311,4.1311,4.1311,4.1311,4.1311,4.1311,4.1311,4.1311,4.1311,4.1311,4.1311,4.1311,4.1311,4.1311,4.1311,4.1311,4.1311,4.1311,4.1311,4.1311,4.1311,4.1311,4.1311,4.1311,4.1311,4.1311,4.1311,4.1311,4.1311,4.1311,4.1311,4.1311,4.1311,4.1311,4.1311,4.1311,4.1311,4.1311,4.1311,4.1311,4.1311,4.1311,4.1311,4.1311,4.1311,4.1311,4.1311,4.1311,4.1311,4.1311,4.1311,4.1311,4.1311,4.1311,4.1246,4.1115,4.1259,4.1311,4.1311,4.1311,4.1311,4.1311,4.1311,4.1311,4.1311,4.1311,4.1311,4.1311,4.1311,4.1311,4.1311,4.1311,4.1311,4.1311,4.2974,4.2974,4.2974,4.2974,4.2974,4.2974,4.2974,4.2974,4.3085,4.3338,4.3394,4.3517,4.3832,4.3997,4.4161,4.4258,4.4422,4.4572,4.4668,4.4668,4.4668,4.4668,4.3637,4.3284,4.3912,4.2461,4.1716,4.1716,4.1442,4.1311,4.1311,4.1311,4.1311,4.1311,4.1311,4.1311,4.1311,4.1311,4.1311,4.1311,4.1311,4.1311,4.1311,4.1311,4.1311,4.1311,4.1311,4.1311,4.1311,4.1311,4.1311,4.1311,4.1311,4.1311,4.1311,4.1311,4.1311,4.1311,4.1311,4.1311,4.1311,4.1311,4.1311,4.1311,4.1311,4.1311,4.1311,4.1311,4.1311,4.1311,4.1311,4.1311,4.1311,4.1311,4.1311,4.1311,4.1311,4.1311,4.1311,4.1311,4.1311,4.1311,4.1311,4.1311,4.1311,4.1311,4.1311,4.1311,4.1311,4.1311,4.1311,4.1311,4.1311,4.1311,4.1311,4.1311,4.1311,4.1311,4.1311,4.1311,4.1311,4.1311,4.1311,4.1311,4.1311,4.1311,4.1261,4.1147,4.1161,4.1261,4.1161,4.1211,4.1261,4.1161,4.106,4.0959,4.3154,4.3154,4.3154,4.3085,4.3085,4.3085,4.3085,4.3085,4.3197,4.3504,4.356,4.3683,4.3997,4.4258,4.4463,4.4681,4.4668,4.4668,4.4668,4.4668,4.4668,4.4668,4.3729,4.3389,4.3912,4.28,4.2211,4.2211,4.169,4.1415,4.1311,4.1311,4.1311,4.1311,4.1311,4.1311,4.1311,4.1311,4.1311,4.1311,4.1311,4.1311,4.1311,4.1311,4.1311,4.1311,4.1311,4.1311,4.1311,4.1311,4.1311,4.1311,4.1311,4.1311,4.1311,4.1311,4.1311,4.1311,4.1311,4.1311,4.1311,4.1311,4.1311,4.1311,4.1311,4.1311,4.1311,4.1311,4.1311,4.1311,4.1311,4.1311,4.1311,4.1311,4.1311,4.1311,4.1311,4.1311,4.1311,4.1311,4.1311,4.1311,4.1311,4.1311,4.1311,4.1311,4.1311,4.1311,4.1311,4.1311,4.1311,4.1311,4.1311,4.1311,4.1311,4.1311,4.1311,4.1311,4.1311,4.1261,4.1211,4.1211,4.1211,4.1211,4.1161,4.1211,4.1211,4.0946,4.0946,4.1161,4.0946,4.0946,4.1161,4.0896,4.0694,4.0555,4.3776,4.3776,4.3666,4.3406,4.3338,4.3338,4.3338,4.3338,4.3572,4.4081,4.419,4.43,4.4572,4.4626,4.4681,4.4668,4.4668,4.4668,4.4668,4.4668,4.4668,4.4668,4.4108,4.3794,4.3926,4.28,4.2211,4.2211,4.2146,4.1794,4.1311,4.1311,4.1311,4.1311,4.1311,4.1311,4.1311,4.1311,4.1311,4.1311,4.1311,4.1311,4.1311,4.1311,4.1311,4.1311,4.1311,4.1311,4.1311,4.1311,4.1311,4.1311,4.1311,4.1311,4.1311,4.1311,4.1311,4.1311,4.1311,4.1311,4.1311,4.1311,4.1311,4.1311,4.1311,4.1311,4.1311,4.1311,4.1311,4.1311,4.1311,4.1311,4.1311,4.1311,4.1311,4.1311,4.1311,4.1311,4.1311,4.1311,4.1311,4.1311,4.1311,4.1311,4.1311,4.1311,4.1311,4.1311,4.1311,4.1311,4.1311,4.1311,4.1311,4.1311,4.1311,4.1311,4.1311,4.1311,4.1311,4.1161,4.0933,4.0933,4.0933,4.0933,4.0694,4.0744,4.0933,4.0643,4.0555,4.0605,4.0555,4.0555,4.0605,4.0555,4.0555,4.0504,4.3899,4.3899,4.3832,4.3708,4.3708,4.3708,4.3708,4.3708,4.3819,4.4258,4.4313,4.4422,4.4681,4.4668,4.4668,4.4668,4.4668,4.4668,4.4668,4.4668,4.4668,4.4668,4.4186,4.4029,4.4343,4.3546,4.3167,4.3167,4.216,4.1559,4.1311,4.1311,4.1311,4.1311,4.1311,4.1311,4.1311,4.1311,4.1311,4.1311,4.1311,4.1311,4.1311,4.1311,4.1311,4.1311,4.1311,4.1311,4.1311,4.1311,4.1311,4.1311,4.1311,4.1311,4.1311,4.1311,4.1311,4.1311,4.1311,4.1311,4.1311,4.1311,4.1311,4.1311,4.1311,4.1311,4.1311,4.1311,4.1311,4.1311,4.1311,4.1311,4.1311,4.1311,4.1311,4.1261,4.1097,4.1097,4.0997,4.0858,4.101,4.1097,4.1097,4.1211,4.1311,4.1311,4.1311,4.1311,4.1311,4.1311,4.1311,4.1311,4.1311,4.1311,4.1311,4.1311,4.1211,4.1097,4.1097,4.0984,4.0883,4.0883,4.0846,4.0643,4.0555,4.0555,4.0643,4.0389,4.0338,4.0504,4.0338,4.0287,4.0287,4.0287,4.0185,4.0044]}]]